<?xml version="1.0" encoding="UTF-8" standalone="no" ?>
<gpx xmlns="http://www.topografix.com/GPX/1/1" xmlns:gpxtpx="http://www.garmin.com/xmlschemas/TrackPointExtension/v1" creator="OruxMaps" version="1.1" xmlns:xsi="http://www.w3.org/2001/XMLSchema-instance" xsi:schemaLocation="http://www.topografix.com/GPX/1/1 http://www.topografix.com/GPX/1/1/gpx.xsd">
<metadata>
<name><![CDATA[2012-08-02 09:59]]></name>
<desc><![CDATA[]]></desc>
<link href="http://www.oruxmaps.com">
<text>OruxMaps</text>
</link>
<time>2012-08-02T07:59:45Z</time><bounds maxlat="59.675791366025805" maxlon="16.70148991048336" minlat="59.54362562933171" minlon="16.51309808716178"/>
</metadata>
<trk>
<name><![CDATA[2012-08-02 09:59]]></name>
<desc><![CDATA[<h1>OruxMaps</h1><br /><hr align="center" width="480" style="height: 2px; width: 517px"/><h2>Name: 2012-08-02 09:59</h2><br /><p>Start time: 08/02/2012 09:59</p><p>Finish time: 08/02/2012 14:11</p><p>Distance: 53 km (04:11)</p><p>Moving time: 02:45</p><p>Average speed: 12,6 km/h</p><p>Avg. Speed Mov.: 19,2 km/h</p><p>Max. Speed: 37,6 km/h</p><p>Minimum altitude: 28 m</p><p>Maximum altitude: 99 m</p><p>Rise speed: 437,4 m/h</p><p>Fall speed: −217,3 m/h</p><p>Elevation gain: 455 m</p><p>Elevation loss: -435 m</p><p>Rise time: 01:02</p><p>Fall time: 02:00</p><hr align="center" width="480" style="height: 2px; width: 517px"/>]]></desc>
<type>Odefinierad</type>
<trkseg>
<trkpt lat="59.63912640698254" lon="16.524798469617963">
<ele>54.799988</ele>
<time>2012-08-02T07:59:47Z</time>
</trkpt>
<trkpt lat="59.6390552027151" lon="16.524452213197947">
<ele>72.27948</ele>
<time>2012-08-02T08:09:08Z</time>
</trkpt>
<trkpt lat="59.63899611029774" lon="16.524063544347882">
<ele>70.3834</ele>
<time>2012-08-02T08:09:15Z</time>
</trkpt>
<trkpt lat="59.63887369260192" lon="16.52377470396459">
<ele>69.31784</ele>
<time>2012-08-02T08:09:20Z</time>
</trkpt>
<trkpt lat="59.63878534734249" lon="16.523463735356927">
<ele>68.20837</ele>
<time>2012-08-02T08:09:24Z</time>
</trkpt>
<trkpt lat="59.638686273247004" lon="16.523138098418713">
<ele>66.41866</ele>
<time>2012-08-02T08:09:28Z</time>
</trkpt>
<trkpt lat="59.63859838899225" lon="16.522810868918896">
<ele>65.077774</ele>
<time>2012-08-02T08:09:32Z</time>
</trkpt>
<trkpt lat="59.63849684223533" lon="16.522500067949295">
<ele>64.477745</ele>
<time>2012-08-02T08:09:36Z</time>
</trkpt>
<trkpt lat="59.638401539996266" lon="16.522170240059495">
<ele>64.20468</ele>
<time>2012-08-02T08:09:40Z</time>
</trkpt>
<trkpt lat="59.63831189554185" lon="16.52184803970158">
<ele>63.85969</ele>
<time>2012-08-02T08:09:44Z</time>
</trkpt>
<trkpt lat="59.63816110510379" lon="16.521636815741658">
<ele>63.637005</ele>
<time>2012-08-02T08:09:49Z</time>
</trkpt>
<trkpt lat="59.63812187779695" lon="16.52125577442348">
<ele>63.092754</ele>
<time>2012-08-02T08:09:54Z</time>
</trkpt>
<trkpt lat="59.638247061520815" lon="16.520907506346703">
<ele>62.70517</ele>
<time>2012-08-02T08:10:00Z</time>
</trkpt>
<trkpt lat="59.638319397345185" lon="16.520564686506987">
<ele>63.117546</ele>
<time>2012-08-02T08:10:06Z</time>
</trkpt>
<trkpt lat="59.63850132655352" lon="16.520467791706324">
<ele>64.28841</ele>
<time>2012-08-02T08:10:13Z</time>
</trkpt>
<trkpt lat="59.63868623133749" lon="16.520372238010168">
<ele>65.85133</ele>
<time>2012-08-02T08:10:19Z</time>
</trkpt>
<trkpt lat="59.63888957630843" lon="16.52031314559281">
<ele>67.75306</ele>
<time>2012-08-02T08:10:26Z</time>
</trkpt>
<trkpt lat="59.63909983634949" lon="16.520255813375115">
<ele>69.9644</ele>
<time>2012-08-02T08:10:32Z</time>
</trkpt>
<trkpt lat="59.63928092736751" lon="16.520227398723364">
<ele>71.659515</ele>
<time>2012-08-02T08:10:37Z</time>
</trkpt>
<trkpt lat="59.63948091957718" lon="16.52035421691835">
<ele>72.44478</ele>
<time>2012-08-02T08:10:42Z</time>
</trkpt>
<trkpt lat="59.639686988666654" lon="16.52050467208028">
<ele>72.18632</ele>
<time>2012-08-02T08:10:47Z</time>
</trkpt>
<trkpt lat="59.63989360257983" lon="16.520602824166417">
<ele>73.381996</ele>
<time>2012-08-02T08:10:52Z</time>
</trkpt>
<trkpt lat="59.640084081329405" lon="16.520654624328017">
<ele>75.071266</ele>
<time>2012-08-02T08:10:56Z</time>
</trkpt>
<trkpt lat="59.640269447118044" lon="16.52072704397142">
<ele>76.845604</ele>
<time>2012-08-02T08:11:00Z</time>
</trkpt>
<trkpt lat="59.64047698304057" lon="16.520656133070588">
<ele>78.99577</ele>
<time>2012-08-02T08:11:05Z</time>
</trkpt>
<trkpt lat="59.64065497275442" lon="16.520464438945055">
<ele>80.499</ele>
<time>2012-08-02T08:11:10Z</time>
</trkpt>
<trkpt lat="59.64082663413137" lon="16.520277690142393">
<ele>81.77955</ele>
<time>2012-08-02T08:11:15Z</time>
</trkpt>
<trkpt lat="59.64098832104355" lon="16.520053977146745">
<ele>82.53177</ele>
<time>2012-08-02T08:11:20Z</time>
</trkpt>
<trkpt lat="59.64116379618645" lon="16.519971918314695">
<ele>82.93098</ele>
<time>2012-08-02T08:11:25Z</time>
</trkpt>
<trkpt lat="59.64135569985956" lon="16.519920956343412">
<ele>83.49492</ele>
<time>2012-08-02T08:11:32Z</time>
</trkpt>
<trkpt lat="59.64152182918042" lon="16.520113572478294">
<ele>83.7509</ele>
<time>2012-08-02T08:11:40Z</time>
</trkpt>
<trkpt lat="59.6417152415961" lon="16.520238798111677">
<ele>84.62472</ele>
<time>2012-08-02T08:11:46Z</time>
</trkpt>
<trkpt lat="59.641897841356695" lon="16.520273918285966">
<ele>86.285965</ele>
<time>2012-08-02T08:11:52Z</time>
</trkpt>
<trkpt lat="59.64208316523582" lon="16.52026729658246">
<ele>87.52114</ele>
<time>2012-08-02T08:11:58Z</time>
</trkpt>
<trkpt lat="59.64225880801678" lon="16.5201875846833">
<ele>88.400024</ele>
<time>2012-08-02T08:12:04Z</time>
</trkpt>
<trkpt lat="59.642413998954" lon="16.51998097077012">
<ele>88.84808</ele>
<time>2012-08-02T08:12:10Z</time>
</trkpt>
<trkpt lat="59.642588845454156" lon="16.519793467596173">
<ele>90.13447</ele>
<time>2012-08-02T08:12:21Z</time>
</trkpt>
<trkpt lat="59.64272408746183" lon="16.519522815942764">
<ele>87.63224</ele>
<time>2012-08-02T08:12:33Z</time>
</trkpt>
<trkpt lat="59.64288636110723" lon="16.51932869106531">
<ele>87.31748</ele>
<time>2012-08-02T08:12:43Z</time>
</trkpt>
<trkpt lat="59.643062967807055" lon="16.51915669441223">
<ele>87.84147</ele>
<time>2012-08-02T08:12:53Z</time>
</trkpt>
<trkpt lat="59.64320064056665" lon="16.51886592619121">
<ele>87.549644</ele>
<time>2012-08-02T08:13:02Z</time>
</trkpt>
<trkpt lat="59.6431735670194" lon="16.518452866002917">
<ele>85.63179</ele>
<time>2012-08-02T08:13:08Z</time>
</trkpt>
<trkpt lat="59.643178009428084" lon="16.51806595735252">
<ele>82.77178</ele>
<time>2012-08-02T08:13:17Z</time>
</trkpt>
<trkpt lat="59.6431053802371" lon="16.517700757831335">
<ele>81.92218</ele>
<time>2012-08-02T08:13:23Z</time>
</trkpt>
<trkpt lat="59.64300685096532" lon="16.517360117286444">
<ele>82.09467</ele>
<time>2012-08-02T08:13:31Z</time>
</trkpt>
<trkpt lat="59.642936581839784" lon="16.517003685810213">
<ele>81.80292</ele>
<time>2012-08-02T08:13:41Z</time>
</trkpt>
<trkpt lat="59.642871261242185" lon="16.51666474159951">
<ele>78.208885</ele>
<time>2012-08-02T08:13:52Z</time>
</trkpt>
<trkpt lat="59.642995628090354" lon="16.516400024534327">
<ele>79.65904</ele>
<time>2012-08-02T08:14:04Z</time>
</trkpt>
<trkpt lat="59.64317975028607" lon="16.516238032677478">
<ele>81.323784</ele>
<time>2012-08-02T08:14:13Z</time>
</trkpt>
<trkpt lat="59.64333044963769" lon="16.51596070468075">
<ele>82.386536</ele>
<time>2012-08-02T08:14:21Z</time>
</trkpt>
<trkpt lat="59.64346784998852" lon="16.515698785300067">
<ele>82.995285</ele>
<time>2012-08-02T08:14:29Z</time>
</trkpt>
<trkpt lat="59.64358865931402" lon="16.515430096822875">
<ele>83.6941</ele>
<time>2012-08-02T08:14:35Z</time>
</trkpt>
<trkpt lat="59.643623526708716" lon="16.515035802512458">
<ele>83.009445</ele>
<time>2012-08-02T08:14:43Z</time>
</trkpt>
<trkpt lat="59.64366155890858" lon="16.51468816563773">
<ele>80.94017</ele>
<time>2012-08-02T08:14:50Z</time>
</trkpt>
<trkpt lat="59.643817380957195" lon="16.51442403880371">
<ele>80.84315</ele>
<time>2012-08-02T08:14:57Z</time>
</trkpt>
<trkpt lat="59.643954696649615" lon="16.514138835090414">
<ele>77.6505</ele>
<time>2012-08-02T08:15:04Z</time>
</trkpt>
<trkpt lat="59.64405060745776" lon="16.513831922784448">
<ele>72.30309</ele>
<time>2012-08-02T08:15:46Z</time>
</trkpt>
<trkpt lat="59.64411611203104" lon="16.513376785442233">
<ele>71.88256</ele>
<time>2012-08-02T08:15:51Z</time>
</trkpt>
<trkpt lat="59.64429996907711" lon="16.51309808716178">
<ele>71.28863</ele>
<time>2012-08-02T08:15:55Z</time>
</trkpt>
<trkpt lat="59.644477581605315" lon="16.51315533556044">
<ele>70.70227</ele>
<time>2012-08-02T08:15:59Z</time>
</trkpt>
<trkpt lat="59.64461449999362" lon="16.513400254771113">
<ele>70.38486</ele>
<time>2012-08-02T08:16:07Z</time>
</trkpt>
<trkpt lat="59.644794249907136" lon="16.513566467911005">
<ele>71.76377</ele>
<time>2012-08-02T08:16:15Z</time>
</trkpt>
<trkpt lat="59.644991056993604" lon="16.513589099049568">
<ele>72.874855</ele>
<time>2012-08-02T08:16:22Z</time>
</trkpt>
<trkpt lat="59.64516845997423" lon="16.51366587728262">
<ele>74.39364</ele>
<time>2012-08-02T08:16:27Z</time>
</trkpt>
<trkpt lat="59.64535189792514" lon="16.513812225311995">
<ele>77.161064</ele>
<time>2012-08-02T08:16:35Z</time>
</trkpt>
<trkpt lat="59.64544124901295" lon="16.514146914705634">
<ele>76.86622</ele>
<time>2012-08-02T08:16:46Z</time>
</trkpt>
<trkpt lat="59.64556240942329" lon="16.514452435076237">
<ele>77.088524</ele>
<time>2012-08-02T08:16:52Z</time>
</trkpt>
<trkpt lat="59.6457587974146" lon="16.514588138088584">
<ele>78.86798</ele>
<time>2012-08-02T08:16:57Z</time>
</trkpt>
<trkpt lat="59.64593942742795" lon="16.514628622680902">
<ele>80.74094</ele>
<time>2012-08-02T08:17:02Z</time>
</trkpt>
<trkpt lat="59.64612160809338" lon="16.514665922150016">
<ele>82.20493</ele>
<time>2012-08-02T08:17:07Z</time>
</trkpt>
<trkpt lat="59.646291844546795" lon="16.51447900570929">
<ele>83.094536</ele>
<time>2012-08-02T08:17:11Z</time>
</trkpt>
<trkpt lat="59.64640541933477" lon="16.51415060274303">
<ele>83.37546</ele>
<time>2012-08-02T08:17:16Z</time>
</trkpt>
<trkpt lat="59.6465355227713" lon="16.513899387316773">
<ele>84.04147</ele>
<time>2012-08-02T08:17:28Z</time>
</trkpt>
<trkpt lat="59.64671322569437" lon="16.513847213165416">
<ele>85.23312</ele>
<time>2012-08-02T08:17:35Z</time>
</trkpt>
<trkpt lat="59.6468937923572" lon="16.513799281862596">
<ele>85.4641</ele>
<time>2012-08-02T08:17:44Z</time>
</trkpt>
<trkpt lat="59.6470813520266" lon="16.513756609649114">
<ele>85.56416</ele>
<time>2012-08-02T08:17:51Z</time>
</trkpt>
<trkpt lat="59.64727139772053" lon="16.513683333544087">
<ele>85.88682</ele>
<time>2012-08-02T08:17:58Z</time>
</trkpt>
<trkpt lat="59.647455465338986" lon="16.513704636395538">
<ele>85.86533</ele>
<time>2012-08-02T08:18:07Z</time>
</trkpt>
<trkpt lat="59.64763357069947" lon="16.513807389986297">
<ele>86.11344</ele>
<time>2012-08-02T08:18:14Z</time>
</trkpt>
<trkpt lat="59.647829286848264" lon="16.513912479601107">
<ele>86.62923</ele>
<time>2012-08-02T08:18:21Z</time>
</trkpt>
<trkpt lat="59.64802734186686" lon="16.513993706220614">
<ele>87.797005</ele>
<time>2012-08-02T08:18:26Z</time>
</trkpt>
<trkpt lat="59.6482255718315" lon="16.514028766145227">
<ele>89.50648</ele>
<time>2012-08-02T08:18:32Z</time>
</trkpt>
<trkpt lat="59.64842331510365" lon="16.51407611178014">
<ele>90.67558</ele>
<time>2012-08-02T08:18:39Z</time>
</trkpt>
<trkpt lat="59.648610647793106" lon="16.514046895686462">
<ele>91.2076</ele>
<time>2012-08-02T08:18:45Z</time>
</trkpt>
<trkpt lat="59.648788467716756" lon="16.51399222972873">
<ele>91.52118</ele>
<time>2012-08-02T08:18:50Z</time>
</trkpt>
<trkpt lat="59.64898090422452" lon="16.513999963032237">
<ele>91.645</ele>
<time>2012-08-02T08:18:57Z</time>
</trkpt>
<trkpt lat="59.64917583774659" lon="16.513986600532217">
<ele>91.69471</ele>
<time>2012-08-02T08:19:02Z</time>
</trkpt>
<trkpt lat="59.64935527282317" lon="16.51396077758124">
<ele>91.768036</ele>
<time>2012-08-02T08:19:07Z</time>
</trkpt>
<trkpt lat="59.64953910100435" lon="16.513916093805232">
<ele>91.49482</ele>
<time>2012-08-02T08:19:12Z</time>
</trkpt>
<trkpt lat="59.649737910677274" lon="16.5138884933278">
<ele>91.0376</ele>
<time>2012-08-02T08:19:18Z</time>
</trkpt>
<trkpt lat="59.64990665349578" lon="16.513737426355952">
<ele>90.16107</ele>
<time>2012-08-02T08:19:23Z</time>
</trkpt>
<trkpt lat="59.650040968986055" lon="16.514034744311086">
<ele>87.23599</ele>
<time>2012-08-02T08:19:30Z</time>
</trkpt>
<trkpt lat="59.649994252436244" lon="16.51438446674291">
<ele>83.18125</ele>
<time>2012-08-02T08:19:37Z</time>
</trkpt>
<trkpt lat="59.64997305693125" lon="16.51474929373049">
<ele>80.282196</ele>
<time>2012-08-02T08:19:45Z</time>
</trkpt>
<trkpt lat="59.65015410479049" lon="16.514952207694">
<ele>81.22268</ele>
<time>2012-08-02T08:19:49Z</time>
</trkpt>
<trkpt lat="59.65030662609452" lon="16.51520165787633">
<ele>81.94727</ele>
<time>2012-08-02T08:19:53Z</time>
</trkpt>
<trkpt lat="59.650458824388615" lon="16.51549450209225">
<ele>82.39455</ele>
<time>2012-08-02T08:19:57Z</time>
</trkpt>
<trkpt lat="59.65059099388485" lon="16.515747737732347">
<ele>83.24546</ele>
<time>2012-08-02T08:20:01Z</time>
</trkpt>
<trkpt lat="59.65074619472015" lon="16.51605086385189">
<ele>83.596565</ele>
<time>2012-08-02T08:20:06Z</time>
</trkpt>
<trkpt lat="59.65092003354248" lon="16.516192436299537">
<ele>83.374214</ele>
<time>2012-08-02T08:20:11Z</time>
</trkpt>
<trkpt lat="59.65110062621534" lon="16.516147842630744">
<ele>78.61771</ele>
<time>2012-08-02T08:20:31Z</time>
</trkpt>
<trkpt lat="59.65129944495857" lon="16.516202492639422">
<ele>78.56478</ele>
<time>2012-08-02T08:22:33Z</time>
</trkpt>
<trkpt lat="59.651473998092115" lon="16.51629611849785">
<ele>78.3669</ele>
<time>2012-08-02T08:22:41Z</time>
</trkpt>
<trkpt lat="59.65164167806506" lon="16.516078524291515">
<ele>79.02301</ele>
<time>2012-08-02T08:22:46Z</time>
</trkpt>
<trkpt lat="59.651805963367224" lon="16.515927482396364">
<ele>79.08157</ele>
<time>2012-08-02T08:22:49Z</time>
</trkpt>
<trkpt lat="59.65199174825102" lon="16.51580066420138">
<ele>79.17972</ele>
<time>2012-08-02T08:22:52Z</time>
</trkpt>
<trkpt lat="59.6521880524233" lon="16.515641743317246">
<ele>79.37582</ele>
<time>2012-08-02T08:22:55Z</time>
</trkpt>
<trkpt lat="59.65241457335651" lon="16.515508638694882">
<ele>79.56324</ele>
<time>2012-08-02T08:22:58Z</time>
</trkpt>
<trkpt lat="59.65262189973146" lon="16.515507297590375">
<ele>79.925125</ele>
<time>2012-08-02T08:23:01Z</time>
</trkpt>
<trkpt lat="59.65282109566033" lon="16.515522804111242">
<ele>80.298096</ele>
<time>2012-08-02T08:23:04Z</time>
</trkpt>
<trkpt lat="59.65300055220723" lon="16.515472596511245">
<ele>80.93768</ele>
<time>2012-08-02T08:23:08Z</time>
</trkpt>
<trkpt lat="59.65318792965263" lon="16.51559052988887">
<ele>80.961136</ele>
<time>2012-08-02T08:23:12Z</time>
</trkpt>
<trkpt lat="59.65337593574077" lon="16.515828827396035">
<ele>80.9463</ele>
<time>2012-08-02T08:23:16Z</time>
</trkpt>
<trkpt lat="59.65358749497682" lon="16.515847770497203">
<ele>81.33145</ele>
<time>2012-08-02T08:23:20Z</time>
</trkpt>
<trkpt lat="59.65381682384759" lon="16.515726735815406">
<ele>82.07518</ele>
<time>2012-08-02T08:23:24Z</time>
</trkpt>
<trkpt lat="59.653998292051256" lon="16.515699913725257">
<ele>82.67859</ele>
<time>2012-08-02T08:23:27Z</time>
</trkpt>
<trkpt lat="59.65420364867896" lon="16.51575959287584">
<ele>83.35034</ele>
<time>2012-08-02T08:23:30Z</time>
</trkpt>
<trkpt lat="59.65437531005591" lon="16.515978276729584">
<ele>83.954056</ele>
<time>2012-08-02T08:23:33Z</time>
</trkpt>
<trkpt lat="59.6545840613544" lon="16.516203079372644">
<ele>83.75093</ele>
<time>2012-08-02T08:23:36Z</time>
</trkpt>
<trkpt lat="59.654766200110316" lon="16.516479179263115">
<ele>83.24649</ele>
<time>2012-08-02T08:23:39Z</time>
</trkpt>
<trkpt lat="59.65492390561849" lon="16.516757709905505">
<ele>81.98367</ele>
<time>2012-08-02T08:23:42Z</time>
</trkpt>
<trkpt lat="59.65504934079945" lon="16.517060128971934">
<ele>80.57592</ele>
<time>2012-08-02T08:23:45Z</time>
</trkpt>
<trkpt lat="59.65518651064485" lon="16.517443684861064">
<ele>78.94316</ele>
<time>2012-08-02T08:23:49Z</time>
</trkpt>
<trkpt lat="59.6553438808769" lon="16.51779538951814">
<ele>77.77265</ele>
<time>2012-08-02T08:23:53Z</time>
</trkpt>
<trkpt lat="59.65550435241312" lon="16.51803812943399">
<ele>77.35658</ele>
<time>2012-08-02T08:23:57Z</time>
</trkpt>
<trkpt lat="59.655688712373376" lon="16.518235271796584">
<ele>77.287056</ele>
<time>2012-08-02T08:24:01Z</time>
</trkpt>
<trkpt lat="59.655868210829794" lon="16.51837717741728">
<ele>78.21074</ele>
<time>2012-08-02T08:24:05Z</time>
</trkpt>
<trkpt lat="59.65606501791626" lon="16.518382793292403">
<ele>79.55535</ele>
<time>2012-08-02T08:24:09Z</time>
</trkpt>
<trkpt lat="59.65625243727118" lon="16.518222615122795">
<ele>80.5222</ele>
<time>2012-08-02T08:24:13Z</time>
</trkpt>
<trkpt lat="59.65641563292593" lon="16.517887841910124">
<ele>81.0328</ele>
<time>2012-08-02T08:24:17Z</time>
</trkpt>
<trkpt lat="59.65656596235931" lon="16.5176784619689">
<ele>81.4154</ele>
<time>2012-08-02T08:24:20Z</time>
</trkpt>
<trkpt lat="59.65673565398902" lon="16.51752750389278">
<ele>81.94556</ele>
<time>2012-08-02T08:24:23Z</time>
</trkpt>
<trkpt lat="59.65691297315061" lon="16.517376294359565">
<ele>82.51922</ele>
<time>2012-08-02T08:24:26Z</time>
</trkpt>
<trkpt lat="59.65709410607815" lon="16.517283925786614">
<ele>83.006546</ele>
<time>2012-08-02T08:24:29Z</time>
</trkpt>
<trkpt lat="59.657271089963615" lon="16.51715367101133">
<ele>83.31682</ele>
<time>2012-08-02T08:24:32Z</time>
</trkpt>
<trkpt lat="59.657448241487145" lon="16.51697538793087">
<ele>83.49147</ele>
<time>2012-08-02T08:24:35Z</time>
</trkpt>
<trkpt lat="59.657624890096486" lon="16.51682250201702">
<ele>83.68078</ele>
<time>2012-08-02T08:24:38Z</time>
</trkpt>
<trkpt lat="59.65782094281167" lon="16.516646649688482">
<ele>84.06111</ele>
<time>2012-08-02T08:24:42Z</time>
</trkpt>
<trkpt lat="59.658042434602976" lon="16.51658797636628">
<ele>84.61387</ele>
<time>2012-08-02T08:24:46Z</time>
</trkpt>
<trkpt lat="59.658225369639695" lon="16.516599375754595">
<ele>84.81522</ele>
<time>2012-08-02T08:24:49Z</time>
</trkpt>
<trkpt lat="59.65840591583401" lon="16.51653617620468">
<ele>85.18298</ele>
<time>2012-08-02T08:24:52Z</time>
</trkpt>
<trkpt lat="59.6586445486173" lon="16.5164609067142">
<ele>85.29149</ele>
<time>2012-08-02T08:24:56Z</time>
</trkpt>
<trkpt lat="59.65884164907038" lon="16.516326209530234">
<ele>85.068275</ele>
<time>2012-08-02T08:24:59Z</time>
</trkpt>
<trkpt lat="59.65902399737388" lon="16.516035022214055">
<ele>85.16631</ele>
<time>2012-08-02T08:25:02Z</time>
</trkpt>
<trkpt lat="59.65919712558389" lon="16.515786163508892">
<ele>85.452965</ele>
<time>2012-08-02T08:25:05Z</time>
</trkpt>
<trkpt lat="59.65935998596251" lon="16.51563352905214">
<ele>86.12703</ele>
<time>2012-08-02T08:25:08Z</time>
</trkpt>
<trkpt lat="59.65956777334213" lon="16.51559153571725">
<ele>87.3605</ele>
<time>2012-08-02T08:25:12Z</time>
</trkpt>
<trkpt lat="59.65975246857852" lon="16.515770740807056">
<ele>88.013275</ele>
<time>2012-08-02T08:25:16Z</time>
</trkpt>
<trkpt lat="59.659931464120746" lon="16.51598204858601">
<ele>88.165535</ele>
<time>2012-08-02T08:25:20Z</time>
</trkpt>
<trkpt lat="59.66014847159386" lon="16.51603569276631">
<ele>88.666046</ele>
<time>2012-08-02T08:25:24Z</time>
</trkpt>
<trkpt lat="59.66038052458316" lon="16.5159756783396">
<ele>89.125175</ele>
<time>2012-08-02T08:25:28Z</time>
</trkpt>
<trkpt lat="59.66059564612806" lon="16.516065699979663">
<ele>89.7021</ele>
<time>2012-08-02T08:25:32Z</time>
</trkpt>
<trkpt lat="59.66076248791069" lon="16.516283629462123">
<ele>89.61355</ele>
<time>2012-08-02T08:25:36Z</time>
</trkpt>
<trkpt lat="59.66093163471669" lon="16.516515975818038">
<ele>89.212875</ele>
<time>2012-08-02T08:25:40Z</time>
</trkpt>
<trkpt lat="59.66109374072403" lon="16.516684452071786">
<ele>89.42262</ele>
<time>2012-08-02T08:25:43Z</time>
</trkpt>
<trkpt lat="59.66125023085624" lon="16.51685963384807">
<ele>89.95173</ele>
<time>2012-08-02T08:25:46Z</time>
</trkpt>
<trkpt lat="59.66138245537877" lon="16.51716439984739">
<ele>90.08706</ele>
<time>2012-08-02T08:25:50Z</time>
</trkpt>
<trkpt lat="59.66137587558478" lon="16.517533706501126">
<ele>88.35801</ele>
<time>2012-08-02T08:25:54Z</time>
</trkpt>
<trkpt lat="59.6613050904125" lon="16.51796093210578">
<ele>85.97998</ele>
<time>2012-08-02T08:25:59Z</time>
</trkpt>
<trkpt lat="59.661319800652564" lon="16.518329484388232">
<ele>83.76359</ele>
<time>2012-08-02T08:26:03Z</time>
</trkpt>
<trkpt lat="59.66136862523854" lon="16.51867624372244">
<ele>82.66231</ele>
<time>2012-08-02T08:26:07Z</time>
</trkpt>
<trkpt lat="59.66152574401349" lon="16.518982853740454">
<ele>82.49862</ele>
<time>2012-08-02T08:26:11Z</time>
</trkpt>
<trkpt lat="59.66172464657575" lon="16.519106570631266">
<ele>83.43512</ele>
<time>2012-08-02T08:26:15Z</time>
</trkpt>
<trkpt lat="59.66192711144686" lon="16.51914780959487">
<ele>84.79198</ele>
<time>2012-08-02T08:26:19Z</time>
</trkpt>
<trkpt lat="59.66210929211229" lon="16.51900900527835">
<ele>86.26035</ele>
<time>2012-08-02T08:26:23Z</time>
</trkpt>
<trkpt lat="59.6623125532642" lon="16.51888838969171">
<ele>87.481895</ele>
<time>2012-08-02T08:26:28Z</time>
</trkpt>
<trkpt lat="59.662499595433474" lon="16.519066002219915">
<ele>88.988655</ele>
<time>2012-08-02T08:26:34Z</time>
</trkpt>
<trkpt lat="59.66264036949724" lon="16.519321147352457">
<ele>89.87884</ele>
<time>2012-08-02T08:26:38Z</time>
</trkpt>
<trkpt lat="59.66283868532628" lon="16.519514434039593">
<ele>90.86322</ele>
<time>2012-08-02T08:26:42Z</time>
</trkpt>
<trkpt lat="59.6629962651059" lon="16.519788270816207">
<ele>91.8114</ele>
<time>2012-08-02T08:26:46Z</time>
</trkpt>
<trkpt lat="59.66312107164413" lon="16.520147351548076">
<ele>92.68251</ele>
<time>2012-08-02T08:26:50Z</time>
</trkpt>
<trkpt lat="59.6633125981316" lon="16.52038984000683">
<ele>93.42572</ele>
<time>2012-08-02T08:26:54Z</time>
</trkpt>
<trkpt lat="59.66349884402007" lon="16.52058103121817">
<ele>94.249916</ele>
<time>2012-08-02T08:26:57Z</time>
</trkpt>
<trkpt lat="59.66363358311355" lon="16.52084296569228">
<ele>95.08512</ele>
<time>2012-08-02T08:27:00Z</time>
</trkpt>
<trkpt lat="59.663789947517216" lon="16.521115209907293">
<ele>95.599976</ele>
<time>2012-08-02T08:27:03Z</time>
</trkpt>
<trkpt lat="59.66397497802973" lon="16.52134755626321">
<ele>95.88438</ele>
<time>2012-08-02T08:27:06Z</time>
</trkpt>
<trkpt lat="59.66414601076394" lon="16.521501280367374">
<ele>96.72153</ele>
<time>2012-08-02T08:27:09Z</time>
</trkpt>
<trkpt lat="59.664350152015686" lon="16.52174485847354">
<ele>97.54158</ele>
<time>2012-08-02T08:27:13Z</time>
</trkpt>
<trkpt lat="59.66452613007277" lon="16.521894726902246">
<ele>97.98004</ele>
<time>2012-08-02T08:27:16Z</time>
</trkpt>
<trkpt lat="59.66475399211049" lon="16.52172583155334">
<ele>98.66712</ele>
<time>2012-08-02T08:27:20Z</time>
</trkpt>
<trkpt lat="59.66493093408644" lon="16.521529611200094">
<ele>98.87363</ele>
<time>2012-08-02T08:27:23Z</time>
</trkpt>
<trkpt lat="59.66509597375989" lon="16.52130564674735">
<ele>98.87603</ele>
<time>2012-08-02T08:27:27Z</time>
</trkpt>
<trkpt lat="59.665261851623654" lon="16.521490551531315">
<ele>99.086555</ele>
<time>2012-08-02T08:27:31Z</time>
</trkpt>
<trkpt lat="59.6653563156724" lon="16.52180453762412">
<ele>98.29769</ele>
<time>2012-08-02T08:27:35Z</time>
</trkpt>
<trkpt lat="59.66552525293082" lon="16.52211575768888">
<ele>97.9024</ele>
<time>2012-08-02T08:27:39Z</time>
</trkpt>
<trkpt lat="59.665699638426304" lon="16.522389007732272">
<ele>97.57133</ele>
<time>2012-08-02T08:27:42Z</time>
</trkpt>
<trkpt lat="59.66592791955918" lon="16.52245690114796">
<ele>97.77217</ele>
<time>2012-08-02T08:27:46Z</time>
</trkpt>
<trkpt lat="59.6661489084363" lon="16.522571397945285">
<ele>98.24823</ele>
<time>2012-08-02T08:27:50Z</time>
</trkpt>
<trkpt lat="59.666340560652316" lon="16.522735431790352">
<ele>98.46605</ele>
<time>2012-08-02T08:27:54Z</time>
</trkpt>
<trkpt lat="59.666525507345796" lon="16.52273685671389">
<ele>99.09817</ele>
<time>2012-08-02T08:27:57Z</time>
</trkpt>
<trkpt lat="59.66672428417951" lon="16.522594280540943">
<ele>99.49903</ele>
<time>2012-08-02T08:28:01Z</time>
</trkpt>
<trkpt lat="59.666952984407544" lon="16.52264499105513">
<ele>99.6036</ele>
<time>2012-08-02T08:28:05Z</time>
</trkpt>
<trkpt lat="59.66713537462056" lon="16.52257072739303">
<ele>99.58121</ele>
<time>2012-08-02T08:28:08Z</time>
</trkpt>
<trkpt lat="59.667332894168794" lon="16.522306445986032">
<ele>99.525696</ele>
<time>2012-08-02T08:28:12Z</time>
</trkpt>
<trkpt lat="59.66753162909299" lon="16.522107543423772">
<ele>99.60579</ele>
<time>2012-08-02T08:28:16Z</time>
</trkpt>
<trkpt lat="59.667722401209176" lon="16.5222408156842">
<ele>99.89987</ele>
<time>2012-08-02T08:28:20Z</time>
</trkpt>
<trkpt lat="59.66790688689798" lon="16.522427732124925">
<ele>99.89998</ele>
<time>2012-08-02T08:28:24Z</time>
</trkpt>
<trkpt lat="59.66798659879714" lon="16.52281212620437">
<ele>99.41357</ele>
<time>2012-08-02T08:28:29Z</time>
</trkpt>
<trkpt lat="59.667929392308" lon="16.523234490305185">
<ele>97.362885</ele>
<time>2012-08-02T08:28:33Z</time>
</trkpt>
<trkpt lat="59.66778824105859" lon="16.52357772924006">
<ele>95.47967</ele>
<time>2012-08-02T08:28:37Z</time>
</trkpt>
<trkpt lat="59.66756360605359" lon="16.523529700934887">
<ele>93.19618</ele>
<time>2012-08-02T08:28:43Z</time>
</trkpt>
<trkpt lat="59.66736633796245" lon="16.52367261238396">
<ele>92.91402</ele>
<time>2012-08-02T08:28:47Z</time>
</trkpt>
<trkpt lat="59.667175356298685" lon="16.523896157741547">
<ele>92.159035</ele>
<time>2012-08-02T08:28:50Z</time>
</trkpt>
<trkpt lat="59.66698508709669" lon="16.524222046136856">
<ele>91.060844</ele>
<time>2012-08-02T08:28:53Z</time>
</trkpt>
<trkpt lat="59.6668611606583" lon="16.524686235934496">
<ele>90.08659</ele>
<time>2012-08-02T08:28:56Z</time>
</trkpt>
<trkpt lat="59.666889240033925" lon="16.52510860003531">
<ele>88.79747</ele>
<time>2012-08-02T08:28:59Z</time>
</trkpt>
<trkpt lat="59.66700989753008" lon="16.525411941111088">
<ele>87.8867</ele>
<time>2012-08-02T08:29:03Z</time>
</trkpt>
<trkpt lat="59.66696199495345" lon="16.525784684345126">
<ele>87.60678</ele>
<time>2012-08-02T08:29:09Z</time>
</trkpt>
<trkpt lat="59.66685495804995" lon="16.526167150586843">
<ele>87.31909</ele>
<time>2012-08-02T08:29:14Z</time>
</trkpt>
<trkpt lat="59.66673987451941" lon="16.526552634313703">
<ele>86.53846</ele>
<time>2012-08-02T08:29:18Z</time>
</trkpt>
<trkpt lat="59.66660915873945" lon="16.52680618688464">
<ele>86.08965</ele>
<time>2012-08-02T08:29:21Z</time>
</trkpt>
<trkpt lat="59.66645447071642" lon="16.52700743637979">
<ele>86.0597</ele>
<time>2012-08-02T08:29:24Z</time>
</trkpt>
<trkpt lat="59.66635870747268" lon="16.527380850166082">
<ele>85.637634</ele>
<time>2012-08-02T08:29:28Z</time>
</trkpt>
<trkpt lat="59.66638875659555" lon="16.52778678573668">
<ele>84.86347</ele>
<time>2012-08-02T08:29:32Z</time>
</trkpt>
<trkpt lat="59.666338758543134" lon="16.52820940129459">
<ele>84.1611</ele>
<time>2012-08-02T08:29:36Z</time>
</trkpt>
<trkpt lat="59.66617996338755" lon="16.52839564718306">
<ele>84.449554</ele>
<time>2012-08-02T08:29:41Z</time>
</trkpt>
<trkpt lat="59.66596953570843" lon="16.52837410569191">
<ele>84.92261</ele>
<time>2012-08-02T08:29:46Z</time>
</trkpt>
<trkpt lat="59.66578706167638" lon="16.52823965996504">
<ele>84.976715</ele>
<time>2012-08-02T08:29:49Z</time>
</trkpt>
<trkpt lat="59.66559675056487" lon="16.528123654425144">
<ele>85.29799</ele>
<time>2012-08-02T08:29:52Z</time>
</trkpt>
<trkpt lat="59.66542194597423" lon="16.528026424348354">
<ele>85.49133</ele>
<time>2012-08-02T08:29:55Z</time>
</trkpt>
<trkpt lat="59.66525099705905" lon="16.5279084071517">
<ele>85.54321</ele>
<time>2012-08-02T08:29:58Z</time>
</trkpt>
<trkpt lat="59.6650523878634" lon="16.527776895090938">
<ele>85.22448</ele>
<time>2012-08-02T08:30:01Z</time>
</trkpt>
<trkpt lat="59.66487938538194" lon="16.527660973370075">
<ele>85.45096</ele>
<time>2012-08-02T08:30:04Z</time>
</trkpt>
<trkpt lat="59.6646734001115" lon="16.527482690289617">
<ele>86.24934</ele>
<time>2012-08-02T08:30:08Z</time>
</trkpt>
<trkpt lat="59.66447533573955" lon="16.52730105444789">
<ele>86.608185</ele>
<time>2012-08-02T08:30:12Z</time>
</trkpt>
<trkpt lat="59.66424508485943" lon="16.52729761786759">
<ele>87.32064</ele>
<time>2012-08-02T08:30:15Z</time>
</trkpt>
<trkpt lat="59.66402770020068" lon="16.527286134660244">
<ele>87.56183</ele>
<time>2012-08-02T08:30:18Z</time>
</trkpt>
<trkpt lat="59.66384086757898" lon="16.52728102169931">
<ele>87.70421</ele>
<time>2012-08-02T08:30:21Z</time>
</trkpt>
<trkpt lat="59.66363442130387" lon="16.52730843052268">
<ele>86.91897</ele>
<time>2012-08-02T08:30:24Z</time>
</trkpt>
<trkpt lat="59.663437865674496" lon="16.52732938528061">
<ele>86.181435</ele>
<time>2012-08-02T08:30:27Z</time>
</trkpt>
<trkpt lat="59.663241100497544" lon="16.527498364448547">
<ele>85.32186</ele>
<time>2012-08-02T08:30:30Z</time>
</trkpt>
<trkpt lat="59.663059590384364" lon="16.527711683884263">
<ele>84.42797</ele>
<time>2012-08-02T08:30:33Z</time>
</trkpt>
<trkpt lat="59.66291194316" lon="16.527948807924986">
<ele>84.04617</ele>
<time>2012-08-02T08:30:36Z</time>
</trkpt>
<trkpt lat="59.66276609804481" lon="16.528234966099262">
<ele>83.364784</ele>
<time>2012-08-02T08:30:39Z</time>
</trkpt>
<trkpt lat="59.66260286048055" lon="16.5284937992692">
<ele>82.54921</ele>
<time>2012-08-02T08:30:42Z</time>
</trkpt>
<trkpt lat="59.66243266593665" lon="16.528781047090888">
<ele>81.56608</ele>
<time>2012-08-02T08:30:45Z</time>
</trkpt>
<trkpt lat="59.66226351913065" lon="16.529053123667836">
<ele>80.56695</ele>
<time>2012-08-02T08:30:48Z</time>
</trkpt>
<trkpt lat="59.66210736427456" lon="16.529320338740945">
<ele>79.53137</ele>
<time>2012-08-02T08:30:51Z</time>
</trkpt>
<trkpt lat="59.66195661574602" lon="16.529597276821733">
<ele>78.40699</ele>
<time>2012-08-02T08:30:54Z</time>
</trkpt>
<trkpt lat="59.661815548315644" lon="16.529858456924558">
<ele>77.709206</ele>
<time>2012-08-02T08:30:57Z</time>
</trkpt>
<trkpt lat="59.661673391237855" lon="16.530171185731888">
<ele>77.43357</ele>
<time>2012-08-02T08:31:00Z</time>
</trkpt>
<trkpt lat="59.661510991863906" lon="16.53042926453054">
<ele>77.40321</ele>
<time>2012-08-02T08:31:03Z</time>
</trkpt>
<trkpt lat="59.66135655529797" lon="16.53072296641767">
<ele>77.55447</ele>
<time>2012-08-02T08:31:06Z</time>
</trkpt>
<trkpt lat="59.66121301520616" lon="16.531052459031343">
<ele>77.81517</ele>
<time>2012-08-02T08:31:09Z</time>
</trkpt>
<trkpt lat="59.66107731219381" lon="16.531380861997604">
<ele>78.12672</ele>
<time>2012-08-02T08:31:12Z</time>
</trkpt>
<trkpt lat="59.66092706657946" lon="16.53172661550343">
<ele>77.98939</ele>
<time>2012-08-02T08:31:15Z</time>
</trkpt>
<trkpt lat="59.66076801996678" lon="16.53208133764565">
<ele>77.07832</ele>
<time>2012-08-02T08:31:18Z</time>
</trkpt>
<trkpt lat="59.660623390227556" lon="16.532409070059657">
<ele>76.88616</ele>
<time>2012-08-02T08:31:21Z</time>
</trkpt>
<trkpt lat="59.660429852083325" lon="16.532630771398544">
<ele>76.38791</ele>
<time>2012-08-02T08:31:24Z</time>
</trkpt>
<trkpt lat="59.66029318515211" lon="16.532897483557463">
<ele>75.40115</ele>
<time>2012-08-02T08:31:27Z</time>
</trkpt>
<trkpt lat="59.66026954818517" lon="16.533351950347424">
<ele>74.03798</ele>
<time>2012-08-02T08:31:30Z</time>
</trkpt>
<trkpt lat="59.66029188595712" lon="16.533819241449237">
<ele>72.9379</ele>
<time>2012-08-02T08:31:33Z</time>
</trkpt>
<trkpt lat="59.660308943130076" lon="16.534272115677595">
<ele>71.93942</ele>
<time>2012-08-02T08:31:36Z</time>
</trkpt>
<trkpt lat="59.660317744128406" lon="16.53469800017774">
<ele>71.338524</ele>
<time>2012-08-02T08:31:39Z</time>
</trkpt>
<trkpt lat="59.660333334468305" lon="16.535147773101926">
<ele>70.78813</ele>
<time>2012-08-02T08:31:42Z</time>
</trkpt>
<trkpt lat="59.66034636832774" lon="16.535588325932622">
<ele>70.21999</ele>
<time>2012-08-02T08:31:45Z</time>
</trkpt>
<trkpt lat="59.660357013344765" lon="16.53600155375898">
<ele>69.71001</ele>
<time>2012-08-02T08:31:48Z</time>
</trkpt>
<trkpt lat="59.660361455753446" lon="16.536408914253116">
<ele>69.50891</ele>
<time>2012-08-02T08:31:51Z</time>
</trkpt>
<trkpt lat="59.66038052458316" lon="16.536796325817704">
<ele>69.71</ele>
<time>2012-08-02T08:31:54Z</time>
</trkpt>
<trkpt lat="59.66039125341922" lon="16.53715582564473">
<ele>70.25266</ele>
<time>2012-08-02T08:31:57Z</time>
</trkpt>
<trkpt lat="59.66046296060085" lon="16.53749286197126">
<ele>71.00659</ele>
<time>2012-08-02T08:32:00Z</time>
</trkpt>
<trkpt lat="59.66058248654008" lon="16.537773236632347">
<ele>71.679344</ele>
<time>2012-08-02T08:32:03Z</time>
</trkpt>
<trkpt lat="59.66066198889166" lon="16.538186129182577">
<ele>72.462685</ele>
<time>2012-08-02T08:32:08Z</time>
</trkpt>
<trkpt lat="59.66077883262187" lon="16.538532804697752">
<ele>73.17123</ele>
<time>2012-08-02T08:32:13Z</time>
</trkpt>
<trkpt lat="59.660787088796496" lon="16.53893580660224">
<ele>74.41291</ele>
<time>2012-08-02T08:32:19Z</time>
</trkpt>
<trkpt lat="59.66093393974006" lon="16.539187682792544">
<ele>75.79612</ele>
<time>2012-08-02T08:32:24Z</time>
</trkpt>
<trkpt lat="59.66113124974072" lon="16.539366552606225">
<ele>77.93258</ele>
<time>2012-08-02T08:32:30Z</time>
</trkpt>
<trkpt lat="59.661314520053566" lon="16.53954709880054">
<ele>80.37171</ele>
<time>2012-08-02T08:32:35Z</time>
</trkpt>
<trkpt lat="59.66138551477343" lon="16.539882626384497">
<ele>81.97072</ele>
<time>2012-08-02T08:32:40Z</time>
</trkpt>
<trkpt lat="59.66131560970098" lon="16.540289986878633">
<ele>82.814026</ele>
<time>2012-08-02T08:32:46Z</time>
</trkpt>
<trkpt lat="59.661323027685285" lon="16.540701370686293">
<ele>83.22935</ele>
<time>2012-08-02T08:32:49Z</time>
</trkpt>
<trkpt lat="59.66130236629397" lon="16.541120382025838">
<ele>83.37176</ele>
<time>2012-08-02T08:32:52Z</time>
</trkpt>
<trkpt lat="59.661114611662924" lon="16.541244015097618">
<ele>84.046524</ele>
<time>2012-08-02T08:32:58Z</time>
</trkpt>
<trkpt lat="59.66091537382454" lon="16.54137745499611">
<ele>84.59675</ele>
<time>2012-08-02T08:33:02Z</time>
</trkpt>
<trkpt lat="59.660728415474296" lon="16.541549619287252">
<ele>84.88144</ele>
<time>2012-08-02T08:33:05Z</time>
</trkpt>
<trkpt lat="59.66049175243825" lon="16.541764196008444">
<ele>84.778114</ele>
<time>2012-08-02T08:33:08Z</time>
</trkpt>
<trkpt lat="59.660285180434585" lon="16.542001571506262">
<ele>83.978264</ele>
<time>2012-08-02T08:33:11Z</time>
</trkpt>
<trkpt lat="59.66024209745228" lon="16.54246953316033">
<ele>82.14743</ele>
<time>2012-08-02T08:33:15Z</time>
</trkpt>
<trkpt lat="59.66030869167298" lon="16.54281268827617">
<ele>81.16417</ele>
<time>2012-08-02T08:33:17Z</time>
</trkpt>
<trkpt lat="59.66030634474009" lon="16.543204123154283">
<ele>79.9927</ele>
<time>2012-08-02T08:33:20Z</time>
</trkpt>
<trkpt lat="59.660217580385506" lon="16.5435728430748">
<ele>79.04223</ele>
<time>2012-08-02T08:33:23Z</time>
</trkpt>
<trkpt lat="59.66009533032775" lon="16.543903928250074">
<ele>78.78969</ele>
<time>2012-08-02T08:33:26Z</time>
</trkpt>
<trkpt lat="59.65990531258285" lon="16.54406687244773">
<ele>79.11441</ele>
<time>2012-08-02T08:33:29Z</time>
</trkpt>
<trkpt lat="59.659814410842955" lon="16.544445902109146">
<ele>78.29202</ele>
<time>2012-08-02T08:33:32Z</time>
</trkpt>
<trkpt lat="59.6598206134513" lon="16.544884610921144">
<ele>76.96539</ele>
<time>2012-08-02T08:33:35Z</time>
</trkpt>
<trkpt lat="59.65984341222793" lon="16.545256515964866">
<ele>76.38228</ele>
<time>2012-08-02T08:33:38Z</time>
</trkpt>
<trkpt lat="59.65977841056883" lon="16.54566077515483">
<ele>76.00261</ele>
<time>2012-08-02T08:33:42Z</time>
</trkpt>
<trkpt lat="59.659586255438626" lon="16.545830257236958">
<ele>75.41956</ele>
<time>2012-08-02T08:33:46Z</time>
</trkpt>
<trkpt lat="59.65939791407436" lon="16.5458332747221">
<ele>74.64889</ele>
<time>2012-08-02T08:33:49Z</time>
</trkpt>
<trkpt lat="59.659219002351165" lon="16.546063609421253">
<ele>74.02367</ele>
<time>2012-08-02T08:33:53Z</time>
</trkpt>
<trkpt lat="59.65904444921762" lon="16.546288831159472">
<ele>74.22859</ele>
<time>2012-08-02T08:33:57Z</time>
</trkpt>
<trkpt lat="59.65892743784934" lon="16.54669426381588">
<ele>74.17817</ele>
<time>2012-08-02T08:34:01Z</time>
</trkpt>
<trkpt lat="59.658895544707775" lon="16.54717949219048">
<ele>73.96267</ele>
<time>2012-08-02T08:34:04Z</time>
</trkpt>
<trkpt lat="59.658955642953515" lon="16.54762658290565">
<ele>73.66706</ele>
<time>2012-08-02T08:34:07Z</time>
</trkpt>
<trkpt lat="59.65900220442563" lon="16.54803352430463">
<ele>73.97826</ele>
<time>2012-08-02T08:34:11Z</time>
</trkpt>
<trkpt lat="59.65888096019626" lon="16.5483630169183">
<ele>74.76538</ele>
<time>2012-08-02T08:34:15Z</time>
</trkpt>
<trkpt lat="59.658700288273394" lon="16.548673985525966">
<ele>75.385925</ele>
<time>2012-08-02T08:34:19Z</time>
</trkpt>
<trkpt lat="59.65868427883834" lon="16.54905242845416">
<ele>75.92063</ele>
<time>2012-08-02T08:34:22Z</time>
</trkpt>
<trkpt lat="59.65879202820361" lon="16.549395667389035">
<ele>76.579025</ele>
<time>2012-08-02T08:34:25Z</time>
</trkpt>
<trkpt lat="59.65885677840561" lon="16.54978584498167">
<ele>77.291405</ele>
<time>2012-08-02T08:34:29Z</time>
</trkpt>
<trkpt lat="59.65881826356053" lon="16.55015188269317">
<ele>77.80175</ele>
<time>2012-08-02T08:34:34Z</time>
</trkpt>
<trkpt lat="59.65879039373249" lon="16.550611965358257">
<ele>78.328926</ele>
<time>2012-08-02T08:34:39Z</time>
</trkpt>
<trkpt lat="59.658606494776905" lon="16.55082277022302">
<ele>79.14953</ele>
<time>2012-08-02T08:34:46Z</time>
</trkpt>
<trkpt lat="59.65856395661831" lon="16.55119408853352">
<ele>79.81567</ele>
<time>2012-08-02T08:34:50Z</time>
</trkpt>
<trkpt lat="59.65867895632982" lon="16.551530957221985">
<ele>79.90349</ele>
<time>2012-08-02T08:34:53Z</time>
</trkpt>
<trkpt lat="59.65876428410411" lon="16.551959356293082">
<ele>79.87648</ele>
<time>2012-08-02T08:34:56Z</time>
</trkpt>
<trkpt lat="59.65870238374919" lon="16.552310809493065">
<ele>79.28281</ele>
<time>2012-08-02T08:35:00Z</time>
</trkpt>
<trkpt lat="59.658541828393936" lon="16.552545502781868">
<ele>78.79718</ele>
<time>2012-08-02T08:35:05Z</time>
</trkpt>
<trkpt lat="59.65844740625471" lon="16.552910450845957">
<ele>78.81662</ele>
<time>2012-08-02T08:35:10Z</time>
</trkpt>
<trkpt lat="59.65831740293652" lon="16.55323256738484">
<ele>79.24505</ele>
<time>2012-08-02T08:35:15Z</time>
</trkpt>
<trkpt lat="59.658164978027344" lon="16.553541691973805">
<ele>79.50784</ele>
<time>2012-08-02T08:35:20Z</time>
</trkpt>
<trkpt lat="59.65801762416959" lon="16.553779738023877">
<ele>79.09623</ele>
<time>2012-08-02T08:35:24Z</time>
</trkpt>
<trkpt lat="59.65794486925006" lon="16.554151559248567">
<ele>77.690704</ele>
<time>2012-08-02T08:35:29Z</time>
</trkpt>
<trkpt lat="59.658077554777265" lon="16.554453810676932">
<ele>77.142746</ele>
<time>2012-08-02T08:35:33Z</time>
</trkpt>
<trkpt lat="59.65819221921265" lon="16.554797468706965">
<ele>77.53461</ele>
<time>2012-08-02T08:35:37Z</time>
</trkpt>
<trkpt lat="59.65825043153018" lon="16.555208768695593">
<ele>78.704704</ele>
<time>2012-08-02T08:35:41Z</time>
</trkpt>
<trkpt lat="59.65835604351014" lon="16.555588636547327">
<ele>79.317505</ele>
<time>2012-08-02T08:35:45Z</time>
</trkpt>
<trkpt lat="59.658403736539185" lon="16.55594302341342">
<ele>79.97507</ele>
<time>2012-08-02T08:35:49Z</time>
</trkpt>
<trkpt lat="59.65847418643534" lon="16.556305373087525">
<ele>79.87181</ele>
<time>2012-08-02T08:35:54Z</time>
</trkpt>
<trkpt lat="59.65865041594952" lon="16.55644241720438">
<ele>77.72582</ele>
<time>2012-08-02T08:35:59Z</time>
</trkpt>
<trkpt lat="59.65884244535118" lon="16.556576192378998">
<ele>77.385925</ele>
<time>2012-08-02T08:36:04Z</time>
</trkpt>
<trkpt lat="59.659040132537484" lon="16.556738633662462">
<ele>77.43347</ele>
<time>2012-08-02T08:36:09Z</time>
</trkpt>
<trkpt lat="59.65921208728105" lon="16.556922951713204">
<ele>77.402275</ele>
<time>2012-08-02T08:36:14Z</time>
</trkpt>
<trkpt lat="59.65938131790608" lon="16.55711087398231">
<ele>78.57257</ele>
<time>2012-08-02T08:36:22Z</time>
</trkpt>
<trkpt lat="59.65954720788472" lon="16.557252636310388">
<ele>81.09992</ele>
<time>2012-08-02T08:37:04Z</time>
</trkpt>
<trkpt lat="59.65970983693256" lon="16.557514168093753">
<ele>84.474174</ele>
<time>2012-08-02T08:37:08Z</time>
</trkpt>
<trkpt lat="59.65983527319541" lon="16.557800586828368">
<ele>85.97316</ele>
<time>2012-08-02T08:37:13Z</time>
</trkpt>
<trkpt lat="59.66000579395276" lon="16.558041347302915">
<ele>88.01825</ele>
<time>2012-08-02T08:37:21Z</time>
</trkpt>
<trkpt lat="59.660186349479616" lon="16.55814497065352">
<ele>89.17656</ele>
<time>2012-08-02T08:37:29Z</time>
</trkpt>
<trkpt lat="59.660341244606656" lon="16.558355611317175">
<ele>90.120476</ele>
<time>2012-08-02T08:37:36Z</time>
</trkpt>
<trkpt lat="59.66051813741261" lon="16.55857371176972">
<ele>91.34497</ele>
<time>2012-08-02T08:37:42Z</time>
</trkpt>
<trkpt lat="59.660709815020184" lon="16.558676998832713">
<ele>91.58528</ele>
<time>2012-08-02T08:37:49Z</time>
</trkpt>
<trkpt lat="59.66085865771124" lon="16.55891832826755">
<ele>90.71095</ele>
<time>2012-08-02T08:37:59Z</time>
</trkpt>
<trkpt lat="59.660996061539535" lon="16.559161579268693">
<ele>89.18545</ele>
<time>2012-08-02T08:38:09Z</time>
</trkpt>
<trkpt lat="59.66115733193562" lon="16.55948816790712">
<ele>88.59988</ele>
<time>2012-08-02T08:38:44Z</time>
</trkpt>
<trkpt lat="59.66133296352223" lon="16.559684931136402">
<ele>89.16772</ele>
<time>2012-08-02T08:38:48Z</time>
</trkpt>
<trkpt lat="59.661487496818374" lon="16.559892587911335">
<ele>90.02336</ele>
<time>2012-08-02T08:38:54Z</time>
</trkpt>
<trkpt lat="59.661608385008805" lon="16.560192946899996">
<ele>90.1012</ele>
<time>2012-08-02T08:39:02Z</time>
</trkpt>
<trkpt lat="59.66173592467098" lon="16.560486741050244">
<ele>89.29582</ele>
<time>2012-08-02T08:39:11Z</time>
</trkpt>
<trkpt lat="59.661882244220685" lon="16.560707817899303">
<ele>89.20202</ele>
<time>2012-08-02T08:39:20Z</time>
</trkpt>
<trkpt lat="59.661962021753745" lon="16.561060034370385">
<ele>88.74588</ele>
<time>2012-08-02T08:39:28Z</time>
</trkpt>
<trkpt lat="59.6620741942672" lon="16.561351751305818">
<ele>88.17905</ele>
<time>2012-08-02T08:39:37Z</time>
</trkpt>
<trkpt lat="59.66222390928229" lon="16.56156814075705">
<ele>89.557175</ele>
<time>2012-08-02T08:39:44Z</time>
</trkpt>
<trkpt lat="59.66237528181752" lon="16.561791879400882">
<ele>90.07589</ele>
<time>2012-08-02T08:39:52Z</time>
</trkpt>
<trkpt lat="59.662483881213525" lon="16.562075815902222">
<ele>89.29538</ele>
<time>2012-08-02T08:40:05Z</time>
</trkpt>
<trkpt lat="59.66254206672557" lon="16.562428516757294">
<ele>88.19318</ele>
<time>2012-08-02T08:40:11Z</time>
</trkpt>
<trkpt lat="59.662614716304226" lon="16.562798809196135">
<ele>87.25028</ele>
<time>2012-08-02T08:40:19Z</time>
</trkpt>
<trkpt lat="59.662737057210634" lon="16.56314427978296">
<ele>85.17485</ele>
<time>2012-08-02T08:45:07Z</time>
</trkpt>
<trkpt lat="59.66283897869289" lon="16.56348933465779">
<ele>80.75907</ele>
<time>2012-08-02T08:45:13Z</time>
</trkpt>
<trkpt lat="59.66293419711292" lon="16.56385101377964">
<ele>78.88539</ele>
<time>2012-08-02T08:45:19Z</time>
</trkpt>
<trkpt lat="59.66303293593228" lon="16.56419056467712">
<ele>78.35866</ele>
<time>2012-08-02T08:45:23Z</time>
</trkpt>
<trkpt lat="59.6631223289296" lon="16.56452684663236">
<ele>78.045135</ele>
<time>2012-08-02T08:45:27Z</time>
</trkpt>
<trkpt lat="59.66323934029788" lon="16.564852902665734">
<ele>77.663506</ele>
<time>2012-08-02T08:45:31Z</time>
</trkpt>
<trkpt lat="59.663396794348955" lon="16.56514534726739">
<ele>77.27477</ele>
<time>2012-08-02T08:45:35Z</time>
</trkpt>
<trkpt lat="59.663554122671485" lon="16.565418178215623">
<ele>77.35842</ele>
<time>2012-08-02T08:45:39Z</time>
</trkpt>
<trkpt lat="59.66371078044176" lon="16.565684052184224">
<ele>77.76223</ele>
<time>2012-08-02T08:45:43Z</time>
</trkpt>
<trkpt lat="59.66386588755995" lon="16.565934335812926">
<ele>78.42282</ele>
<time>2012-08-02T08:45:47Z</time>
</trkpt>
<trkpt lat="59.664036124013364" lon="16.566173639148474">
<ele>79.37206</ele>
<time>2012-08-02T08:45:51Z</time>
</trkpt>
<trkpt lat="59.66422023251653" lon="16.56640950590372">
<ele>79.74039</ele>
<time>2012-08-02T08:45:55Z</time>
</trkpt>
<trkpt lat="59.66438108123839" lon="16.56669683754444">
<ele>79.62918</ele>
<time>2012-08-02T08:45:59Z</time>
</trkpt>
<trkpt lat="59.664555760100484" lon="16.566986935213208">
<ele>78.89243</ele>
<time>2012-08-02T08:46:03Z</time>
</trkpt>
<trkpt lat="59.66473571956158" lon="16.56725716777146">
<ele>78.004234</ele>
<time>2012-08-02T08:46:07Z</time>
</trkpt>
<trkpt lat="59.664912703447044" lon="16.56754257157445">
<ele>77.3033</ele>
<time>2012-08-02T08:46:11Z</time>
</trkpt>
<trkpt lat="59.66508130542934" lon="16.567833172157407">
<ele>76.83268</ele>
<time>2012-08-02T08:46:15Z</time>
</trkpt>
<trkpt lat="59.6652207383886" lon="16.568163251504302">
<ele>76.52285</ele>
<time>2012-08-02T08:46:19Z</time>
</trkpt>
<trkpt lat="59.665364236570895" lon="16.56849006190896">
<ele>76.43889</ele>
<time>2012-08-02T08:46:23Z</time>
</trkpt>
<trkpt lat="59.665518212132156" lon="16.56881796196103">
<ele>76.72754</ele>
<time>2012-08-02T08:46:27Z</time>
</trkpt>
<trkpt lat="59.665682120248675" lon="16.56914527527988">
<ele>76.8642</ele>
<time>2012-08-02T08:46:31Z</time>
</trkpt>
<trkpt lat="59.665813758037984" lon="16.56952832825482">
<ele>76.57071</ele>
<time>2012-08-02T08:46:35Z</time>
</trkpt>
<trkpt lat="59.665886806324124" lon="16.569955805316567">
<ele>76.108315</ele>
<time>2012-08-02T08:46:39Z</time>
</trkpt>
<trkpt lat="59.66601048130542" lon="16.57032427377999">
<ele>75.840126</ele>
<time>2012-08-02T08:46:43Z</time>
</trkpt>
<trkpt lat="59.66619027312845" lon="16.570595260709524">
<ele>75.856064</ele>
<time>2012-08-02T08:46:47Z</time>
</trkpt>
<trkpt lat="59.66636507771909" lon="16.57087412662804">
<ele>75.99116</ele>
<time>2012-08-02T08:46:51Z</time>
</trkpt>
<trkpt lat="59.66654126532376" lon="16.571162967011333">
<ele>76.1808</ele>
<time>2012-08-02T08:46:55Z</time>
</trkpt>
<trkpt lat="59.66671812348068" lon="16.571464464068413">
<ele>76.5076</ele>
<time>2012-08-02T08:46:59Z</time>
</trkpt>
<trkpt lat="59.66688840184361" lon="16.57178733497858">
<ele>77.15474</ele>
<time>2012-08-02T08:47:03Z</time>
</trkpt>
<trkpt lat="59.66704518534243" lon="16.572130993008614">
<ele>77.51732</ele>
<time>2012-08-02T08:47:07Z</time>
</trkpt>
<trkpt lat="59.66717439237982" lon="16.57251044176519">
<ele>77.77893</ele>
<time>2012-08-02T08:47:11Z</time>
</trkpt>
<trkpt lat="59.667287548072636" lon="16.57278947532177">
<ele>77.937996</ele>
<time>2012-08-02T08:47:14Z</time>
</trkpt>
<trkpt lat="59.6674423199147" lon="16.573147466406226">
<ele>78.03428</ele>
<time>2012-08-02T08:47:18Z</time>
</trkpt>
<trkpt lat="59.66759457718581" lon="16.573356008157134">
<ele>78.10821</ele>
<time>2012-08-02T08:47:21Z</time>
</trkpt>
<trkpt lat="59.66778052970767" lon="16.573441922664642">
<ele>78.43315</ele>
<time>2012-08-02T08:47:24Z</time>
</trkpt>
<trkpt lat="59.667956130579114" lon="16.57356597483158">
<ele>78.8046</ele>
<time>2012-08-02T08:47:27Z</time>
</trkpt>
<trkpt lat="59.66810147278011" lon="16.573818437755108">
<ele>78.72226</ele>
<time>2012-08-02T08:47:30Z</time>
</trkpt>
<trkpt lat="59.668260561302304" lon="16.57400912605226">
<ele>78.5047</ele>
<time>2012-08-02T08:47:33Z</time>
</trkpt>
<trkpt lat="59.66843888629228" lon="16.574123706668615">
<ele>78.600426</ele>
<time>2012-08-02T08:47:36Z</time>
</trkpt>
<trkpt lat="59.66860589571297" lon="16.574318250641227">
<ele>78.8658</ele>
<time>2012-08-02T08:47:39Z</time>
</trkpt>
<trkpt lat="59.668756015598774" lon="16.574565852060914">
<ele>78.896515</ele>
<time>2012-08-02T08:47:42Z</time>
</trkpt>
<trkpt lat="59.66890865005553" lon="16.574792498722672">
<ele>78.92509</ele>
<time>2012-08-02T08:47:45Z</time>
</trkpt>
<trkpt lat="59.66907968278974" lon="16.574991904199123">
<ele>78.61839</ele>
<time>2012-08-02T08:47:48Z</time>
</trkpt>
<trkpt lat="59.66925825923681" lon="16.575151747092605">
<ele>78.123375</ele>
<time>2012-08-02T08:47:51Z</time>
</trkpt>
<trkpt lat="59.66943394392729" lon="16.57529658637941">
<ele>77.606735</ele>
<time>2012-08-02T08:47:54Z</time>
</trkpt>
<trkpt lat="59.669607994146645" lon="16.57542214728892">
<ele>77.19503</ele>
<time>2012-08-02T08:47:57Z</time>
</trkpt>
<trkpt lat="59.66983032412827" lon="16.575591042637825">
<ele>77.29804</ele>
<time>2012-08-02T08:48:01Z</time>
</trkpt>
<trkpt lat="59.670001356862485" lon="16.575720626860857">
<ele>77.43354</ele>
<time>2012-08-02T08:48:04Z</time>
</trkpt>
<trkpt lat="59.67019707430154" lon="16.575977951288223">
<ele>77.753586</ele>
<time>2012-08-02T08:48:08Z</time>
</trkpt>
<trkpt lat="59.670315803959966" lon="16.576244244351983">
<ele>77.8773</ele>
<time>2012-08-02T08:48:11Z</time>
</trkpt>
<trkpt lat="59.67046500183642" lon="16.57656954601407">
<ele>78.16079</ele>
<time>2012-08-02T08:48:15Z</time>
</trkpt>
<trkpt lat="59.67062119860202" lon="16.576906582340598">
<ele>78.575096</ele>
<time>2012-08-02T08:48:19Z</time>
</trkpt>
<trkpt lat="59.67078016139567" lon="16.577212437987328">
<ele>79.31399</ele>
<time>2012-08-02T08:48:23Z</time>
</trkpt>
<trkpt lat="59.67095131985843" lon="16.577513851225376">
<ele>79.6306</ele>
<time>2012-08-02T08:48:27Z</time>
</trkpt>
<trkpt lat="59.67112008947879" lon="16.577838733792305">
<ele>79.70265</ele>
<time>2012-08-02T08:48:31Z</time>
</trkpt>
<trkpt lat="59.67127356212586" lon="16.57803688198328">
<ele>79.8355</ele>
<time>2012-08-02T08:48:34Z</time>
</trkpt>
<trkpt lat="59.67142728623003" lon="16.578240897506475">
<ele>80.09311</ele>
<time>2012-08-02T08:48:37Z</time>
</trkpt>
<trkpt lat="59.67162170447409" lon="16.578502161428332">
<ele>80.6861</ele>
<time>2012-08-02T08:48:41Z</time>
</trkpt>
<trkpt lat="59.671773626469076" lon="16.57869167625904">
<ele>81.25664</ele>
<time>2012-08-02T08:48:44Z</time>
</trkpt>
<trkpt lat="59.67198229394853" lon="16.578678684309125">
<ele>82.383156</ele>
<time>2012-08-02T08:48:48Z</time>
</trkpt>
<trkpt lat="59.672140502370894" lon="16.578411385416985">
<ele>81.846016</ele>
<time>2012-08-02T08:48:51Z</time>
</trkpt>
<trkpt lat="59.67229343019426" lon="16.578172836452723">
<ele>80.77097</ele>
<time>2012-08-02T08:48:54Z</time>
</trkpt>
<trkpt lat="59.6724388981238" lon="16.5779132489115">
<ele>80.07838</ele>
<time>2012-08-02T08:48:57Z</time>
</trkpt>
<trkpt lat="59.67259631026536" lon="16.5777319483459">
<ele>79.53463</ele>
<time>2012-08-02T08:49:00Z</time>
</trkpt>
<trkpt lat="59.67280426528305" lon="16.577926576137543">
<ele>79.03792</ele>
<time>2012-08-02T08:49:04Z</time>
</trkpt>
<trkpt lat="59.67294809874147" lon="16.578184571117163">
<ele>79.10662</ele>
<time>2012-08-02T08:49:07Z</time>
</trkpt>
<trkpt lat="59.673101236112416" lon="16.578426053747535">
<ele>78.89341</ele>
<time>2012-08-02T08:49:10Z</time>
</trkpt>
<trkpt lat="59.673250894993544" lon="16.578669548034668">
<ele>78.626915</ele>
<time>2012-08-02T08:49:13Z</time>
</trkpt>
<trkpt lat="59.67339426744729" lon="16.578916981816292">
<ele>78.644165</ele>
<time>2012-08-02T08:49:16Z</time>
</trkpt>
<trkpt lat="59.67353311367333" lon="16.57915192656219">
<ele>79.45457</ele>
<time>2012-08-02T08:49:19Z</time>
</trkpt>
<trkpt lat="59.673723969608545" lon="16.579435234889388">
<ele>81.000084</ele>
<time>2012-08-02T08:49:23Z</time>
</trkpt>
<trkpt lat="59.67388289049268" lon="16.579663809388876">
<ele>81.95785</ele>
<time>2012-08-02T08:49:26Z</time>
</trkpt>
<trkpt lat="59.67403451912105" lon="16.57986195757985">
<ele>82.94003</ele>
<time>2012-08-02T08:49:29Z</time>
</trkpt>
<trkpt lat="59.674185519106686" lon="16.5802548173815">
<ele>84.19587</ele>
<time>2012-08-02T08:49:33Z</time>
</trkpt>
<trkpt lat="59.67432239558548" lon="16.580576598644257">
<ele>85.00138</ele>
<time>2012-08-02T08:49:36Z</time>
</trkpt>
<trkpt lat="59.67449690680951" lon="16.580828726291656">
<ele>84.8881</ele>
<time>2012-08-02T08:49:39Z</time>
</trkpt>
<trkpt lat="59.67467942275107" lon="16.581051517277956">
<ele>83.44498</ele>
<time>2012-08-02T08:49:42Z</time>
</trkpt>
<trkpt lat="59.674825267866254" lon="16.581348152831197">
<ele>81.751785</ele>
<time>2012-08-02T08:49:45Z</time>
</trkpt>
<trkpt lat="59.674911056645215" lon="16.581691559404135">
<ele>80.08123</ele>
<time>2012-08-02T08:49:48Z</time>
</trkpt>
<trkpt lat="59.674978950060904" lon="16.582111660391092">
<ele>77.9171</ele>
<time>2012-08-02T08:49:52Z</time>
</trkpt>
<trkpt lat="59.675005436874926" lon="16.582463029772043">
<ele>72.74288</ele>
<time>2012-08-02T08:50:07Z</time>
</trkpt>
<trkpt lat="59.67504143714905" lon="16.58289578743279">
<ele>72.24738</ele>
<time>2012-08-02T08:50:12Z</time>
</trkpt>
<trkpt lat="59.675103798508644" lon="16.583330305293202">
<ele>71.86499</ele>
<time>2012-08-02T08:50:16Z</time>
</trkpt>
<trkpt lat="59.6751752961427" lon="16.583666251972318">
<ele>71.769615</ele>
<time>2012-08-02T08:50:19Z</time>
</trkpt>
<trkpt lat="59.675245746038854" lon="16.584027176722884">
<ele>71.69655</ele>
<time>2012-08-02T08:50:22Z</time>
</trkpt>
<trkpt lat="59.675308065488935" lon="16.584404949098825">
<ele>71.742294</ele>
<time>2012-08-02T08:50:25Z</time>
</trkpt>
<trkpt lat="59.675371306948364" lon="16.584787582978606">
<ele>71.93502</ele>
<time>2012-08-02T08:50:28Z</time>
</trkpt>
<trkpt lat="59.67543111182749" lon="16.585175413638353">
<ele>72.01633</ele>
<time>2012-08-02T08:50:31Z</time>
</trkpt>
<trkpt lat="59.67549183871597" lon="16.58556466922164">
<ele>72.1772</ele>
<time>2012-08-02T08:50:34Z</time>
</trkpt>
<trkpt lat="59.67555575072765" lon="16.585959373041987">
<ele>72.407555</ele>
<time>2012-08-02T08:50:37Z</time>
</trkpt>
<trkpt lat="59.6756198303774" lon="16.586361955851316">
<ele>72.56257</ele>
<time>2012-08-02T08:50:40Z</time>
</trkpt>
<trkpt lat="59.67568600550294" lon="16.5867617726326">
<ele>72.79358</ele>
<time>2012-08-02T08:50:43Z</time>
</trkpt>
<trkpt lat="59.67575104907155" lon="16.587154380977154">
<ele>73.19105</ele>
<time>2012-08-02T08:50:46Z</time>
</trkpt>
<trkpt lat="59.675791366025805" lon="16.58754799515009">
<ele>73.90873</ele>
<time>2012-08-02T08:50:49Z</time>
</trkpt>
<trkpt lat="59.675777913071215" lon="16.587940771132708">
<ele>74.819305</ele>
<time>2012-08-02T08:50:52Z</time>
</trkpt>
<trkpt lat="59.67573051340878" lon="16.588338995352387">
<ele>76.70689</ele>
<time>2012-08-02T08:50:56Z</time>
</trkpt>
<trkpt lat="59.67565838713199" lon="16.588734537363052">
<ele>78.76898</ele>
<time>2012-08-02T08:51:00Z</time>
</trkpt>
<trkpt lat="59.675589320249856" lon="16.589067298918962">
<ele>79.56347</ele>
<time>2012-08-02T08:51:03Z</time>
</trkpt>
<trkpt lat="59.67549012042582" lon="16.58948991447687">
<ele>80.40564</ele>
<time>2012-08-02T08:51:07Z</time>
</trkpt>
<trkpt lat="59.67533534858376" lon="16.589690409600735">
<ele>81.88147</ele>
<time>2012-08-02T08:51:11Z</time>
</trkpt>
<trkpt lat="59.67519361060113" lon="16.590013029053807">
<ele>83.33555</ele>
<time>2012-08-02T08:51:15Z</time>
</trkpt>
<trkpt lat="59.67509009409696" lon="16.5903811622411">
<ele>83.71359</ele>
<time>2012-08-02T08:51:19Z</time>
</trkpt>
<trkpt lat="59.67492710798979" lon="16.59058484248817">
<ele>83.604294</ele>
<time>2012-08-02T08:51:23Z</time>
</trkpt>
<trkpt lat="59.67473981436342" lon="16.59066396765411">
<ele>83.74985</ele>
<time>2012-08-02T08:51:28Z</time>
</trkpt>
<trkpt lat="59.67455809470266" lon="16.590744350105524">
<ele>84.07905</ele>
<time>2012-08-02T08:51:32Z</time>
</trkpt>
<trkpt lat="59.6743747824803" lon="16.590816099196672">
<ele>84.08243</ele>
<time>2012-08-02T08:51:36Z</time>
</trkpt>
<trkpt lat="59.67417583800852" lon="16.590797156095505">
<ele>84.987625</ele>
<time>2012-08-02T08:51:41Z</time>
</trkpt>
<trkpt lat="59.67399374116212" lon="16.590844681486487">
<ele>85.660934</ele>
<time>2012-08-02T08:51:45Z</time>
</trkpt>
<trkpt lat="59.67379911337048" lon="16.590780895203352">
<ele>86.23321</ele>
<time>2012-08-02T08:51:50Z</time>
</trkpt>
<trkpt lat="59.67357095796615" lon="16.5908526442945">
<ele>86.26246</ele>
<time>2012-08-02T08:51:54Z</time>
</trkpt>
<trkpt lat="59.67337226495147" lon="16.59095565788448">
<ele>86.79006</ele>
<time>2012-08-02T08:51:58Z</time>
</trkpt>
<trkpt lat="59.67320194467902" lon="16.59107099287212">
<ele>87.71326</ele>
<time>2012-08-02T08:52:02Z</time>
</trkpt>
<trkpt lat="59.67301083728671" lon="16.591247096657753">
<ele>89.01955</ele>
<time>2012-08-02T08:52:07Z</time>
</trkpt>
<trkpt lat="59.67292538378388" lon="16.59163341857493">
<ele>90.62628</ele>
<time>2012-08-02T08:52:15Z</time>
</trkpt>
<trkpt lat="59.67298816423863" lon="16.592017896473408">
<ele>90.93524</ele>
<time>2012-08-02T08:52:20Z</time>
</trkpt>
<trkpt lat="59.67309838626534" lon="16.59241142682731">
<ele>91.352165</ele>
<time>2012-08-02T08:52:24Z</time>
</trkpt>
<trkpt lat="59.67320621944964" lon="16.592791210860014">
<ele>91.271194</ele>
<time>2012-08-02T08:52:28Z</time>
</trkpt>
<trkpt lat="59.67318476177752" lon="16.593167977407575">
<ele>90.79596</ele>
<time>2012-08-02T08:52:32Z</time>
</trkpt>
<trkpt lat="59.6731027867645" lon="16.593562932685018">
<ele>90.61746</ele>
<time>2012-08-02T08:52:36Z</time>
</trkpt>
<trkpt lat="59.67299801297486" lon="16.593872476369143">
<ele>90.04643</ele>
<time>2012-08-02T08:52:39Z</time>
</trkpt>
<trkpt lat="59.67287220060825" lon="16.594275562092662">
<ele>89.37272</ele>
<time>2012-08-02T08:52:42Z</time>
</trkpt>
<trkpt lat="59.672800451517105" lon="16.594666242599487">
<ele>88.67215</ele>
<time>2012-08-02T08:52:44Z</time>
</trkpt>
<trkpt lat="59.67262535355985" lon="16.594926500692964">
<ele>86.80486</ele>
<time>2012-08-02T08:52:48Z</time>
</trkpt>
<trkpt lat="59.67242607381195" lon="16.595032950863242">
<ele>84.49724</ele>
<time>2012-08-02T08:52:52Z</time>
</trkpt>
<trkpt lat="59.67224276158959" lon="16.59524350427091">
<ele>83.23801</ele>
<time>2012-08-02T08:52:57Z</time>
</trkpt>
<trkpt lat="59.67204348184168" lon="16.59536411985755">
<ele>81.93937</ele>
<time>2012-08-02T08:53:01Z</time>
</trkpt>
<trkpt lat="59.671866414137185" lon="16.595487082377076">
<ele>80.95255</ele>
<time>2012-08-02T08:53:04Z</time>
</trkpt>
<trkpt lat="59.67164982575923" lon="16.5955600887537">
<ele>79.80217</ele>
<time>2012-08-02T08:53:08Z</time>
</trkpt>
<trkpt lat="59.671471626497805" lon="16.595605686306953">
<ele>78.42685</ele>
<time>2012-08-02T08:53:12Z</time>
</trkpt>
<trkpt lat="59.67127016745508" lon="16.59573837183416">
<ele>77.465904</ele>
<time>2012-08-02T08:53:16Z</time>
</trkpt>
<trkpt lat="59.67108974698931" lon="16.59586636349559">
<ele>76.682495</ele>
<time>2012-08-02T08:53:19Z</time>
</trkpt>
<trkpt lat="59.67089763376862" lon="16.595966359600425">
<ele>75.79572</ele>
<time>2012-08-02T08:53:22Z</time>
</trkpt>
<trkpt lat="59.670704011805356" lon="16.596110025420785">
<ele>75.49507</ele>
<time>2012-08-02T08:53:25Z</time>
</trkpt>
<trkpt lat="59.67051022220403" lon="16.596276070922613">
<ele>75.14011</ele>
<time>2012-08-02T08:53:28Z</time>
</trkpt>
<trkpt lat="59.67031031381339" lon="16.59642635844648">
<ele>74.60018</ele>
<time>2012-08-02T08:53:32Z</time>
</trkpt>
<trkpt lat="59.670134922489524" lon="16.596537167206407">
<ele>74.27428</ele>
<time>2012-08-02T08:53:36Z</time>
</trkpt>
<trkpt lat="59.669966362416744" lon="16.596718467772007">
<ele>73.93093</ele>
<time>2012-08-02T08:53:40Z</time>
</trkpt>
<trkpt lat="59.66979440767318" lon="16.596845788881183">
<ele>73.27072</ele>
<time>2012-08-02T08:53:44Z</time>
</trkpt>
<trkpt lat="59.66958494391292" lon="16.596979899331927">
<ele>72.429016</ele>
<time>2012-08-02T08:53:48Z</time>
</trkpt>
<trkpt lat="59.669363368302584" lon="16.5971349645406">
<ele>72.00878</ele>
<time>2012-08-02T08:53:52Z</time>
</trkpt>
<trkpt lat="59.669188940897584" lon="16.597281312569976">
<ele>71.541214</ele>
<time>2012-08-02T08:53:55Z</time>
</trkpt>
<trkpt lat="59.66898379381746" lon="16.597463535144925">
<ele>71.249756</ele>
<time>2012-08-02T08:53:59Z</time>
</trkpt>
<trkpt lat="59.668783927336335" lon="16.597680039703846">
<ele>70.494255</ele>
<time>2012-08-02T08:54:03Z</time>
</trkpt>
<trkpt lat="59.66860245913267" lon="16.597788333892822">
<ele>70.071625</ele>
<time>2012-08-02T08:54:07Z</time>
</trkpt>
<trkpt lat="59.66841378249228" lon="16.597950188443065">
<ele>70.053925</ele>
<time>2012-08-02T08:54:11Z</time>
</trkpt>
<trkpt lat="59.66821475420147" lon="16.59812537021935">
<ele>70.25807</ele>
<time>2012-08-02T08:54:15Z</time>
</trkpt>
<trkpt lat="59.66803366318345" lon="16.598307006061077">
<ele>70.60392</ele>
<time>2012-08-02T08:54:19Z</time>
</trkpt>
<trkpt lat="59.6678456151858" lon="16.59844648092985">
<ele>70.896935</ele>
<time>2012-08-02T08:54:23Z</time>
</trkpt>
<trkpt lat="59.66765781864524" lon="16.598485121503472">
<ele>71.31192</ele>
<time>2012-08-02T08:54:27Z</time>
</trkpt>
<trkpt lat="59.66746193356812" lon="16.598500460386276">
<ele>71.81679</ele>
<time>2012-08-02T08:54:32Z</time>
</trkpt>
<trkpt lat="59.667274011299014" lon="16.598541866987944">
<ele>72.64363</ele>
<time>2012-08-02T08:54:37Z</time>
</trkpt>
<trkpt lat="59.66707950923592" lon="16.59844891168177">
<ele>73.434875</ele>
<time>2012-08-02T08:54:42Z</time>
</trkpt>
<trkpt lat="59.66689971741289" lon="16.598518565297127">
<ele>73.58603</ele>
<time>2012-08-02T08:54:46Z</time>
</trkpt>
<trkpt lat="59.666722691617906" lon="16.598598193377256">
<ele>73.54167</ele>
<time>2012-08-02T08:54:50Z</time>
</trkpt>
<trkpt lat="59.66653849929571" lon="16.59872978925705">
<ele>73.49834</ele>
<time>2012-08-02T08:54:54Z</time>
</trkpt>
<trkpt lat="59.66638314072043" lon="16.598929865285754">
<ele>73.424866</ele>
<time>2012-08-02T08:54:58Z</time>
</trkpt>
<trkpt lat="59.666192033328116" lon="16.5992003493011">
<ele>73.38248</ele>
<time>2012-08-02T08:55:02Z</time>
</trkpt>
<trkpt lat="59.666038854047656" lon="16.599404951557517">
<ele>73.21605</ele>
<time>2012-08-02T08:55:05Z</time>
</trkpt>
<trkpt lat="59.66588584240526" lon="16.599653223529458">
<ele>72.75521</ele>
<time>2012-08-02T08:55:08Z</time>
</trkpt>
<trkpt lat="59.66572071891278" lon="16.59988598898053">
<ele>72.434235</ele>
<time>2012-08-02T08:55:11Z</time>
</trkpt>
<trkpt lat="59.66553912498057" lon="16.59988976083696">
<ele>71.72802</ele>
<time>2012-08-02T08:55:15Z</time>
</trkpt>
<trkpt lat="59.665351496078074" lon="16.59977057017386">
<ele>71.937775</ele>
<time>2012-08-02T08:55:19Z</time>
</trkpt>
<trkpt lat="59.66515171341598" lon="16.599745927378535">
<ele>72.961555</ele>
<time>2012-08-02T08:55:23Z</time>
</trkpt>
<trkpt lat="59.66495322994888" lon="16.59963042475283">
<ele>74.105804</ele>
<time>2012-08-02T08:55:27Z</time>
</trkpt>
<trkpt lat="59.664742005988955" lon="16.599489860236645">
<ele>75.37393</ele>
<time>2012-08-02T08:55:32Z</time>
</trkpt>
<trkpt lat="59.664528225548565" lon="16.599346613511443">
<ele>76.34909</ele>
<time>2012-08-02T08:55:37Z</time>
</trkpt>
<trkpt lat="59.66432144399732" lon="16.599203199148178">
<ele>76.8921</ele>
<time>2012-08-02T08:55:41Z</time>
</trkpt>
<trkpt lat="59.66414211317897" lon="16.599108651280403">
<ele>77.91039</ele>
<time>2012-08-02T08:55:45Z</time>
</trkpt>
<trkpt lat="59.66396282427013" lon="16.599041344597936">
<ele>78.752655</ele>
<time>2012-08-02T08:55:50Z</time>
</trkpt>
<trkpt lat="59.66379606630653" lon="16.598793156445026">
<ele>79.46828</ele>
<time>2012-08-02T08:55:56Z</time>
</trkpt>
<trkpt lat="59.66364003717899" lon="16.59853046759963">
<ele>80.30012</ele>
<time>2012-08-02T08:56:02Z</time>
</trkpt>
<trkpt lat="59.663466699421406" lon="16.59867354668677">
<ele>79.25511</ele>
<time>2012-08-02T08:56:06Z</time>
</trkpt>
<trkpt lat="59.66334667056799" lon="16.59902097657323">
<ele>78.012024</ele>
<time>2012-08-02T08:56:12Z</time>
</trkpt>
<trkpt lat="59.663235736079514" lon="16.599370669573545">
<ele>78.47504</ele>
<time>2012-08-02T08:56:18Z</time>
</trkpt>
<trkpt lat="59.6632182598114" lon="16.599752632901073">
<ele>78.07923</ele>
<time>2012-08-02T08:56:23Z</time>
</trkpt>
<trkpt lat="59.663256774656475" lon="16.600128896534443">
<ele>77.67931</ele>
<time>2012-08-02T08:56:34Z</time>
</trkpt>
<trkpt lat="59.66319118626416" lon="16.60051764920354">
<ele>77.31178</ele>
<time>2012-08-02T08:56:39Z</time>
</trkpt>
<trkpt lat="59.66307321097702" lon="16.600862396880984">
<ele>76.86036</ele>
<time>2012-08-02T08:56:43Z</time>
</trkpt>
<trkpt lat="59.662961647845805" lon="16.60119197331369">
<ele>76.698395</ele>
<time>2012-08-02T08:56:47Z</time>
</trkpt>
<trkpt lat="59.662865214049816" lon="16.601515347138047">
<ele>76.807304</ele>
<time>2012-08-02T08:56:51Z</time>
</trkpt>
<trkpt lat="59.662854904308915" lon="16.60189228132367">
<ele>77.20855</ele>
<time>2012-08-02T08:56:55Z</time>
</trkpt>
<trkpt lat="59.662724188528955" lon="16.602222360670567">
<ele>78.18789</ele>
<time>2012-08-02T08:57:01Z</time>
</trkpt>
<trkpt lat="59.66256237588823" lon="16.602587224915624">
<ele>78.90008</ele>
<time>2012-08-02T08:57:05Z</time>
</trkpt>
<trkpt lat="59.662459907121956" lon="16.60291344858706">
<ele>78.91722</ele>
<time>2012-08-02T08:57:08Z</time>
</trkpt>
<trkpt lat="59.66231699567288" lon="16.603196673095226">
<ele>78.824455</ele>
<time>2012-08-02T08:57:11Z</time>
</trkpt>
<trkpt lat="59.6621167100966" lon="16.60337772220373">
<ele>78.80773</ele>
<time>2012-08-02T08:57:15Z</time>
</trkpt>
<trkpt lat="59.66191927436739" lon="16.60356388427317">
<ele>78.86182</ele>
<time>2012-08-02T08:57:19Z</time>
</trkpt>
<trkpt lat="59.661761526949704" lon="16.603756500408053">
<ele>79.13389</ele>
<time>2012-08-02T08:57:22Z</time>
</trkpt>
<trkpt lat="59.661576664075255" lon="16.60400066524744">
<ele>79.26619</ele>
<time>2012-08-02T08:57:26Z</time>
</trkpt>
<trkpt lat="59.661438153125346" lon="16.604244075715542">
<ele>79.12636</ele>
<time>2012-08-02T08:57:29Z</time>
</trkpt>
<trkpt lat="59.661269509233534" lon="16.604564767330885">
<ele>79.5224</ele>
<time>2012-08-02T08:57:33Z</time>
</trkpt>
<trkpt lat="59.661138877272606" lon="16.60490901209414">
<ele>79.626625</ele>
<time>2012-08-02T08:57:37Z</time>
</trkpt>
<trkpt lat="59.66097957920283" lon="16.605177903547883">
<ele>79.42992</ele>
<time>2012-08-02T08:57:41Z</time>
</trkpt>
<trkpt lat="59.66081873048097" lon="16.60549247637391">
<ele>79.737976</ele>
<time>2012-08-02T08:57:45Z</time>
</trkpt>
<trkpt lat="59.66067150235176" lon="16.60580570809543">
<ele>79.88663</ele>
<time>2012-08-02T08:57:49Z</time>
</trkpt>
<trkpt lat="59.66051132418215" lon="16.606153892353177">
<ele>80.46178</ele>
<time>2012-08-02T08:57:53Z</time>
</trkpt>
<trkpt lat="59.660388487391174" lon="16.60642269998789">
<ele>80.690125</ele>
<time>2012-08-02T08:57:56Z</time>
</trkpt>
<trkpt lat="59.660229231230915" lon="16.606757808476686">
<ele>81.14493</ele>
<time>2012-08-02T08:58:00Z</time>
</trkpt>
<trkpt lat="59.66009985655546" lon="16.607032399624586">
<ele>81.88301</ele>
<time>2012-08-02T08:58:03Z</time>
</trkpt>
<trkpt lat="59.6599683444947" lon="16.607302967458963">
<ele>82.22096</ele>
<time>2012-08-02T08:58:06Z</time>
</trkpt>
<trkpt lat="59.65983796399087" lon="16.607548305764794">
<ele>82.433846</ele>
<time>2012-08-02T08:58:09Z</time>
</trkpt>
<trkpt lat="59.65972736477852" lon="16.60790428519249">
<ele>82.3924</ele>
<time>2012-08-02T08:58:12Z</time>
</trkpt>
<trkpt lat="59.659538813866675" lon="16.607919204980135">
<ele>81.44665</ele>
<time>2012-08-02T08:58:19Z</time>
</trkpt>
<trkpt lat="59.6593269193545" lon="16.607895148918033">
<ele>81.074524</ele>
<time>2012-08-02T08:58:23Z</time>
</trkpt>
<trkpt lat="59.65911980252713" lon="16.608015932142735">
<ele>80.73218</ele>
<time>2012-08-02T08:58:27Z</time>
</trkpt>
<trkpt lat="59.65889286249876" lon="16.60807041451335">
<ele>79.663704</ele>
<time>2012-08-02T08:58:31Z</time>
</trkpt>
<trkpt lat="59.65869282837957" lon="16.60822439007461">
<ele>79.34562</ele>
<time>2012-08-02T08:58:34Z</time>
</trkpt>
<trkpt lat="59.65850972570479" lon="16.608360847458243">
<ele>79.2755</ele>
<time>2012-08-02T08:58:37Z</time>
</trkpt>
<trkpt lat="59.658267865888774" lon="16.608368810266256">
<ele>79.69968</ele>
<time>2012-08-02T08:58:41Z</time>
</trkpt>
<trkpt lat="59.65803916566074" lon="16.608382556587458">
<ele>79.69326</ele>
<time>2012-08-02T08:58:45Z</time>
</trkpt>
<trkpt lat="59.65781888924539" lon="16.608305191621184">
<ele>79.52599</ele>
<time>2012-08-02T08:58:49Z</time>
</trkpt>
<trkpt lat="59.65761981904507" lon="16.608215756714344">
<ele>79.21409</ele>
<time>2012-08-02T08:58:52Z</time>
</trkpt>
<trkpt lat="59.65742338914424" lon="16.60810654051602">
<ele>78.81845</ele>
<time>2012-08-02T08:58:55Z</time>
</trkpt>
<trkpt lat="59.65720307081938" lon="16.608011489734054">
<ele>78.73279</ele>
<time>2012-08-02T08:58:59Z</time>
</trkpt>
<trkpt lat="59.656995283439755" lon="16.607914343476295">
<ele>78.04943</ele>
<time>2012-08-02T08:59:03Z</time>
</trkpt>
<trkpt lat="59.656889252364635" lon="16.607576049864292">
<ele>77.61658</ele>
<time>2012-08-02T08:59:11Z</time>
</trkpt>
<trkpt lat="59.65667677111924" lon="16.607455601915717">
<ele>77.65823</ele>
<time>2012-08-02T08:59:16Z</time>
</trkpt>
<trkpt lat="59.6564964344725" lon="16.607382260262966">
<ele>77.413734</ele>
<time>2012-08-02T08:59:20Z</time>
</trkpt>
<trkpt lat="59.65629095211625" lon="16.6073131095618">
<ele>76.95083</ele>
<time>2012-08-02T08:59:24Z</time>
</trkpt>
<trkpt lat="59.656103532761335" lon="16.607239432632923">
<ele>77.31335</ele>
<time>2012-08-02T08:59:28Z</time>
</trkpt>
<trkpt lat="59.65590064879507" lon="16.60718251951039">
<ele>76.678055</ele>
<time>2012-08-02T08:59:32Z</time>
</trkpt>
<trkpt lat="59.65570111759007" lon="16.607111357152462">
<ele>76.3165</ele>
<time>2012-08-02T08:59:36Z</time>
</trkpt>
<trkpt lat="59.655468980781734" lon="16.60700960084796">
<ele>76.59819</ele>
<time>2012-08-02T08:59:40Z</time>
</trkpt>
<trkpt lat="59.655268946662545" lon="16.606938941404223">
<ele>76.72892</ele>
<time>2012-08-02T08:59:43Z</time>
</trkpt>
<trkpt lat="59.6550682419911" lon="16.606882447376847">
<ele>76.99033</ele>
<time>2012-08-02T08:59:46Z</time>
</trkpt>
<trkpt lat="59.65485936496407" lon="16.606839196756482">
<ele>77.38186</ele>
<time>2012-08-02T08:59:49Z</time>
</trkpt>
<trkpt lat="59.6546366577968" lon="16.60681899636984">
<ele>77.157974</ele>
<time>2012-08-02T08:59:52Z</time>
</trkpt>
<trkpt lat="59.65440255124122" lon="16.60683768801391">
<ele>76.19164</ele>
<time>2012-08-02T08:59:55Z</time>
</trkpt>
<trkpt lat="59.654173851013184" lon="16.60688018426299">
<ele>75.33241</ele>
<time>2012-08-02T08:59:58Z</time>
</trkpt>
<trkpt lat="59.65393370948732" lon="16.606946904212236">
<ele>74.46837</ele>
<time>2012-08-02T09:00:01Z</time>
</trkpt>
<trkpt lat="59.653693065047264" lon="16.607082607224584">
<ele>73.427284</ele>
<time>2012-08-02T09:00:04Z</time>
</trkpt>
<trkpt lat="59.65345258824527" lon="16.607255525887012">
<ele>72.13026</ele>
<time>2012-08-02T09:00:07Z</time>
</trkpt>
<trkpt lat="59.65322288218886" lon="16.60747764632106">
<ele>70.25807</ele>
<time>2012-08-02T09:00:10Z</time>
</trkpt>
<trkpt lat="59.65301392134279" lon="16.60773036070168">
<ele>68.38699</ele>
<time>2012-08-02T09:00:13Z</time>
</trkpt>
<trkpt lat="59.652817994356155" lon="16.607999838888645">
<ele>66.952324</ele>
<time>2012-08-02T09:00:16Z</time>
</trkpt>
<trkpt lat="59.65263543650508" lon="16.608296558260918">
<ele>65.92363</ele>
<time>2012-08-02T09:00:19Z</time>
</trkpt>
<trkpt lat="59.652472282759845" lon="16.608608700335026">
<ele>65.59903</ele>
<time>2012-08-02T09:00:22Z</time>
</trkpt>
<trkpt lat="59.652280462905765" lon="16.608844567090273">
<ele>65.37459</ele>
<time>2012-08-02T09:00:25Z</time>
</trkpt>
<trkpt lat="59.652065173722804" lon="16.608973061665893">
<ele>65.13303</ele>
<time>2012-08-02T09:00:28Z</time>
</trkpt>
<trkpt lat="59.65185931418091" lon="16.609035590663552">
<ele>64.99049</ele>
<time>2012-08-02T09:00:31Z</time>
</trkpt>
<trkpt lat="59.65165932197124" lon="16.60903165116906">
<ele>65.38661</ele>
<time>2012-08-02T09:00:34Z</time>
</trkpt>
<trkpt lat="59.65144206304103" lon="16.608977587893605">
<ele>65.97249</ele>
<time>2012-08-02T09:00:37Z</time>
</trkpt>
<trkpt lat="59.651233605109155" lon="16.608949843794107">
<ele>66.144646</ele>
<time>2012-08-02T09:00:40Z</time>
</trkpt>
<trkpt lat="59.651026907376945" lon="16.608887817710638">
<ele>65.93446</ele>
<time>2012-08-02T09:00:43Z</time>
</trkpt>
<trkpt lat="59.650837308727205" lon="16.608802154660225">
<ele>65.983284</ele>
<time>2012-08-02T09:00:46Z</time>
</trkpt>
<trkpt lat="59.650654876604676" lon="16.608738619834185">
<ele>66.19139</ele>
<time>2012-08-02T09:00:49Z</time>
</trkpt>
<trkpt lat="59.6504749590531" lon="16.608702074736357">
<ele>66.35574</ele>
<time>2012-08-02T09:00:52Z</time>
</trkpt>
<trkpt lat="59.65029898099601" lon="16.608626889064908">
<ele>66.50789</ele>
<time>2012-08-02T09:00:55Z</time>
</trkpt>
<trkpt lat="59.65006923303008" lon="16.60854726098478">
<ele>66.99039</ele>
<time>2012-08-02T09:00:59Z</time>
</trkpt>
<trkpt lat="59.64984455611557" lon="16.60848925821483">
<ele>67.717255</ele>
<time>2012-08-02T09:01:03Z</time>
</trkpt>
<trkpt lat="59.64961510151625" lon="16.608477607369423">
<ele>67.97888</ele>
<time>2012-08-02T09:01:07Z</time>
</trkpt>
<trkpt lat="59.64938987977803" lon="16.608478613197803">
<ele>68.13394</ele>
<time>2012-08-02T09:01:11Z</time>
</trkpt>
<trkpt lat="59.64916729833931" lon="16.60846763290465">
<ele>68.21504</ele>
<time>2012-08-02T09:01:15Z</time>
</trkpt>
<trkpt lat="59.64894966222346" lon="16.608506441116333">
<ele>68.56921</ele>
<time>2012-08-02T09:01:19Z</time>
</trkpt>
<trkpt lat="59.64872967917472" lon="16.60854147747159">
<ele>69.27814</ele>
<time>2012-08-02T09:01:23Z</time>
</trkpt>
<trkpt lat="59.64851330034435" lon="16.608609119430184">
<ele>70.28176</ele>
<time>2012-08-02T09:01:27Z</time>
</trkpt>
<trkpt lat="59.648303585126996" lon="16.608665948733687">
<ele>71.14813</ele>
<time>2012-08-02T09:01:31Z</time>
</trkpt>
<trkpt lat="59.64807643555105" lon="16.608720682561398">
<ele>71.91523</ele>
<time>2012-08-02T09:01:35Z</time>
</trkpt>
<trkpt lat="59.647858128882945" lon="16.60878824070096">
<ele>72.6224</ele>
<time>2012-08-02T09:01:39Z</time>
</trkpt>
<trkpt lat="59.64767858851701" lon="16.608824701979756">
<ele>73.432076</ele>
<time>2012-08-02T09:01:43Z</time>
</trkpt>
<trkpt lat="59.647649000398815" lon="16.609213203191757">
<ele>73.67958</ele>
<time>2012-08-02T09:01:48Z</time>
</trkpt>
<trkpt lat="59.6477774111554" lon="16.60953096114099">
<ele>74.16892</ele>
<time>2012-08-02T09:01:52Z</time>
</trkpt>
<trkpt lat="59.64792811777443" lon="16.609780993312597">
<ele>75.10579</ele>
<time>2012-08-02T09:01:56Z</time>
</trkpt>
<trkpt lat="59.648044500499964" lon="16.61011786200106">
<ele>75.64167</ele>
<time>2012-08-02T09:02:00Z</time>
</trkpt>
<trkpt lat="59.648166499100626" lon="16.610440649092197">
<ele>76.185074</ele>
<time>2012-08-02T09:02:04Z</time>
</trkpt>
<trkpt lat="59.64827969670296" lon="16.610752204433084">
<ele>76.7652</ele>
<time>2012-08-02T09:02:08Z</time>
</trkpt>
<trkpt lat="59.64839641470462" lon="16.611080523580313">
<ele>77.17416</ele>
<time>2012-08-02T09:02:12Z</time>
</trkpt>
<trkpt lat="59.64848375413567" lon="16.611426025629044">
<ele>77.66761</ele>
<time>2012-08-02T09:02:16Z</time>
</trkpt>
<trkpt lat="59.64848962146789" lon="16.61181528121233">
<ele>78.35732</ele>
<time>2012-08-02T09:02:20Z</time>
</trkpt>
<trkpt lat="59.648317750543356" lon="16.612013094127178">
<ele>79.251335</ele>
<time>2012-08-02T09:02:24Z</time>
</trkpt>
<trkpt lat="59.64813267812133" lon="16.612220043316483">
<ele>80.906075</ele>
<time>2012-08-02T09:02:28Z</time>
</trkpt>
<trkpt lat="59.64797794818878" lon="16.612541573122144">
<ele>82.986305</ele>
<time>2012-08-02T09:02:32Z</time>
</trkpt>
<trkpt lat="59.647784661501646" lon="16.612793197855353">
<ele>84.56285</ele>
<time>2012-08-02T09:02:36Z</time>
</trkpt>
<trkpt lat="59.64762184303254" lon="16.61310818977654">
<ele>85.82263</ele>
<time>2012-08-02T09:02:40Z</time>
</trkpt>
<trkpt lat="59.64743949472904" lon="16.613373309373856">
<ele>87.04505</ele>
<time>2012-08-02T09:02:44Z</time>
</trkpt>
<trkpt lat="59.647308150306344" lon="16.613755440339446">
<ele>87.31597</ele>
<time>2012-08-02T09:02:49Z</time>
</trkpt>
<trkpt lat="59.64713707566261" lon="16.61408057436347">
<ele>86.430824</ele>
<time>2012-08-02T09:02:53Z</time>
</trkpt>
<trkpt lat="59.647041144780815" lon="16.61441626958549">
<ele>85.50207</ele>
<time>2012-08-02T09:02:56Z</time>
</trkpt>
<trkpt lat="59.646921451203525" lon="16.614691615104675">
<ele>84.89149</ele>
<time>2012-08-02T09:02:59Z</time>
</trkpt>
<trkpt lat="59.64679806958884" lon="16.614972157403827">
<ele>84.43703</ele>
<time>2012-08-02T09:03:02Z</time>
</trkpt>
<trkpt lat="59.64665918145329" lon="16.61520592868328">
<ele>84.1125</ele>
<time>2012-08-02T09:03:05Z</time>
</trkpt>
<trkpt lat="59.646508055739105" lon="16.61553676240146">
<ele>83.80319</ele>
<time>2012-08-02T09:03:09Z</time>
</trkpt>
<trkpt lat="59.64640776626766" lon="16.61586659029126">
<ele>83.938515</ele>
<time>2012-08-02T09:03:13Z</time>
</trkpt>
<trkpt lat="59.64629440102726" lon="16.616216534748673">
<ele>83.68015</ele>
<time>2012-08-02T09:03:17Z</time>
</trkpt>
<trkpt lat="59.64617202524096" lon="16.616559522226453">
<ele>83.95856</ele>
<time>2012-08-02T09:03:21Z</time>
</trkpt>
<trkpt lat="59.64605555869639" lon="16.6168852429837">
<ele>84.24586</ele>
<time>2012-08-02T09:03:25Z</time>
</trkpt>
<trkpt lat="59.64586151763797" lon="16.617063945159316">
<ele>84.87154</ele>
<time>2012-08-02T09:03:29Z</time>
</trkpt>
<trkpt lat="59.64575121179223" lon="16.617409950122237">
<ele>84.82862</ele>
<time>2012-08-02T09:03:32Z</time>
</trkpt>
<trkpt lat="59.64564677327871" lon="16.617826530709863">
<ele>84.88396</ele>
<time>2012-08-02T09:03:35Z</time>
</trkpt>
<trkpt lat="59.64549208525568" lon="16.618202375248075">
<ele>84.429184</ele>
<time>2012-08-02T09:03:38Z</time>
</trkpt>
<trkpt lat="59.645367111079395" lon="16.618520971387625">
<ele>84.02951</ele>
<time>2012-08-02T09:03:41Z</time>
</trkpt>
<trkpt lat="59.645236395299435" lon="16.618806794285774">
<ele>83.751915</ele>
<time>2012-08-02T09:03:45Z</time>
</trkpt>
<trkpt lat="59.64523191098124" lon="16.61918967962265">
<ele>82.987526</ele>
<time>2012-08-02T09:03:48Z</time>
</trkpt>
<trkpt lat="59.64527444913983" lon="16.6196274664253">
<ele>82.03693</ele>
<time>2012-08-02T09:03:51Z</time>
</trkpt>
<trkpt lat="59.64524859096855" lon="16.620059721171856">
<ele>81.0152</ele>
<time>2012-08-02T09:03:55Z</time>
</trkpt>
<trkpt lat="59.64511230122298" lon="16.620348813012242">
<ele>80.50786</ele>
<time>2012-08-02T09:04:01Z</time>
</trkpt>
<trkpt lat="59.64497986715287" lon="16.620610244572163">
<ele>78.86876</ele>
<time>2012-08-02T09:04:08Z</time>
</trkpt>
<trkpt lat="59.644778785295784" lon="16.620586272329092">
<ele>76.837234</ele>
<time>2012-08-02T09:04:15Z</time>
</trkpt>
<trkpt lat="59.644597987644374" lon="16.620825408026576">
<ele>77.3186</ele>
<time>2012-08-02T09:04:20Z</time>
</trkpt>
<trkpt lat="59.64456383138895" lon="16.621176777407527">
<ele>77.413795</ele>
<time>2012-08-02T09:04:25Z</time>
</trkpt>
<trkpt lat="59.64442075230181" lon="16.621463857591152">
<ele>77.33045</ele>
<time>2012-08-02T09:04:31Z</time>
</trkpt>
<trkpt lat="59.644246199168265" lon="16.62160743959248">
<ele>77.240425</ele>
<time>2012-08-02T09:04:36Z</time>
</trkpt>
<trkpt lat="59.6440509846434" lon="16.621745489537716">
<ele>77.20871</ele>
<time>2012-08-02T09:04:41Z</time>
</trkpt>
<trkpt lat="59.64388028718531" lon="16.62197196856141">
<ele>78.08614</ele>
<time>2012-08-02T09:04:46Z</time>
</trkpt>
<trkpt lat="59.64377325028181" lon="16.622273800894618">
<ele>78.74054</ele>
<time>2012-08-02T09:04:50Z</time>
</trkpt>
<trkpt lat="59.64367266744375" lon="16.62262139841914">
<ele>79.37142</ele>
<time>2012-08-02T09:04:54Z</time>
</trkpt>
<trkpt lat="59.6435813466087" lon="16.62293689325452">
<ele>79.33795</ele>
<time>2012-08-02T09:04:57Z</time>
</trkpt>
<trkpt lat="59.64345863554627" lon="16.623333441093564">
<ele>78.982315</ele>
<time>2012-08-02T09:05:01Z</time>
</trkpt>
<trkpt lat="59.64332326781005" lon="16.623617336153984">
<ele>78.81901</ele>
<time>2012-08-02T09:05:05Z</time>
</trkpt>
<trkpt lat="59.64315156452358" lon="16.623760415241122">
<ele>78.85523</ele>
<time>2012-08-02T09:05:09Z</time>
</trkpt>
<trkpt lat="59.64296075049788" lon="16.623926293104887">
<ele>79.37333</ele>
<time>2012-08-02T09:05:13Z</time>
</trkpt>
<trkpt lat="59.64278095867485" lon="16.624041376635432">
<ele>79.23804</ele>
<time>2012-08-02T09:05:17Z</time>
</trkpt>
<trkpt lat="59.64267270639539" lon="16.624437421560287">
<ele>79.16086</ele>
<time>2012-08-02T09:05:21Z</time>
</trkpt>
<trkpt lat="59.64256420265883" lon="16.62478543817997">
<ele>79.22356</ele>
<time>2012-08-02T09:05:25Z</time>
</trkpt>
<trkpt lat="59.64245184324682" lon="16.625097831711173">
<ele>79.18127</ele>
<time>2012-08-02T09:05:29Z</time>
</trkpt>
<trkpt lat="59.64239635504782" lon="16.62553251720965">
<ele>78.974945</ele>
<time>2012-08-02T09:05:33Z</time>
</trkpt>
<trkpt lat="59.64227930177003" lon="16.625835858285427">
<ele>78.830055</ele>
<time>2012-08-02T09:05:36Z</time>
</trkpt>
<trkpt lat="59.64213375002146" lon="16.626198794692755">
<ele>78.968925</ele>
<time>2012-08-02T09:05:39Z</time>
</trkpt>
<trkpt lat="59.642027760855854" lon="16.626524766907096">
<ele>79.13252</ele>
<time>2012-08-02T09:05:41Z</time>
</trkpt>
<trkpt lat="59.64194385800511" lon="16.626887619495392">
<ele>79.2308</ele>
<time>2012-08-02T09:05:43Z</time>
</trkpt>
<trkpt lat="59.641852411441505" lon="16.627326915040612">
<ele>79.33173</ele>
<time>2012-08-02T09:05:46Z</time>
</trkpt>
<trkpt lat="59.64176867622882" lon="16.6277230437845">
<ele>79.764946</ele>
<time>2012-08-02T09:05:49Z</time>
</trkpt>
<trkpt lat="59.641768550500274" lon="16.62813895381987">
<ele>79.84928</ele>
<time>2012-08-02T09:05:52Z</time>
</trkpt>
<trkpt lat="59.641817710362375" lon="16.628576572984457">
<ele>79.68016</ele>
<time>2012-08-02T09:05:55Z</time>
</trkpt>
<trkpt lat="59.641895703971386" lon="16.628985023126006">
<ele>79.4182</ele>
<time>2012-08-02T09:05:58Z</time>
</trkpt>
<trkpt lat="59.642058815807104" lon="16.629249220713973">
<ele>78.83112</ele>
<time>2012-08-02T09:06:01Z</time>
</trkpt>
<trkpt lat="59.64219682384282" lon="16.629537558183074">
<ele>77.005325</ele>
<time>2012-08-02T09:06:04Z</time>
</trkpt>
<trkpt lat="59.642139240168035" lon="16.629916168749332">
<ele>72.76237</ele>
<time>2012-08-02T09:06:10Z</time>
</trkpt>
<trkpt lat="59.64196887798607" lon="16.630103001371026">
<ele>70.296684</ele>
<time>2012-08-02T09:06:14Z</time>
</trkpt>
<trkpt lat="59.64176322799176" lon="16.630265275016427">
<ele>68.35208</ele>
<time>2012-08-02T09:06:18Z</time>
</trkpt>
<trkpt lat="59.64156323578209" lon="16.630340041592717">
<ele>67.10632</ele>
<time>2012-08-02T09:06:22Z</time>
</trkpt>
<trkpt lat="59.64135192800313" lon="16.630450263619423">
<ele>66.19848</ele>
<time>2012-08-02T09:06:26Z</time>
</trkpt>
<trkpt lat="59.641131735406816" lon="16.6305516846478">
<ele>65.72179</ele>
<time>2012-08-02T09:06:30Z</time>
</trkpt>
<trkpt lat="59.64090240653604" lon="16.630617566406727">
<ele>65.48658</ele>
<time>2012-08-02T09:06:34Z</time>
</trkpt>
<trkpt lat="59.64070849120617" lon="16.630681939423084">
<ele>65.125595</ele>
<time>2012-08-02T09:06:37Z</time>
</trkpt>
<trkpt lat="59.64052953757346" lon="16.63080247119069">
<ele>64.84516</ele>
<time>2012-08-02T09:06:40Z</time>
</trkpt>
<trkpt lat="59.64033122174442" lon="16.630953513085842">
<ele>64.55187</ele>
<time>2012-08-02T09:06:43Z</time>
</trkpt>
<trkpt lat="59.640115848742425" lon="16.63106474094093">
<ele>63.883205</ele>
<time>2012-08-02T09:06:47Z</time>
</trkpt>
<trkpt lat="59.6399109531194" lon="16.63117722608149">
<ele>63.306988</ele>
<time>2012-08-02T09:06:50Z</time>
</trkpt>
<trkpt lat="59.63969411328435" lon="16.631283089518547">
<ele>63.081078</ele>
<time>2012-08-02T09:06:53Z</time>
</trkpt>
<trkpt lat="59.639501329511404" lon="16.631329776719213">
<ele>63.027954</ele>
<time>2012-08-02T09:06:56Z</time>
</trkpt>
<trkpt lat="59.63929257821292" lon="16.631356347352266">
<ele>62.294395</ele>
<time>2012-08-02T09:07:00Z</time>
</trkpt>
<trkpt lat="59.63910591322929" lon="16.631349809467793">
<ele>62.599785</ele>
<time>2012-08-02T09:07:04Z</time>
</trkpt>
<trkpt lat="59.63892025407404" lon="16.63134670816362">
<ele>63.453037</ele>
<time>2012-08-02T09:07:07Z</time>
</trkpt>
<trkpt lat="59.63872990105301" lon="16.63137948140502">
<ele>64.608315</ele>
<time>2012-08-02T09:07:10Z</time>
</trkpt>
<trkpt lat="59.63854537345469" lon="16.63141275756061">
<ele>65.47538</ele>
<time>2012-08-02T09:07:13Z</time>
</trkpt>
<trkpt lat="59.638301795348525" lon="16.631510825827718">
<ele>65.783615</ele>
<time>2012-08-02T09:07:17Z</time>
</trkpt>
<trkpt lat="59.63809870183468" lon="16.631623562425375">
<ele>65.42434</ele>
<time>2012-08-02T09:07:20Z</time>
</trkpt>
<trkpt lat="59.637898206710815" lon="16.63172833621502">
<ele>65.19776</ele>
<time>2012-08-02T09:07:23Z</time>
</trkpt>
<trkpt lat="59.63769419118762" lon="16.631878539919853">
<ele>65.259995</ele>
<time>2012-08-02T09:07:26Z</time>
</trkpt>
<trkpt lat="59.637500694952905" lon="16.632048524916172">
<ele>65.323746</ele>
<time>2012-08-02T09:07:29Z</time>
</trkpt>
<trkpt lat="59.63731914293021" lon="16.63217844441533">
<ele>65.48814</ele>
<time>2012-08-02T09:07:32Z</time>
</trkpt>
<trkpt lat="59.63711630087346" lon="16.632342226803303">
<ele>65.5278</ele>
<time>2012-08-02T09:07:35Z</time>
</trkpt>
<trkpt lat="59.63693231809884" lon="16.632445491850376">
<ele>65.90704</ele>
<time>2012-08-02T09:07:38Z</time>
</trkpt>
<trkpt lat="59.63673090096563" lon="16.632526544854045">
<ele>65.865486</ele>
<time>2012-08-02T09:07:41Z</time>
</trkpt>
<trkpt lat="59.636536692269146" lon="16.632596952840686">
<ele>65.89482</ele>
<time>2012-08-02T09:07:44Z</time>
</trkpt>
<trkpt lat="59.6363449562341" lon="16.632730811834335">
<ele>65.76031</ele>
<time>2012-08-02T09:07:47Z</time>
</trkpt>
<trkpt lat="59.63615979999304" lon="16.63294404745102">
<ele>65.8567</ele>
<time>2012-08-02T09:07:50Z</time>
</trkpt>
<trkpt lat="59.63594576809555" lon="16.63306860253215">
<ele>65.81599</ele>
<time>2012-08-02T09:07:54Z</time>
</trkpt>
<trkpt lat="59.63571673259139" lon="16.633043121546507">
<ele>65.60702</ele>
<time>2012-08-02T09:07:58Z</time>
</trkpt>
<trkpt lat="59.63550517335534" lon="16.63293139077723">
<ele>65.83798</ele>
<time>2012-08-02T09:08:03Z</time>
</trkpt>
<trkpt lat="59.63535987306386" lon="16.632712790742517">
<ele>70.05294</ele>
<time>2012-08-02T09:08:12Z</time>
</trkpt>
<trkpt lat="59.63515946175903" lon="16.632742965593934">
<ele>73.84346</ele>
<time>2012-08-02T09:08:20Z</time>
</trkpt>
<trkpt lat="59.63498323224485" lon="16.632991153746843">
<ele>74.08471</ele>
<time>2012-08-02T09:08:26Z</time>
</trkpt>
<trkpt lat="59.634897569194436" lon="16.63334679789841">
<ele>74.32108</ele>
<time>2012-08-02T09:08:31Z</time>
</trkpt>
<trkpt lat="59.63479966856539" lon="16.633689617738128">
<ele>74.52548</ele>
<time>2012-08-02T09:08:37Z</time>
</trkpt>
<trkpt lat="59.634736008010805" lon="16.63405858911574">
<ele>74.69354</ele>
<time>2012-08-02T09:08:42Z</time>
</trkpt>
<trkpt lat="59.634631904773414" lon="16.63435866124928">
<ele>74.76418</ele>
<time>2012-08-02T09:08:47Z</time>
</trkpt>
<trkpt lat="59.634490041062236" lon="16.634631911292672">
<ele>75.10927</ele>
<time>2012-08-02T09:08:52Z</time>
</trkpt>
<trkpt lat="59.6343538351357" lon="16.63490541279316">
<ele>76.82583</ele>
<time>2012-08-02T09:08:57Z</time>
</trkpt>
<trkpt lat="59.63425316847861" lon="16.63522493094206">
<ele>80.55946</ele>
<time>2012-08-02T09:09:04Z</time>
</trkpt>
<trkpt lat="59.63404986541718" lon="16.635374883189797">
<ele>81.71527</ele>
<time>2012-08-02T09:09:13Z</time>
</trkpt>
<trkpt lat="59.63387195952237" lon="16.635460881516337">
<ele>81.08336</ele>
<time>2012-08-02T09:09:17Z</time>
</trkpt>
<trkpt lat="59.63369241915643" lon="16.6355612128973">
<ele>80.15758</ele>
<time>2012-08-02T09:09:22Z</time>
</trkpt>
<trkpt lat="59.63364677969366" lon="16.635942421853542">
<ele>75.881546</ele>
<time>2012-08-02T09:10:03Z</time>
</trkpt>
<trkpt lat="59.63348563760519" lon="16.636205865070224">
<ele>75.49906</ele>
<time>2012-08-02T09:10:14Z</time>
</trkpt>
<trkpt lat="59.63342271754676" lon="16.63656585074177">
<ele>74.65796</ele>
<time>2012-08-02T09:10:23Z</time>
</trkpt>
<trkpt lat="59.633343030300715" lon="16.636924016162208">
<ele>74.74092</ele>
<time>2012-08-02T09:10:29Z</time>
</trkpt>
<trkpt lat="59.63320731699276" lon="16.63719655322046">
<ele>73.94904</ele>
<time>2012-08-02T09:10:34Z</time>
</trkpt>
<trkpt lat="59.63303050946942" lon="16.637386758983048">
<ele>73.15266</ele>
<time>2012-08-02T09:10:41Z</time>
</trkpt>
<trkpt lat="59.63285044871326" lon="16.63757281136744">
<ele>71.795265</ele>
<time>2012-08-02T09:10:48Z</time>
</trkpt>
<trkpt lat="59.63274160288925" lon="16.63788454451836">
<ele>72.66211</ele>
<time>2012-08-02T09:10:53Z</time>
</trkpt>
<trkpt lat="59.63257347211206" lon="16.638148276160724">
<ele>73.0231</ele>
<time>2012-08-02T09:10:57Z</time>
</trkpt>
<trkpt lat="59.63240657307322" lon="16.638384556200553">
<ele>72.94239</ele>
<time>2012-08-02T09:11:01Z</time>
</trkpt>
<trkpt lat="59.632232032850794" lon="16.63869857665229">
<ele>73.06487</ele>
<time>2012-08-02T09:11:05Z</time>
</trkpt>
<trkpt lat="59.63207874800575" lon="16.638990138406616">
<ele>73.12627</ele>
<time>2012-08-02T09:11:09Z</time>
</trkpt>
<trkpt lat="59.631941891599254" lon="16.639302361172618">
<ele>73.167244</ele>
<time>2012-08-02T09:11:12Z</time>
</trkpt>
<trkpt lat="59.63181366951948" lon="16.639590806812805">
<ele>73.64235</ele>
<time>2012-08-02T09:11:15Z</time>
</trkpt>
<trkpt lat="59.63168297807829" lon="16.639846782949885">
<ele>74.10842</ele>
<time>2012-08-02T09:11:18Z</time>
</trkpt>
<trkpt lat="59.63153983759294" lon="16.640071782015596">
<ele>74.30194</ele>
<time>2012-08-02T09:11:21Z</time>
</trkpt>
<trkpt lat="59.63133578999451" lon="16.640183426434206">
<ele>74.221245</ele>
<time>2012-08-02T09:11:25Z</time>
</trkpt>
<trkpt lat="59.631126719802275" lon="16.640218280964277">
<ele>74.103516</ele>
<time>2012-08-02T09:11:29Z</time>
</trkpt>
<trkpt lat="59.630903797913284" lon="16.640290367015588">
<ele>74.210815</ele>
<time>2012-08-02T09:11:33Z</time>
</trkpt>
<trkpt lat="59.63071460635267" lon="16.640403909917268">
<ele>74.57403</ele>
<time>2012-08-02T09:11:37Z</time>
</trkpt>
<trkpt lat="59.63052124675362" lon="16.640495284428113">
<ele>74.93969</ele>
<time>2012-08-02T09:11:41Z</time>
</trkpt>
<trkpt lat="59.630307464359745" lon="16.640603757550195">
<ele>74.74679</ele>
<time>2012-08-02T09:11:45Z</time>
</trkpt>
<trkpt lat="59.630099373959965" lon="16.64067432708528">
<ele>74.55869</ele>
<time>2012-08-02T09:11:52Z</time>
</trkpt>
<trkpt lat="59.630076068066735" lon="16.641094240814923">
<ele>73.80633</ele>
<time>2012-08-02T09:11:58Z</time>
</trkpt>
<trkpt lat="59.63012345903257" lon="16.641544332578768">
<ele>73.08485</ele>
<time>2012-08-02T09:12:02Z</time>
</trkpt>
<trkpt lat="59.63019094814936" lon="16.64192197548469">
<ele>72.52617</ele>
<time>2012-08-02T09:12:05Z</time>
</trkpt>
<trkpt lat="59.63030213690916" lon="16.642340480452894">
<ele>71.99672</ele>
<time>2012-08-02T09:12:08Z</time>
</trkpt>
<trkpt lat="59.63042713969798" lon="16.642739232843653">
<ele>72.02811</ele>
<time>2012-08-02T09:12:11Z</time>
</trkpt>
<trkpt lat="59.630538509232665" lon="16.643121822804865">
<ele>71.73044</ele>
<time>2012-08-02T09:12:14Z</time>
</trkpt>
<trkpt lat="59.63047146331519" lon="16.643521254882216">
<ele>71.62267</ele>
<time>2012-08-02T09:12:19Z</time>
</trkpt>
<trkpt lat="59.63029619771987" lon="16.643732897937298">
<ele>71.50014</ele>
<time>2012-08-02T09:12:23Z</time>
</trkpt>
<trkpt lat="59.63014968205243" lon="16.643963316455483">
<ele>70.21606</ele>
<time>2012-08-02T09:12:27Z</time>
</trkpt>
<trkpt lat="59.62996787857264" lon="16.64410723373294">
<ele>68.905205</ele>
<time>2012-08-02T09:12:30Z</time>
</trkpt>
<trkpt lat="59.629785027354956" lon="16.644331701099873">
<ele>67.80845</ele>
<time>2012-08-02T09:12:33Z</time>
</trkpt>
<trkpt lat="59.629601798951626" lon="16.64456555619836">
<ele>66.67388</ele>
<time>2012-08-02T09:12:36Z</time>
</trkpt>
<trkpt lat="59.62943189777434" lon="16.644780468195677">
<ele>65.45304</ele>
<time>2012-08-02T09:12:39Z</time>
</trkpt>
<trkpt lat="59.62924854364246" lon="16.64482891559601">
<ele>62.202526</ele>
<time>2012-08-02T09:12:44Z</time>
</trkpt>
<trkpt lat="59.62908027693629" lon="16.644585086032748">
<ele>59.885944</ele>
<time>2012-08-02T09:12:49Z</time>
</trkpt>
<trkpt lat="59.628964606672525" lon="16.64428954012692">
<ele>58.98144</ele>
<time>2012-08-02T09:12:54Z</time>
</trkpt>
<trkpt lat="59.62883443571627" lon="16.643997682258487">
<ele>58.85514</ele>
<time>2012-08-02T09:13:00Z</time>
</trkpt>
<trkpt lat="59.62865024339408" lon="16.64389626123011">
<ele>58.154205</ele>
<time>2012-08-02T09:13:05Z</time>
</trkpt>
<trkpt lat="59.62846433278173" lon="16.643945211544633">
<ele>59.087955</ele>
<time>2012-08-02T09:13:11Z</time>
</trkpt>
<trkpt lat="59.628373053856194" lon="16.64429691620171">
<ele>61.175327</ele>
<time>2012-08-02T09:13:17Z</time>
</trkpt>
<trkpt lat="59.62828114628792" lon="16.644602017477155">
<ele>63.71528</ele>
<time>2012-08-02T09:13:23Z</time>
</trkpt>
<trkpt lat="59.628097959794104" lon="16.64472296833992">
<ele>64.07549</ele>
<time>2012-08-02T09:13:28Z</time>
</trkpt>
<trkpt lat="59.62788434699178" lon="16.644731517881155">
<ele>63.772797</ele>
<time>2012-08-02T09:13:33Z</time>
</trkpt>
<trkpt lat="59.62768225930631" lon="16.644720705226064">
<ele>63.659355</ele>
<time>2012-08-02T09:13:37Z</time>
</trkpt>
<trkpt lat="59.62750108446926" lon="16.64466538466513">
<ele>63.720734</ele>
<time>2012-08-02T09:13:41Z</time>
</trkpt>
<trkpt lat="59.62727456353605" lon="16.64469170384109">
<ele>63.732353</ele>
<time>2012-08-02T09:13:45Z</time>
</trkpt>
<trkpt lat="59.62708542589098" lon="16.644776444882154">
<ele>63.25289</ele>
<time>2012-08-02T09:13:50Z</time>
</trkpt>
<trkpt lat="59.626904712058604" lon="16.644758256152272">
<ele>62.166164</ele>
<time>2012-08-02T09:13:55Z</time>
</trkpt>
<trkpt lat="59.626709120348096" lon="16.644682986661792">
<ele>61.90091</ele>
<time>2012-08-02T09:14:01Z</time>
</trkpt>
<trkpt lat="59.626518515869975" lon="16.644574524834752">
<ele>62.170986</ele>
<time>2012-08-02T09:14:07Z</time>
</trkpt>
<trkpt lat="59.626352093182504" lon="16.644342597573996">
<ele>63.681576</ele>
<time>2012-08-02T09:14:13Z</time>
</trkpt>
<trkpt lat="59.626164925284684" lon="16.64412936195731">
<ele>65.35009</ele>
<time>2012-08-02T09:14:21Z</time>
</trkpt>
<trkpt lat="59.62600793223828" lon="16.6439538449049">
<ele>64.76961</ele>
<time>2012-08-02T09:14:26Z</time>
</trkpt>
<trkpt lat="59.62582797277719" lon="16.64380389265716">
<ele>64.92475</ele>
<time>2012-08-02T09:14:30Z</time>
</trkpt>
<trkpt lat="59.625632925890386" lon="16.64363818243146">
<ele>64.891136</ele>
<time>2012-08-02T09:14:35Z</time>
</trkpt>
<trkpt lat="59.62546855676919" lon="16.643374487757683">
<ele>64.2372</ele>
<time>2012-08-02T09:14:42Z</time>
</trkpt>
<trkpt lat="59.62532028090209" lon="16.643086904659867">
<ele>65.40253</ele>
<time>2012-08-02T09:14:48Z</time>
</trkpt>
<trkpt lat="59.62512825150043" lon="16.6428348608315">
<ele>66.038216</ele>
<time>2012-08-02T09:14:54Z</time>
</trkpt>
<trkpt lat="59.624913297593594" lon="16.642652386799455">
<ele>66.23788</ele>
<time>2012-08-02T09:14:58Z</time>
</trkpt>
<trkpt lat="59.6246952842921" lon="16.64248952642083">
<ele>66.08894</ele>
<time>2012-08-02T09:15:02Z</time>
</trkpt>
<trkpt lat="59.624484814703465" lon="16.642491538077593">
<ele>65.38751</ele>
<time>2012-08-02T09:15:05Z</time>
</trkpt>
<trkpt lat="59.62430753745139" lon="16.642385590821505">
<ele>64.53003</ele>
<time>2012-08-02T09:15:09Z</time>
</trkpt>
<trkpt lat="59.62415410671383" lon="16.642081746831536">
<ele>64.95639</ele>
<time>2012-08-02T09:15:15Z</time>
</trkpt>
<trkpt lat="59.623934417031705" lon="16.64205358363688">
<ele>65.50065</ele>
<time>2012-08-02T09:15:19Z</time>
</trkpt>
<trkpt lat="59.62375265546143" lon="16.641904721036553">
<ele>64.42286</ele>
<time>2012-08-02T09:15:23Z</time>
</trkpt>
<trkpt lat="59.62358522694558" lon="16.6417417768389">
<ele>62.931843</ele>
<time>2012-08-02T09:15:27Z</time>
</trkpt>
<trkpt lat="59.623403255827725" lon="16.64152828976512">
<ele>62.179615</ele>
<time>2012-08-02T09:15:31Z</time>
</trkpt>
<trkpt lat="59.62321847677231" lon="16.641387892886996">
<ele>61.383846</ele>
<time>2012-08-02T09:15:36Z</time>
</trkpt>
<trkpt lat="59.623064333572984" lon="16.64117943495512">
<ele>61.194874</ele>
<time>2012-08-02T09:15:42Z</time>
</trkpt>
<trkpt lat="59.62295042350888" lon="16.64089512079954">
<ele>61.696053</ele>
<time>2012-08-02T09:15:47Z</time>
</trkpt>
<trkpt lat="59.62291601579636" lon="16.640520030632615">
<ele>63.540527</ele>
<time>2012-08-02T09:15:53Z</time>
</trkpt>
<trkpt lat="59.6227992977947" lon="16.640231609344482">
<ele>64.17794</ele>
<time>2012-08-02T09:15:59Z</time>
</trkpt>
<trkpt lat="59.62266953304107" lon="16.63990228027989">
<ele>66.5255</ele>
<time>2012-08-02T09:16:08Z</time>
</trkpt>
<trkpt lat="59.62256391049983" lon="16.639581166349814">
<ele>67.80469</ele>
<time>2012-08-02T09:16:14Z</time>
</trkpt>
<trkpt lat="59.62249133668133" lon="16.639189814345215">
<ele>68.99851</ele>
<time>2012-08-02T09:16:21Z</time>
</trkpt>
<trkpt lat="59.62240241467953" lon="16.63884473964572">
<ele>69.81046</ele>
<time>2012-08-02T09:16:25Z</time>
</trkpt>
<trkpt lat="59.62235405109823" lon="16.638475935906172">
<ele>71.87681</ele>
<time>2012-08-02T09:16:30Z</time>
</trkpt>
<trkpt lat="59.6222078287974" lon="16.63821442052722">
<ele>73.17024</ele>
<time>2012-08-02T09:16:36Z</time>
</trkpt>
<trkpt lat="59.62227500975132" lon="16.637817453593016">
<ele>69.93518</ele>
<time>2012-08-02T09:16:48Z</time>
</trkpt>
<trkpt lat="59.62212292011827" lon="16.637607403099537">
<ele>63.849487</ele>
<time>2012-08-02T09:16:54Z</time>
</trkpt>
<trkpt lat="59.621951803565025" lon="16.63748050108552">
<ele>61.839466</ele>
<time>2012-08-02T09:16:59Z</time>
</trkpt>
<trkpt lat="59.621748039498925" lon="16.63736315444112">
<ele>60.53647</ele>
<time>2012-08-02T09:17:05Z</time>
</trkpt>
<trkpt lat="59.62153916247189" lon="16.63719912059605">
<ele>59.683857</ele>
<time>2012-08-02T09:17:10Z</time>
</trkpt>
<trkpt lat="59.621346881613135" lon="16.637100717052817">
<ele>58.988243</ele>
<time>2012-08-02T09:17:14Z</time>
</trkpt>
<trkpt lat="59.62114173453301" lon="16.637012120336294">
<ele>58.39551</ele>
<time>2012-08-02T09:17:18Z</time>
</trkpt>
<trkpt lat="59.62091835681349" lon="16.63690835237503">
<ele>57.931</ele>
<time>2012-08-02T09:17:22Z</time>
</trkpt>
<trkpt lat="59.620698667131364" lon="16.636995943263173">
<ele>57.763077</ele>
<time>2012-08-02T09:17:25Z</time>
</trkpt>
<trkpt lat="59.62048157583922" lon="16.637098202481866">
<ele>57.38442</ele>
<time>2012-08-02T09:17:28Z</time>
</trkpt>
<trkpt lat="59.62026440072805" lon="16.637067943811417">
<ele>56.652813</ele>
<time>2012-08-02T09:17:31Z</time>
</trkpt>
<trkpt lat="59.62006600107998" lon="16.636987645179033">
<ele>55.744152</ele>
<time>2012-08-02T09:17:34Z</time>
</trkpt>
<trkpt lat="59.61986739188433" lon="16.63687415421009">
<ele>55.18738</ele>
<time>2012-08-02T09:17:37Z</time>
</trkpt>
<trkpt lat="59.61965813767165" lon="16.63678916171193">
<ele>54.957184</ele>
<time>2012-08-02T09:17:40Z</time>
</trkpt>
<trkpt lat="59.619455337524414" lon="16.63677826523781">
<ele>54.703808</ele>
<time>2012-08-02T09:17:43Z</time>
</trkpt>
<trkpt lat="59.6192618412897" lon="16.63679150864482">
<ele>54.57817</ele>
<time>2012-08-02T09:17:46Z</time>
</trkpt>
<trkpt lat="59.61908150464296" lon="16.636785389855504">
<ele>54.47829</ele>
<time>2012-08-02T09:17:49Z</time>
</trkpt>
<trkpt lat="59.61889781523496" lon="16.636790335178375">
<ele>54.27833</ele>
<time>2012-08-02T09:17:52Z</time>
</trkpt>
<trkpt lat="59.61865243501961" lon="16.636831993237138">
<ele>53.622837</ele>
<time>2012-08-02T09:17:56Z</time>
</trkpt>
<trkpt lat="59.618465350940824" lon="16.636842722073197">
<ele>52.784626</ele>
<time>2012-08-02T09:17:59Z</time>
</trkpt>
<trkpt lat="59.618267831392586" lon="16.636861162260175">
<ele>51.89351</ele>
<time>2012-08-02T09:18:02Z</time>
</trkpt>
<trkpt lat="59.61806788109243" lon="16.63693618029356">
<ele>50.764442</ele>
<time>2012-08-02T09:18:05Z</time>
</trkpt>
<trkpt lat="59.61786260828376" lon="16.636976581066847">
<ele>50.003757</ele>
<time>2012-08-02T09:18:08Z</time>
</trkpt>
<trkpt lat="59.61765959858894" lon="16.637021591886878">
<ele>49.68753</ele>
<time>2012-08-02T09:18:11Z</time>
</trkpt>
<trkpt lat="59.61747481953353" lon="16.63706375285983">
<ele>49.391617</ele>
<time>2012-08-02T09:18:14Z</time>
</trkpt>
<trkpt lat="59.61724251508713" lon="16.63703978061676">
<ele>49.09227</ele>
<time>2012-08-02T09:18:18Z</time>
</trkpt>
<trkpt lat="59.61701163556427" lon="16.637039445340633">
<ele>49.12098</ele>
<time>2012-08-02T09:18:22Z</time>
</trkpt>
<trkpt lat="59.61682119872421" lon="16.63690743036568">
<ele>49.270706</ele>
<time>2012-08-02T09:18:26Z</time>
</trkpt>
<trkpt lat="59.61665762588382" lon="16.636724285781384">
<ele>49.636436</ele>
<time>2012-08-02T09:18:30Z</time>
</trkpt>
<trkpt lat="59.616437894292176" lon="16.63657064549625">
<ele>49.77988</ele>
<time>2012-08-02T09:18:34Z</time>
</trkpt>
<trkpt lat="59.616248086094856" lon="16.636414909735322">
<ele>49.93152</ele>
<time>2012-08-02T09:18:38Z</time>
</trkpt>
<trkpt lat="59.6160645224154" lon="16.636254647746682">
<ele>49.934593</ele>
<time>2012-08-02T09:18:42Z</time>
</trkpt>
<trkpt lat="59.61587756406516" lon="16.636058930307627">
<ele>49.7252</ele>
<time>2012-08-02T09:18:47Z</time>
</trkpt>
<trkpt lat="59.61570829153061" lon="16.635900009423494">
<ele>49.039616</ele>
<time>2012-08-02T09:18:51Z</time>
</trkpt>
<trkpt lat="59.61550171952695" lon="16.635810574516654">
<ele>48.457455</ele>
<time>2012-08-02T09:18:55Z</time>
</trkpt>
<trkpt lat="59.61530432570726" lon="16.635652324184775">
<ele>48.07833</ele>
<time>2012-08-02T09:18:59Z</time>
</trkpt>
<trkpt lat="59.61515424773097" lon="16.63540145382285">
<ele>48.097046</ele>
<time>2012-08-02T09:19:03Z</time>
</trkpt>
<trkpt lat="59.61494939401746" lon="16.635259380564094">
<ele>48.29842</ele>
<time>2012-08-02T09:19:08Z</time>
</trkpt>
<trkpt lat="59.61476759053767" lon="16.635163826867938">
<ele>48.168247</ele>
<time>2012-08-02T09:19:12Z</time>
</trkpt>
<trkpt lat="59.61454572156072" lon="16.635043546557426">
<ele>47.838753</ele>
<time>2012-08-02T09:19:17Z</time>
</trkpt>
<trkpt lat="59.6143530216068" lon="16.634945645928383">
<ele>47.1318</ele>
<time>2012-08-02T09:19:21Z</time>
</trkpt>
<trkpt lat="59.61416870355606" lon="16.634787395596504">
<ele>46.09964</ele>
<time>2012-08-02T09:19:26Z</time>
</trkpt>
<trkpt lat="59.613953162916005" lon="16.6346322465688">
<ele>46.17462</ele>
<time>2012-08-02T09:19:31Z</time>
</trkpt>
<trkpt lat="59.6137583674863" lon="16.634471314027905">
<ele>45.60765</ele>
<time>2012-08-02T09:19:36Z</time>
</trkpt>
<trkpt lat="59.613571744412184" lon="16.634297221899033">
<ele>45.916428</ele>
<time>2012-08-02T09:19:42Z</time>
</trkpt>
<trkpt lat="59.61337715853006" lon="16.634298730641603">
<ele>47.000988</ele>
<time>2012-08-02T09:19:48Z</time>
</trkpt>
<trkpt lat="59.613208221271634" lon="16.634524958208203">
<ele>50.51397</ele>
<time>2012-08-02T09:19:57Z</time>
</trkpt>
<trkpt lat="59.61309544276446" lon="16.6348117031157">
<ele>53.71259</ele>
<time>2012-08-02T09:20:05Z</time>
</trkpt>
<trkpt lat="59.612933420576155" lon="16.635096352547407">
<ele>56.265694</ele>
<time>2012-08-02T09:20:13Z</time>
</trkpt>
<trkpt lat="59.61279520299286" lon="16.635384187102318">
<ele>56.441765</ele>
<time>2012-08-02T09:20:18Z</time>
</trkpt>
<trkpt lat="59.61261557880789" lon="16.63566431030631">
<ele>56.280006</ele>
<time>2012-08-02T09:20:22Z</time>
</trkpt>
<trkpt lat="59.61240351665765" lon="16.63568618707359">
<ele>56.29291</ele>
<time>2012-08-02T09:20:27Z</time>
</trkpt>
<trkpt lat="59.61218185722828" lon="16.63560278713703">
<ele>55.636986</ele>
<time>2012-08-02T09:20:32Z</time>
</trkpt>
<trkpt lat="59.611998670734465" lon="16.63579716347158">
<ele>54.8988</ele>
<time>2012-08-02T09:20:37Z</time>
</trkpt>
<trkpt lat="59.6118121733889" lon="16.635749638080597">
<ele>54.03614</ele>
<time>2012-08-02T09:20:44Z</time>
</trkpt>
<trkpt lat="59.61166121531278" lon="16.635493068024516">
<ele>54.582596</ele>
<time>2012-08-02T09:20:52Z</time>
</trkpt>
<trkpt lat="59.61149944458157" lon="16.635261895135045">
<ele>54.227512</ele>
<time>2012-08-02T09:20:59Z</time>
</trkpt>
<trkpt lat="59.6113742608577" lon="16.634978586807847">
<ele>56.804092</ele>
<time>2012-08-02T09:21:09Z</time>
</trkpt>
<trkpt lat="59.6112265298143" lon="16.63473987020552">
<ele>56.41609</ele>
<time>2012-08-02T09:21:17Z</time>
</trkpt>
<trkpt lat="59.61110339965671" lon="16.634446335956454">
<ele>57.044613</ele>
<time>2012-08-02T09:21:25Z</time>
</trkpt>
<trkpt lat="59.610999380238354" lon="16.634134026244283">
<ele>56.99332</ele>
<time>2012-08-02T09:21:31Z</time>
</trkpt>
<trkpt lat="59.61091422010213" lon="16.633804198354483">
<ele>57.43809</ele>
<time>2012-08-02T09:21:37Z</time>
</trkpt>
<trkpt lat="59.6108070993796" lon="16.633499432355165">
<ele>57.123985</ele>
<time>2012-08-02T09:21:42Z</time>
</trkpt>
<trkpt lat="59.610731159336865" lon="16.63316926918924">
<ele>57.198864</ele>
<time>2012-08-02T09:21:47Z</time>
</trkpt>
<trkpt lat="59.61064989678562" lon="16.63280826061964">
<ele>57.8095</ele>
<time>2012-08-02T09:21:52Z</time>
</trkpt>
<trkpt lat="59.61058632005006" lon="16.632393691688776">
<ele>58.692787</ele>
<time>2012-08-02T09:21:57Z</time>
</trkpt>
<trkpt lat="59.61055610328913" lon="16.631962107494473">
<ele>60.226307</ele>
<time>2012-08-02T09:22:02Z</time>
</trkpt>
<trkpt lat="59.61055195424706" lon="16.631521806120872">
<ele>61.69902</ele>
<time>2012-08-02T09:22:07Z</time>
</trkpt>
<trkpt lat="59.610562096349895" lon="16.63108049891889">
<ele>63.112957</ele>
<time>2012-08-02T09:22:12Z</time>
</trkpt>
<trkpt lat="59.61059289984405" lon="16.630696523934603">
<ele>63.922066</ele>
<time>2012-08-02T09:22:16Z</time>
</trkpt>
<trkpt lat="59.61061263922602" lon="16.6302942764014">
<ele>64.30737</ele>
<time>2012-08-02T09:22:20Z</time>
</trkpt>
<trkpt lat="59.61063166614622" lon="16.629836624488235">
<ele>64.69412</ele>
<time>2012-08-02T09:22:24Z</time>
</trkpt>
<trkpt lat="59.610624415799975" lon="16.629436556249857">
<ele>64.655334</ele>
<time>2012-08-02T09:22:27Z</time>
</trkpt>
<trkpt lat="59.610604383051395" lon="16.62901109084487">
<ele>64.185844</ele>
<time>2012-08-02T09:22:30Z</time>
</trkpt>
<trkpt lat="59.61053879465908" lon="16.628614710643888">
<ele>63.25027</ele>
<time>2012-08-02T09:22:33Z</time>
</trkpt>
<trkpt lat="59.61042861454189" lon="16.628289995715022">
<ele>61.95558</ele>
<time>2012-08-02T09:22:36Z</time>
</trkpt>
<trkpt lat="59.61030447855592" lon="16.628012973815203">
<ele>60.50782</ele>
<time>2012-08-02T09:22:39Z</time>
</trkpt>
<trkpt lat="59.610151927918196" lon="16.62770208902657">
<ele>58.48607</ele>
<time>2012-08-02T09:22:43Z</time>
</trkpt>
<trkpt lat="59.610192999243736" lon="16.627348707988858">
<ele>55.502804</ele>
<time>2012-08-02T09:22:49Z</time>
</trkpt>
<trkpt lat="59.61038004141301" lon="16.62715969607234">
<ele>50.44999</ele>
<time>2012-08-02T09:22:56Z</time>
</trkpt>
<trkpt lat="59.61051649879664" lon="16.62684788927436">
<ele>47.465828</ele>
<time>2012-08-02T09:23:03Z</time>
</trkpt>
<trkpt lat="59.61061921902001" lon="16.626531640067697">
<ele>45.78521</ele>
<time>2012-08-02T09:23:12Z</time>
</trkpt>
<trkpt lat="59.61049772333354" lon="16.62684797309339">
<ele>41.93248</ele>
<time>2012-08-02T09:30:09Z</time>
</trkpt>
<trkpt lat="59.61035917047411" lon="16.627092976123095">
<ele>41.018448</ele>
<time>2012-08-02T09:30:14Z</time>
</trkpt>
<trkpt lat="59.61019647773355" lon="16.627290956676006">
<ele>40.71335</ele>
<time>2012-08-02T09:30:19Z</time>
</trkpt>
<trkpt lat="59.61002351716161" lon="16.627511233091354">
<ele>40.853302</ele>
<time>2012-08-02T09:30:25Z</time>
</trkpt>
<trkpt lat="59.60985168814659" lon="16.627379301935434">
<ele>41.882587</ele>
<time>2012-08-02T09:30:35Z</time>
</trkpt>
<trkpt lat="59.609665903262794" lon="16.62734971381724">
<ele>42.232178</ele>
<time>2012-08-02T09:30:44Z</time>
</trkpt>
<trkpt lat="59.609570475295186" lon="16.627698820084333">
<ele>42.485767</ele>
<time>2012-08-02T09:30:49Z</time>
</trkpt>
<trkpt lat="59.609474670141935" lon="16.628050357103348">
<ele>43.481197</ele>
<time>2012-08-02T09:30:54Z</time>
</trkpt>
<trkpt lat="59.60936821997166" lon="16.62838915362954">
<ele>44.9262</ele>
<time>2012-08-02T09:30:59Z</time>
</trkpt>
<trkpt lat="59.60924819111824" lon="16.628747396171093">
<ele>46.35944</ele>
<time>2012-08-02T09:31:04Z</time>
</trkpt>
<trkpt lat="59.60912770126015" lon="16.629097340628505">
<ele>47.375923</ele>
<time>2012-08-02T09:31:09Z</time>
</trkpt>
<trkpt lat="59.60900687612593" lon="16.629460863769054">
<ele>48.07543</ele>
<time>2012-08-02T09:31:14Z</time>
</trkpt>
<trkpt lat="59.60888747591525" lon="16.629823045805097">
<ele>48.151585</ele>
<time>2012-08-02T09:31:19Z</time>
</trkpt>
<trkpt lat="59.60877603851259" lon="16.630118591710925">
<ele>48.4345</ele>
<time>2012-08-02T09:31:24Z</time>
</trkpt>
<trkpt lat="59.608659320510924" lon="16.63041740655899">
<ele>48.996853</ele>
<time>2012-08-02T09:31:28Z</time>
</trkpt>
<trkpt lat="59.60850739851594" lon="16.630652602761984">
<ele>49.286903</ele>
<time>2012-08-02T09:31:32Z</time>
</trkpt>
<trkpt lat="59.608313902281225" lon="16.630652183666825">
<ele>49.158356</ele>
<time>2012-08-02T09:31:36Z</time>
</trkpt>
<trkpt lat="59.608127446845174" lon="16.630793418735266">
<ele>48.957535</ele>
<time>2012-08-02T09:31:40Z</time>
</trkpt>
<trkpt lat="59.607947235926986" lon="16.63083901628852">
<ele>48.994373</ele>
<time>2012-08-02T09:31:44Z</time>
</trkpt>
<trkpt lat="59.607806210406125" lon="16.63051748648286">
<ele>48.955654</ele>
<time>2012-08-02T09:31:48Z</time>
</trkpt>
<trkpt lat="59.60771912243217" lon="16.63013787008822">
<ele>49.638702</ele>
<time>2012-08-02T09:31:52Z</time>
</trkpt>
<trkpt lat="59.607618413865566" lon="16.629809299483895">
<ele>50.57007</ele>
<time>2012-08-02T09:31:56Z</time>
</trkpt>
<trkpt lat="59.60756623651832" lon="16.629463378340006">
<ele>52.256546</ele>
<time>2012-08-02T09:32:00Z</time>
</trkpt>
<trkpt lat="59.60750270169228" lon="16.62912248633802">
<ele>53.73001</ele>
<time>2012-08-02T09:32:04Z</time>
</trkpt>
<trkpt lat="59.6074007358402" lon="16.628781678155065">
<ele>54.74581</ele>
<time>2012-08-02T09:32:08Z</time>
</trkpt>
<trkpt lat="59.60729583632201" lon="16.62838278338313">
<ele>56.22035</ele>
<time>2012-08-02T09:32:12Z</time>
</trkpt>
<trkpt lat="59.607185614295304" lon="16.62807483226061">
<ele>57.114826</ele>
<time>2012-08-02T09:32:15Z</time>
</trkpt>
<trkpt lat="59.60704140365124" lon="16.627769395709038">
<ele>58.156258</ele>
<time>2012-08-02T09:32:18Z</time>
</trkpt>
<trkpt lat="59.60683986078948" lon="16.62746354006231">
<ele>57.71748</ele>
<time>2012-08-02T09:32:21Z</time>
</trkpt>
<trkpt lat="59.606641796417534" lon="16.627164809033275">
<ele>57.44018</ele>
<time>2012-08-02T09:32:24Z</time>
</trkpt>
<trkpt lat="59.60649268236011" lon="16.626954255625606">
<ele>56.647602</ele>
<time>2012-08-02T09:32:26Z</time>
</trkpt>
<trkpt lat="59.6063145250082" lon="16.626651836559176">
<ele>55.477886</ele>
<time>2012-08-02T09:32:29Z</time>
</trkpt>
<trkpt lat="59.60612513590604" lon="16.626327289268374">
<ele>55.1016</ele>
<time>2012-08-02T09:32:32Z</time>
</trkpt>
<trkpt lat="59.605906452052295" lon="16.626075077801943">
<ele>54.210045</ele>
<time>2012-08-02T09:32:35Z</time>
</trkpt>
<trkpt lat="59.60568454116583" lon="16.625888161361217">
<ele>53.129234</ele>
<time>2012-08-02T09:32:38Z</time>
</trkpt>
<trkpt lat="59.60545554757118" lon="16.625735610723495">
<ele>52.46858</ele>
<time>2012-08-02T09:32:41Z</time>
</trkpt>
<trkpt lat="59.60523216985166" lon="16.62566897459328">
<ele>51.71799</ele>
<time>2012-08-02T09:32:44Z</time>
</trkpt>
<trkpt lat="59.60502576548606" lon="16.62562295794487">
<ele>51.429462</ele>
<time>2012-08-02T09:32:47Z</time>
</trkpt>
<trkpt lat="59.60482392925769" lon="16.625576354563236">
<ele>51.37962</ele>
<time>2012-08-02T09:32:50Z</time>
</trkpt>
<trkpt lat="59.60462175775319" lon="16.625542156398296">
<ele>51.23359</ele>
<time>2012-08-02T09:32:53Z</time>
</trkpt>
<trkpt lat="59.604423944838345" lon="16.62549731321633">
<ele>50.636047</ele>
<time>2012-08-02T09:32:56Z</time>
</trkpt>
<trkpt lat="59.60421783383936" lon="16.62546462379396">
<ele>49.721466</ele>
<time>2012-08-02T09:32:59Z</time>
</trkpt>
<trkpt lat="59.60401331540197" lon="16.625423301011324">
<ele>49.163742</ele>
<time>2012-08-02T09:33:02Z</time>
</trkpt>
<trkpt lat="59.60381290409714" lon="16.62536689080298">
<ele>49.065945</ele>
<time>2012-08-02T09:33:05Z</time>
</trkpt>
<trkpt lat="59.603608888573945" lon="16.625305032357574">
<ele>48.954376</ele>
<time>2012-08-02T09:33:08Z</time>
</trkpt>
<trkpt lat="59.603411788120866" lon="16.625237558037043">
<ele>49.129196</ele>
<time>2012-08-02T09:33:11Z</time>
</trkpt>
<trkpt lat="59.603227134794" lon="16.625174693763256">
<ele>49.193565</ele>
<time>2012-08-02T09:33:14Z</time>
</trkpt>
<trkpt lat="59.60303560830653" lon="16.625089617446065">
<ele>49.139458</ele>
<time>2012-08-02T09:33:17Z</time>
</trkpt>
<trkpt lat="59.602844500914216" lon="16.625011498108506">
<ele>49.510387</ele>
<time>2012-08-02T09:33:20Z</time>
</trkpt>
<trkpt lat="59.60264727473259" lon="16.62492273375392">
<ele>50.082508</ele>
<time>2012-08-02T09:33:23Z</time>
</trkpt>
<trkpt lat="59.60245662834495" lon="16.624834053218365">
<ele>50.211372</ele>
<time>2012-08-02T09:33:26Z</time>
</trkpt>
<trkpt lat="59.60227645933628" lon="16.62469013594091">
<ele>50.148552</ele>
<time>2012-08-02T09:33:29Z</time>
</trkpt>
<trkpt lat="59.602087615057826" lon="16.62452258169651">
<ele>50.225174</ele>
<time>2012-08-02T09:33:32Z</time>
</trkpt>
<trkpt lat="59.60191193036735" lon="16.624321835115552">
<ele>50.441856</ele>
<time>2012-08-02T09:33:35Z</time>
</trkpt>
<trkpt lat="59.601743328385055" lon="16.62409057840705">
<ele>50.78954</ele>
<time>2012-08-02T09:33:38Z</time>
</trkpt>
<trkpt lat="59.601585706695914" lon="16.62386384792626">
<ele>51.120586</ele>
<time>2012-08-02T09:33:41Z</time>
</trkpt>
<trkpt lat="59.60143973585218" lon="16.623656982555985">
<ele>51.068066</ele>
<time>2012-08-02T09:33:44Z</time>
</trkpt>
<trkpt lat="59.60126283578575" lon="16.62343829870224">
<ele>51.24591</ele>
<time>2012-08-02T09:33:47Z</time>
</trkpt>
<trkpt lat="59.60109737701714" lon="16.623268648982048">
<ele>51.092808</ele>
<time>2012-08-02T09:33:50Z</time>
</trkpt>
<trkpt lat="59.60092688910663" lon="16.623049546033144">
<ele>50.604633</ele>
<time>2012-08-02T09:33:56Z</time>
</trkpt>
<trkpt lat="59.60071658715606" lon="16.622930942103267">
<ele>50.61475</ele>
<time>2012-08-02T09:34:00Z</time>
</trkpt>
<trkpt lat="59.60048910230398" lon="16.622818624600768">
<ele>50.665604</ele>
<time>2012-08-02T09:34:04Z</time>
</trkpt>
<trkpt lat="59.60026492830366" lon="16.622634138911963">
<ele>50.537548</ele>
<time>2012-08-02T09:34:08Z</time>
</trkpt>
<trkpt lat="59.600084465928376" lon="16.62253632210195">
<ele>50.33146</ele>
<time>2012-08-02T09:34:11Z</time>
</trkpt>
<trkpt lat="59.59989490918815" lon="16.622434062883258">
<ele>50.147644</ele>
<time>2012-08-02T09:34:14Z</time>
</trkpt>
<trkpt lat="59.599713357165456" lon="16.622368600219488">
<ele>49.81541</ele>
<time>2012-08-02T09:34:17Z</time>
</trkpt>
<trkpt lat="59.599498067982495" lon="16.622323086485267">
<ele>49.531498</ele>
<time>2012-08-02T09:34:20Z</time>
</trkpt>
<trkpt lat="59.59925348404795" lon="16.62228897213936">
<ele>50.31972</ele>
<time>2012-08-02T09:34:24Z</time>
</trkpt>
<trkpt lat="59.59907453041524" lon="16.622337754815817">
<ele>51.442696</ele>
<time>2012-08-02T09:34:27Z</time>
</trkpt>
<trkpt lat="59.598869173787534" lon="16.622450994327664">
<ele>52.95993</ele>
<time>2012-08-02T09:34:32Z</time>
</trkpt>
<trkpt lat="59.598674504086375" lon="16.62261938676238">
<ele>53.904892</ele>
<time>2012-08-02T09:34:36Z</time>
</trkpt>
<trkpt lat="59.598489850759506" lon="16.622739331796765">
<ele>54.681747</ele>
<time>2012-08-02T09:34:39Z</time>
</trkpt>
<trkpt lat="59.59825880359858" lon="16.622777804732323">
<ele>55.57</ele>
<time>2012-08-02T09:34:43Z</time>
</trkpt>
<trkpt lat="59.5980669837445" lon="16.622666409239173">
<ele>56.03859</ele>
<time>2012-08-02T09:34:48Z</time>
</trkpt>
<trkpt lat="59.59788983222097" lon="16.622464070096612">
<ele>56.64162</ele>
<time>2012-08-02T09:34:56Z</time>
</trkpt>
<trkpt lat="59.59769277367741" lon="16.622281596064568">
<ele>58.44563</ele>
<time>2012-08-02T09:35:03Z</time>
</trkpt>
<trkpt lat="59.59750346839428" lon="16.622230214998126">
<ele>58.91209</ele>
<time>2012-08-02T09:35:07Z</time>
</trkpt>
<trkpt lat="59.5973063679412" lon="16.62219417281449">
<ele>59.673958</ele>
<time>2012-08-02T09:35:12Z</time>
</trkpt>
<trkpt lat="59.59711517672986" lon="16.622177828103304">
<ele>60.301918</ele>
<time>2012-08-02T09:35:17Z</time>
</trkpt>
<trkpt lat="59.59690873045474" lon="16.62216299213469">
<ele>61.450363</ele>
<time>2012-08-02T09:35:22Z</time>
</trkpt>
<trkpt lat="59.59673476405442" lon="16.622055117040873">
<ele>62.841454</ele>
<time>2012-08-02T09:35:27Z</time>
</trkpt>
<trkpt lat="59.596551954746246" lon="16.62204078398645">
<ele>63.57366</ele>
<time>2012-08-02T09:35:31Z</time>
</trkpt>
<trkpt lat="59.59635179489851" lon="16.622025026008487">
<ele>64.123245</ele>
<time>2012-08-02T09:35:36Z</time>
</trkpt>
<trkpt lat="59.596148282289505" lon="16.62201354280114">
<ele>64.5859</ele>
<time>2012-08-02T09:35:41Z</time>
</trkpt>
<trkpt lat="59.595961407758296" lon="16.622052183374763">
<ele>65.981094</ele>
<time>2012-08-02T09:35:45Z</time>
</trkpt>
<trkpt lat="59.59578140638769" lon="16.622114377096295">
<ele>68.4122</ele>
<time>2012-08-02T09:35:50Z</time>
</trkpt>
<trkpt lat="59.59555920213461" lon="16.62223977036774">
<ele>69.43631</ele>
<time>2012-08-02T09:35:55Z</time>
</trkpt>
<trkpt lat="59.59535581525415" lon="16.622307747602463">
<ele>69.58569</ele>
<time>2012-08-02T09:35:59Z</time>
</trkpt>
<trkpt lat="59.59514853078872" lon="16.622357703745365">
<ele>70.00446</ele>
<time>2012-08-02T09:36:03Z</time>
</trkpt>
<trkpt lat="59.59494346752763" lon="16.622414784505963">
<ele>70.479935</ele>
<time>2012-08-02T09:36:07Z</time>
</trkpt>
<trkpt lat="59.59473400376737" lon="16.622466752305627">
<ele>71.15225</ele>
<time>2012-08-02T09:36:11Z</time>
</trkpt>
<trkpt lat="59.59451464936137" lon="16.622517043724656">
<ele>71.43371</ele>
<time>2012-08-02T09:36:15Z</time>
</trkpt>
<trkpt lat="59.59428921807557" lon="16.6225665807724">
<ele>71.72277</ele>
<time>2012-08-02T09:36:19Z</time>
</trkpt>
<trkpt lat="59.59405632689595" lon="16.622587367892265">
<ele>71.96657</ele>
<time>2012-08-02T09:36:23Z</time>
</trkpt>
<trkpt lat="59.59382201079279" lon="16.62265853025019">
<ele>72.58513</ele>
<time>2012-08-02T09:36:27Z</time>
</trkpt>
<trkpt lat="59.59361845627427" lon="16.622808566316962">
<ele>73.27185</ele>
<time>2012-08-02T09:36:31Z</time>
</trkpt>
<trkpt lat="59.593439837917686" lon="16.623006043955684">
<ele>73.37001</ele>
<time>2012-08-02T09:36:35Z</time>
</trkpt>
<trkpt lat="59.59324349183589" lon="16.623229421675205">
<ele>73.60223</ele>
<time>2012-08-02T09:36:39Z</time>
</trkpt>
<trkpt lat="59.593033022247255" lon="16.62332598119974">
<ele>74.477264</ele>
<time>2012-08-02T09:36:43Z</time>
</trkpt>
<trkpt lat="59.5928373048082" lon="16.623336374759674">
<ele>74.881035</ele>
<time>2012-08-02T09:36:46Z</time>
</trkpt>
<trkpt lat="59.592652400024235" lon="16.623304020613432">
<ele>75.49667</ele>
<time>2012-08-02T09:36:49Z</time>
</trkpt>
<trkpt lat="59.59244473837316" lon="16.62324635311961">
<ele>75.81265</ele>
<time>2012-08-02T09:36:52Z</time>
</trkpt>
<trkpt lat="59.5922423992306" lon="16.623206958174706">
<ele>76.22564</ele>
<time>2012-08-02T09:36:55Z</time>
</trkpt>
<trkpt lat="59.592039389535785" lon="16.623176112771034">
<ele>76.171745</ele>
<time>2012-08-02T09:36:58Z</time>
</trkpt>
<trkpt lat="59.591825609095395" lon="16.6231622826308">
<ele>75.26151</ele>
<time>2012-08-02T09:37:01Z</time>
</trkpt>
<trkpt lat="59.59157595410943" lon="16.623185081407428">
<ele>74.55095</ele>
<time>2012-08-02T09:37:04Z</time>
</trkpt>
<trkpt lat="59.59133778233081" lon="16.623220033943653">
<ele>74.094925</ele>
<time>2012-08-02T09:37:07Z</time>
</trkpt>
<trkpt lat="59.591088839806616" lon="16.623300751671195">
<ele>73.75568</ele>
<time>2012-08-02T09:37:10Z</time>
</trkpt>
<trkpt lat="59.59085951093584" lon="16.62337677553296">
<ele>73.3188</ele>
<time>2012-08-02T09:37:13Z</time>
</trkpt>
<trkpt lat="59.59063969552517" lon="16.623572409152985">
<ele>72.53449</ele>
<time>2012-08-02T09:37:16Z</time>
</trkpt>
<trkpt lat="59.590417155995965" lon="16.623736694455147">
<ele>71.958305</ele>
<time>2012-08-02T09:37:19Z</time>
</trkpt>
<trkpt lat="59.59019884932786" lon="16.623824452981353">
<ele>71.891785</ele>
<time>2012-08-02T09:37:22Z</time>
</trkpt>
<trkpt lat="59.58998578134924" lon="16.62382814101875">
<ele>71.471535</ele>
<time>2012-08-02T09:37:25Z</time>
</trkpt>
<trkpt lat="59.589723721146584" lon="16.62391967140138">
<ele>70.37862</ele>
<time>2012-08-02T09:37:28Z</time>
</trkpt>
<trkpt lat="59.58946400787681" lon="16.623966107144952">
<ele>68.47223</ele>
<time>2012-08-02T09:37:31Z</time>
</trkpt>
<trkpt lat="59.58920827601105" lon="16.62394691258669">
<ele>65.744545</ele>
<time>2012-08-02T09:37:34Z</time>
</trkpt>
<trkpt lat="59.58893917500973" lon="16.62392151542008">
<ele>63.27973</ele>
<time>2012-08-02T09:37:37Z</time>
</trkpt>
<trkpt lat="59.588699326850474" lon="16.623810287564993">
<ele>61.35863</ele>
<time>2012-08-02T09:37:40Z</time>
</trkpt>
<trkpt lat="59.58844837266952" lon="16.62374809384346">
<ele>59.365345</ele>
<time>2012-08-02T09:37:43Z</time>
</trkpt>
<trkpt lat="59.588204878382385" lon="16.623694198206067">
<ele>57.663506</ele>
<time>2012-08-02T09:37:46Z</time>
</trkpt>
<trkpt lat="59.58798175211996" lon="16.623642314225435">
<ele>57.33461</ele>
<time>2012-08-02T09:37:49Z</time>
</trkpt>
<trkpt lat="59.58775518927723" lon="16.623574839904904">
<ele>56.914597</ele>
<time>2012-08-02T09:37:52Z</time>
</trkpt>
<trkpt lat="59.58756135776639" lon="16.62344458512962">
<ele>57.370216</ele>
<time>2012-08-02T09:37:55Z</time>
</trkpt>
<trkpt lat="59.58735210355371" lon="16.623354563489556">
<ele>58.421818</ele>
<time>2012-08-02T09:37:58Z</time>
</trkpt>
<trkpt lat="59.5871446095407" lon="16.623305529356003">
<ele>58.893574</ele>
<time>2012-08-02T09:38:01Z</time>
</trkpt>
<trkpt lat="59.586915699765086" lon="16.6232106462121">
<ele>58.229218</ele>
<time>2012-08-02T09:38:05Z</time>
</trkpt>
<trkpt lat="59.586723083630204" lon="16.623143339529634">
<ele>58.306164</ele>
<time>2012-08-02T09:38:10Z</time>
</trkpt>
<trkpt lat="59.586468525230885" lon="16.62303169257939">
<ele>59.52486</ele>
<time>2012-08-02T09:38:40Z</time>
</trkpt>
<trkpt lat="59.586284793913364" lon="16.622880566865206">
<ele>59.485783</ele>
<time>2012-08-02T09:38:47Z</time>
</trkpt>
<trkpt lat="59.58612373564392" lon="16.62268443033099">
<ele>59.10425</ele>
<time>2012-08-02T09:38:52Z</time>
</trkpt>
<trkpt lat="59.585925000719726" lon="16.622730614617467">
<ele>57.553356</ele>
<time>2012-08-02T09:38:55Z</time>
</trkpt>
<trkpt lat="59.58571461495012" lon="16.622704714536667">
<ele>55.397514</ele>
<time>2012-08-02T09:38:58Z</time>
</trkpt>
<trkpt lat="59.58555665798485" lon="16.62244546227157">
<ele>53.956764</ele>
<time>2012-08-02T09:39:01Z</time>
</trkpt>
<trkpt lat="59.58537112455815" lon="16.622176403179765">
<ele>51.81769</ele>
<time>2012-08-02T09:39:04Z</time>
</trkpt>
<trkpt lat="59.585192715749145" lon="16.621984792873263">
<ele>50.068398</ele>
<time>2012-08-02T09:39:07Z</time>
</trkpt>
<trkpt lat="59.58502138964832" lon="16.62180634215474">
<ele>48.83198</ele>
<time>2012-08-02T09:39:10Z</time>
</trkpt>
<trkpt lat="59.584850943647325" lon="16.621634177863598">
<ele>47.93848</ele>
<time>2012-08-02T09:39:13Z</time>
</trkpt>
<trkpt lat="59.58467907272279" lon="16.62147207185626">
<ele>47.181858</ele>
<time>2012-08-02T09:39:16Z</time>
</trkpt>
<trkpt lat="59.58451084792614" lon="16.621313570067286">
<ele>46.592354</ele>
<time>2012-08-02T09:39:19Z</time>
</trkpt>
<trkpt lat="59.584341030567884" lon="16.62114853039384">
<ele>46.065517</ele>
<time>2012-08-02T09:39:22Z</time>
</trkpt>
<trkpt lat="59.584169117733836" lon="16.62097812630236">
<ele>45.702633</ele>
<time>2012-08-02T09:39:25Z</time>
</trkpt>
<trkpt lat="59.58399666007608" lon="16.62080554291606">
<ele>45.36829</ele>
<time>2012-08-02T09:39:28Z</time>
</trkpt>
<trkpt lat="59.58383187185973" lon="16.62061057984829">
<ele>45.21317</ele>
<time>2012-08-02T09:39:31Z</time>
</trkpt>
<trkpt lat="59.58368129096925" lon="16.620389549061656">
<ele>45.122734</ele>
<time>2012-08-02T09:39:34Z</time>
</trkpt>
<trkpt lat="59.58354759961367" lon="16.62001504562795">
<ele>45.39938</ele>
<time>2012-08-02T09:39:38Z</time>
</trkpt>
<trkpt lat="59.583535990677774" lon="16.61964221857488">
<ele>46.21464</ele>
<time>2012-08-02T09:39:42Z</time>
</trkpt>
<trkpt lat="59.58359185606241" lon="16.61929529160261">
<ele>47.272022</ele>
<time>2012-08-02T09:39:47Z</time>
</trkpt>
<trkpt lat="59.58355736453086" lon="16.618931600824">
<ele>49.05122</ele>
<time>2012-08-02T09:39:56Z</time>
</trkpt>
<trkpt lat="59.58350053522736" lon="16.618582662194967">
<ele>50.436363</ele>
<time>2012-08-02T09:40:02Z</time>
</trkpt>
<trkpt lat="59.583411226049066" lon="16.61827052012086">
<ele>50.9925</ele>
<time>2012-08-02T09:40:07Z</time>
</trkpt>
<trkpt lat="59.58330377005041" lon="16.617947397753596">
<ele>51.988956</ele>
<time>2012-08-02T09:40:12Z</time>
</trkpt>
<trkpt lat="59.58323218859732" lon="16.617613462731242">
<ele>52.474625</ele>
<time>2012-08-02T09:40:16Z</time>
</trkpt>
<trkpt lat="59.5830658916384" lon="16.61736896261573">
<ele>52.117805</ele>
<time>2012-08-02T09:40:21Z</time>
</trkpt>
<trkpt lat="59.5829060068354" lon="16.617198223248124">
<ele>52.311657</ele>
<time>2012-08-02T09:40:28Z</time>
</trkpt>
<trkpt lat="59.5828264625743" lon="16.61685305647552">
<ele>56.438103</ele>
<time>2012-08-02T09:41:30Z</time>
</trkpt>
<trkpt lat="59.58290001377463" lon="16.616508895531297">
<ele>56.496246</ele>
<time>2012-08-02T09:41:35Z</time>
</trkpt>
<trkpt lat="59.582954328507185" lon="16.61614746786654">
<ele>56.70585</ele>
<time>2012-08-02T09:41:40Z</time>
</trkpt>
<trkpt lat="59.58302800543606" lon="16.615805150941014">
<ele>56.71908</ele>
<time>2012-08-02T09:41:46Z</time>
</trkpt>
<trkpt lat="59.583098203875124" lon="16.615439280867577">
<ele>56.112614</ele>
<time>2012-08-02T09:41:53Z</time>
</trkpt>
<trkpt lat="59.58305243868381" lon="16.61506997421384">
<ele>54.440754</ele>
<time>2012-08-02T09:42:00Z</time>
</trkpt>
<trkpt lat="59.5829068031162" lon="16.61475439555943">
<ele>51.70928</ele>
<time>2012-08-02T09:42:05Z</time>
</trkpt>
<trkpt lat="59.582731956616044" lon="16.614540489390492">
<ele>47.91665</ele>
<time>2012-08-02T09:42:10Z</time>
</trkpt>
<trkpt lat="59.58254449535161" lon="16.614423394203186">
<ele>44.973236</ele>
<time>2012-08-02T09:42:14Z</time>
</trkpt>
<trkpt lat="59.58234944846481" lon="16.614303700625896">
<ele>42.27668</ele>
<time>2012-08-02T09:42:18Z</time>
</trkpt>
<trkpt lat="59.5821625739336" lon="16.614153580740094">
<ele>39.93207</ele>
<time>2012-08-02T09:42:22Z</time>
</trkpt>
<trkpt lat="59.582003904506564" lon="16.613985020667315">
<ele>38.199215</ele>
<time>2012-08-02T09:42:26Z</time>
</trkpt>
<trkpt lat="59.58184033166617" lon="16.6138166282326">
<ele>37.198067</ele>
<time>2012-08-02T09:42:31Z</time>
</trkpt>
<trkpt lat="59.581688032485545" lon="16.614024499431252">
<ele>37.04159</ele>
<time>2012-08-02T09:43:01Z</time>
</trkpt>
<trkpt lat="59.58155341912061" lon="16.61438441835344">
<ele>37.741703</ele>
<time>2012-08-02T09:43:06Z</time>
</trkpt>
<trkpt lat="59.58133632782847" lon="16.614565635100007">
<ele>37.837414</ele>
<time>2012-08-02T09:43:10Z</time>
</trkpt>
<trkpt lat="59.58116491790861" lon="16.614739559590816">
<ele>37.493904</ele>
<time>2012-08-02T09:43:13Z</time>
</trkpt>
<trkpt lat="59.580978085286915" lon="16.614853804931045">
<ele>37.11931</ele>
<time>2012-08-02T09:43:16Z</time>
</trkpt>
<trkpt lat="59.580777967348695" lon="16.614953633397818">
<ele>36.60502</ele>
<time>2012-08-02T09:43:19Z</time>
</trkpt>
<trkpt lat="59.58057110197842" lon="16.61505631171167">
<ele>36.009933</ele>
<time>2012-08-02T09:43:22Z</time>
</trkpt>
<trkpt lat="59.58037965930998" lon="16.61524591036141">
<ele>35.255753</ele>
<time>2012-08-02T09:43:25Z</time>
</trkpt>
<trkpt lat="59.58023125771433" lon="16.615533158183098">
<ele>34.843826</ele>
<time>2012-08-02T09:43:28Z</time>
</trkpt>
<trkpt lat="59.58011676091701" lon="16.615886371582747">
<ele>34.684105</ele>
<time>2012-08-02T09:43:31Z</time>
</trkpt>
<trkpt lat="59.580033612437546" lon="16.616264395415783">
<ele>34.776115</ele>
<time>2012-08-02T09:43:34Z</time>
</trkpt>
<trkpt lat="59.579975944943726" lon="16.616635881364346">
<ele>35.213356</ele>
<time>2012-08-02T09:43:37Z</time>
</trkpt>
<trkpt lat="59.579877625219524" lon="16.616994459182024">
<ele>35.16501</ele>
<time>2012-08-02T09:43:40Z</time>
</trkpt>
<trkpt lat="59.57976618781686" lon="16.617354713380337">
<ele>34.860237</ele>
<time>2012-08-02T09:43:43Z</time>
</trkpt>
<trkpt lat="59.57966610789299" lon="16.617728546261787">
<ele>34.467594</ele>
<time>2012-08-02T09:43:46Z</time>
</trkpt>
<trkpt lat="59.57953522447497" lon="16.618044124916196">
<ele>33.698833</ele>
<time>2012-08-02T09:43:49Z</time>
</trkpt>
<trkpt lat="59.57937370520085" lon="16.618285523727536">
<ele>32.74169</ele>
<time>2012-08-02T09:43:52Z</time>
</trkpt>
<trkpt lat="59.57934579346329" lon="16.61872691474855">
<ele>31.790924</ele>
<time>2012-08-02T09:43:56Z</time>
</trkpt>
<trkpt lat="59.579445454292" lon="16.619023801758885">
<ele>31.74305</ele>
<time>2012-08-02T09:43:59Z</time>
</trkpt>
<trkpt lat="59.579572272486985" lon="16.619348600506783">
<ele>32.71791</ele>
<time>2012-08-02T09:44:03Z</time>
</trkpt>
<trkpt lat="59.579678596928716" lon="16.61970365792513">
<ele>33.804096</ele>
<time>2012-08-02T09:44:07Z</time>
</trkpt>
<trkpt lat="59.579483633860946" lon="16.619943967089057">
<ele>34.74114</ele>
<time>2012-08-02T09:44:11Z</time>
</trkpt>
<trkpt lat="59.57932370714843" lon="16.620125016197562">
<ele>35.532986</ele>
<time>2012-08-02T09:44:14Z</time>
</trkpt>
<trkpt lat="59.579121032729745" lon="16.620335150510073">
<ele>37.481148</ele>
<time>2012-08-02T09:44:18Z</time>
</trkpt>
<trkpt lat="59.57894077990204" lon="16.62050999701023">
<ele>38.859238</ele>
<time>2012-08-02T09:44:21Z</time>
</trkpt>
<trkpt lat="59.57876484375447" lon="16.620706552639604">
<ele>39.246857</ele>
<time>2012-08-02T09:44:24Z</time>
</trkpt>
<trkpt lat="59.57857352681458" lon="16.620939234271646">
<ele>39.029144</ele>
<time>2012-08-02T09:44:27Z</time>
</trkpt>
<trkpt lat="59.5783972973004" lon="16.62114953622222">
<ele>38.663857</ele>
<time>2012-08-02T09:44:30Z</time>
</trkpt>
<trkpt lat="59.578229575417936" lon="16.62136511877179">
<ele>38.200382</ele>
<time>2012-08-02T09:44:33Z</time>
</trkpt>
<trkpt lat="59.57806763704866" lon="16.621549101546407">
<ele>37.661095</ele>
<time>2012-08-02T09:44:36Z</time>
</trkpt>
<trkpt lat="59.57791881635785" lon="16.621748423203826">
<ele>37.592957</ele>
<time>2012-08-02T09:44:39Z</time>
</trkpt>
<trkpt lat="59.577739192172885" lon="16.621953947469592">
<ele>37.702076</ele>
<time>2012-08-02T09:44:43Z</time>
</trkpt>
<trkpt lat="59.57761115860194" lon="16.62227447144687">
<ele>37.888542</ele>
<time>2012-08-02T09:44:47Z</time>
</trkpt>
<trkpt lat="59.57767033483833" lon="16.622697757557034">
<ele>37.71703</ele>
<time>2012-08-02T09:44:50Z</time>
</trkpt>
<trkpt lat="59.57772075198591" lon="16.623101513832808">
<ele>37.555622</ele>
<time>2012-08-02T09:44:53Z</time>
</trkpt>
<trkpt lat="59.577705287374556" lon="16.623507952317595">
<ele>37.47346</ele>
<time>2012-08-02T09:44:56Z</time>
</trkpt>
<trkpt lat="59.57754188217223" lon="16.62380425259471">
<ele>36.746624</ele>
<time>2012-08-02T09:44:59Z</time>
</trkpt>
<trkpt lat="59.57735802512616" lon="16.62410432472825">
<ele>36.15248</ele>
<time>2012-08-02T09:45:02Z</time>
</trkpt>
<trkpt lat="59.57718883641064" lon="16.624425938352942">
<ele>35.400257</ele>
<time>2012-08-02T09:45:05Z</time>
</trkpt>
<trkpt lat="59.57702907733619" lon="16.62473958916962">
<ele>34.786053</ele>
<time>2012-08-02T09:45:08Z</time>
</trkpt>
<trkpt lat="59.5768284983933" lon="16.624819049611688">
<ele>33.71755</ele>
<time>2012-08-02T09:45:11Z</time>
</trkpt>
<trkpt lat="59.57665415480733" lon="16.625072183087468">
<ele>32.73865</ele>
<time>2012-08-02T09:45:14Z</time>
</trkpt>
<trkpt lat="59.57651748787612" lon="16.625429587438703">
<ele>32.325676</ele>
<time>2012-08-02T09:45:17Z</time>
</trkpt>
<trkpt lat="59.57639159169048" lon="16.625800067558885">
<ele>32.162388</ele>
<time>2012-08-02T09:45:20Z</time>
</trkpt>
<trkpt lat="59.57627919036895" lon="16.626185048371553">
<ele>32.082565</ele>
<time>2012-08-02T09:45:23Z</time>
</trkpt>
<trkpt lat="59.57616989035159" lon="16.626568268984556">
<ele>31.966084</ele>
<time>2012-08-02T09:45:26Z</time>
</trkpt>
<trkpt lat="59.576017716899514" lon="16.62685526534915">
<ele>31.751324</ele>
<time>2012-08-02T09:45:29Z</time>
</trkpt>
<trkpt lat="59.57582220900804" lon="16.626960542052984">
<ele>31.187279</ele>
<time>2012-08-02T09:45:32Z</time>
</trkpt>
<trkpt lat="59.57567799836397" lon="16.627240916714072">
<ele>30.794632</ele>
<time>2012-08-02T09:45:35Z</time>
</trkpt>
<trkpt lat="59.575585294514894" lon="16.627607541158795">
<ele>30.55555</ele>
<time>2012-08-02T09:45:38Z</time>
</trkpt>
<trkpt lat="59.57549259066582" lon="16.62798254750669">
<ele>30.324995</ele>
<time>2012-08-02T09:45:41Z</time>
</trkpt>
<trkpt lat="59.575396701693535" lon="16.62835487164557">
<ele>30.238672</ele>
<time>2012-08-02T09:45:44Z</time>
</trkpt>
<trkpt lat="59.57530106417835" lon="16.628723675385118">
<ele>30.191313</ele>
<time>2012-08-02T09:45:47Z</time>
</trkpt>
<trkpt lat="59.575201319530606" lon="16.62909658625722">
<ele>30.138508</ele>
<time>2012-08-02T09:45:50Z</time>
</trkpt>
<trkpt lat="59.57510283216834" lon="16.629481986165047">
<ele>29.88812</ele>
<time>2012-08-02T09:45:53Z</time>
</trkpt>
<trkpt lat="59.57500551827252" lon="16.62986378185451">
<ele>29.479359</ele>
<time>2012-08-02T09:45:56Z</time>
</trkpt>
<trkpt lat="59.574908539652824" lon="16.63023711182177">
<ele>29.177235</ele>
<time>2012-08-02T09:45:59Z</time>
</trkpt>
<trkpt lat="59.57481235731393" lon="16.630609100684524">
<ele>29.074772</ele>
<time>2012-08-02T09:46:02Z</time>
</trkpt>
<trkpt lat="59.57471483387053" lon="16.630977485328913">
<ele>29.05029</ele>
<time>2012-08-02T09:46:05Z</time>
</trkpt>
<trkpt lat="59.574618274345994" lon="16.63135550916195">
<ele>28.938408</ele>
<time>2012-08-02T09:46:08Z</time>
</trkpt>
<trkpt lat="59.57452188245952" lon="16.63173076696694">
<ele>28.858383</ele>
<time>2012-08-02T09:46:11Z</time>
</trkpt>
<trkpt lat="59.57442628685385" lon="16.632107198238373">
<ele>28.780884</ele>
<time>2012-08-02T09:46:14Z</time>
</trkpt>
<trkpt lat="59.57433236762881" lon="16.63248421624303">
<ele>28.77787</ele>
<time>2012-08-02T09:46:17Z</time>
</trkpt>
<trkpt lat="59.574253326281905" lon="16.63287573494017">
<ele>28.82348</ele>
<time>2012-08-02T09:46:20Z</time>
</trkpt>
<trkpt lat="59.574219211936" lon="16.633296674117446">
<ele>28.867733</ele>
<time>2012-08-02T09:46:23Z</time>
</trkpt>
<trkpt lat="59.57419197075069" lon="16.633729431778193">
<ele>28.828568</ele>
<time>2012-08-02T09:46:26Z</time>
</trkpt>
<trkpt lat="59.57416485529393" lon="16.63415498100221">
<ele>28.812044</ele>
<time>2012-08-02T09:46:29Z</time>
</trkpt>
<trkpt lat="59.57413719501346" lon="16.634580362588167">
<ele>28.805075</ele>
<time>2012-08-02T09:46:32Z</time>
</trkpt>
<trkpt lat="59.574109450913966" lon="16.635001469403505">
<ele>28.870893</ele>
<time>2012-08-02T09:46:35Z</time>
</trkpt>
<trkpt lat="59.57408158108592" lon="16.635420229285955">
<ele>28.945534</ele>
<time>2012-08-02T09:46:38Z</time>
</trkpt>
<trkpt lat="59.574053920805454" lon="16.635807137936354">
<ele>29.020761</ele>
<time>2012-08-02T09:46:41Z</time>
</trkpt>
<trkpt lat="59.574027392081916" lon="16.636173762381077">
<ele>29.19314</ele>
<time>2012-08-02T09:46:44Z</time>
</trkpt>
<trkpt lat="59.57400610204786" lon="16.636568382382393">
<ele>29.337738</ele>
<time>2012-08-02T09:46:47Z</time>
</trkpt>
<trkpt lat="59.57398791331798" lon="16.63697582669556">
<ele>29.431545</ele>
<time>2012-08-02T09:46:50Z</time>
</trkpt>
<trkpt lat="59.57396247424185" lon="16.637370279058814">
<ele>29.724247</ele>
<time>2012-08-02T09:46:53Z</time>
</trkpt>
<trkpt lat="59.57392567768693" lon="16.637729108333588">
<ele>30.132093</ele>
<time>2012-08-02T09:46:56Z</time>
</trkpt>
<trkpt lat="59.573753932490945" lon="16.637992803007364">
<ele>30.997658</ele>
<time>2012-08-02T09:47:00Z</time>
</trkpt>
<trkpt lat="59.57365330774337" lon="16.638322547078133">
<ele>31.284943</ele>
<time>2012-08-02T09:47:03Z</time>
</trkpt>
<trkpt lat="59.57354912068695" lon="16.6386903449893">
<ele>31.420208</ele>
<time>2012-08-02T09:47:06Z</time>
</trkpt>
<trkpt lat="59.57340302411467" lon="16.638998379930854">
<ele>31.556961</ele>
<time>2012-08-02T09:47:09Z</time>
</trkpt>
<trkpt lat="59.57322926726192" lon="16.639237264171243">
<ele>31.372463</ele>
<time>2012-08-02T09:47:12Z</time>
</trkpt>
<trkpt lat="59.57303581293672" lon="16.639384031295776">
<ele>30.98682</ele>
<time>2012-08-02T09:47:15Z</time>
</trkpt>
<trkpt lat="59.572840640321374" lon="16.63947120308876">
<ele>30.806942</ele>
<time>2012-08-02T09:47:18Z</time>
</trkpt>
<trkpt lat="59.572649323381484" lon="16.63954881951213">
<ele>31.009178</ele>
<time>2012-08-02T09:47:21Z</time>
</trkpt>
<trkpt lat="59.57246714271605" lon="16.639598859474063">
<ele>31.639818</ele>
<time>2012-08-02T09:47:24Z</time>
</trkpt>
<trkpt lat="59.57226124126464" lon="16.63975702598691">
<ele>32.729</ele>
<time>2012-08-02T09:47:28Z</time>
</trkpt>
<trkpt lat="59.57211933564395" lon="16.64012306369841">
<ele>33.18885</ele>
<time>2012-08-02T09:47:32Z</time>
</trkpt>
<trkpt lat="59.571944237686694" lon="16.64036387577653">
<ele>32.765614</ele>
<time>2012-08-02T09:47:35Z</time>
</trkpt>
<trkpt lat="59.57176520023495" lon="16.640571914613247">
<ele>32.313618</ele>
<time>2012-08-02T09:47:38Z</time>
</trkpt>
<trkpt lat="59.57156114280224" lon="16.6407538857311">
<ele>32.30262</ele>
<time>2012-08-02T09:47:41Z</time>
</trkpt>
<trkpt lat="59.57134271040559" lon="16.6409111302346">
<ele>32.94888</ele>
<time>2012-08-02T09:47:45Z</time>
</trkpt>
<trkpt lat="59.571138569153845" lon="16.641032081097364">
<ele>33.672176</ele>
<time>2012-08-02T09:47:48Z</time>
</trkpt>
<trkpt lat="59.570912551134825" lon="16.641146074980497">
<ele>34.41014</ele>
<time>2012-08-02T09:47:51Z</time>
</trkpt>
<trkpt lat="59.5707066077739" lon="16.64127674885094">
<ele>35.265213</ele>
<time>2012-08-02T09:47:54Z</time>
</trkpt>
<trkpt lat="59.570534150116146" lon="16.641426030546427">
<ele>36.28689</ele>
<time>2012-08-02T09:47:57Z</time>
</trkpt>
<trkpt lat="59.57048666663468" lon="16.641888627782464">
<ele>37.27163</ele>
<time>2012-08-02T09:48:01Z</time>
</trkpt>
<trkpt lat="59.570546597242355" lon="16.642334880307317">
<ele>37.486477</ele>
<time>2012-08-02T09:48:04Z</time>
</trkpt>
<trkpt lat="59.57061151508242" lon="16.642773672938347">
<ele>36.900536</ele>
<time>2012-08-02T09:48:07Z</time>
</trkpt>
<trkpt lat="59.57067207433283" lon="16.64320869371295">
<ele>35.984604</ele>
<time>2012-08-02T09:48:10Z</time>
</trkpt>
<trkpt lat="59.570740051567554" lon="16.64365083910525">
<ele>34.76382</ele>
<time>2012-08-02T09:48:13Z</time>
</trkpt>
<trkpt lat="59.57080685533583" lon="16.64409700781107">
<ele>33.476917</ele>
<time>2012-08-02T09:48:16Z</time>
</trkpt>
<trkpt lat="59.57086749840528" lon="16.644536470994353">
<ele>32.29339</ele>
<time>2012-08-02T09:48:19Z</time>
</trkpt>
<trkpt lat="59.57092524971813" lon="16.6449623554945">
<ele>31.60658</ele>
<time>2012-08-02T09:48:22Z</time>
</trkpt>
<trkpt lat="59.57098555751145" lon="16.64539536461234">
<ele>30.944962</ele>
<time>2012-08-02T09:48:25Z</time>
</trkpt>
<trkpt lat="59.57104666158557" lon="16.64581110700965">
<ele>30.318974</ele>
<time>2012-08-02T09:48:28Z</time>
</trkpt>
<trkpt lat="59.57110638264567" lon="16.6462264303118">
<ele>29.903303</ele>
<time>2012-08-02T09:48:31Z</time>
</trkpt>
<trkpt lat="59.57116094883531" lon="16.646636137738824">
<ele>29.75295</ele>
<time>2012-08-02T09:48:34Z</time>
</trkpt>
<trkpt lat="59.57121844869107" lon="16.64704928174615">
<ele>29.74734</ele>
<time>2012-08-02T09:48:37Z</time>
</trkpt>
<trkpt lat="59.57127674482763" lon="16.64746125228703">
<ele>29.77154</ele>
<time>2012-08-02T09:48:40Z</time>
</trkpt>
<trkpt lat="59.571337387897074" lon="16.64787707850337">
<ele>29.48331</ele>
<time>2012-08-02T09:48:43Z</time>
</trkpt>
<trkpt lat="59.57139086443931" lon="16.64828502573073">
<ele>29.453907</ele>
<time>2012-08-02T09:48:46Z</time>
</trkpt>
<trkpt lat="59.5714455563575" lon="16.648696660995483">
<ele>29.37899</ele>
<time>2012-08-02T09:48:49Z</time>
</trkpt>
<trkpt lat="59.5715002482757" lon="16.64911139756441">
<ele>29.289577</ele>
<time>2012-08-02T09:48:52Z</time>
</trkpt>
<trkpt lat="59.57155171316117" lon="16.649507442489266">
<ele>29.306545</ele>
<time>2012-08-02T09:48:55Z</time>
</trkpt>
<trkpt lat="59.571604770608246" lon="16.6499097738415">
<ele>29.437132</ele>
<time>2012-08-02T09:48:58Z</time>
</trkpt>
<trkpt lat="59.571660216897726" lon="16.650319984182715">
<ele>29.429739</ele>
<time>2012-08-02T09:49:01Z</time>
</trkpt>
<trkpt lat="59.57171583082527" lon="16.650727428495884">
<ele>29.470358</ele>
<time>2012-08-02T09:49:04Z</time>
</trkpt>
<trkpt lat="59.57176893018186" lon="16.65112984366715">
<ele>29.537498</ele>
<time>2012-08-02T09:49:07Z</time>
</trkpt>
<trkpt lat="59.57182207144797" lon="16.651524463668466">
<ele>29.733015</ele>
<time>2012-08-02T09:49:10Z</time>
</trkpt>
<trkpt lat="59.57187035121024" lon="16.651910869404674">
<ele>29.942055</ele>
<time>2012-08-02T09:49:13Z</time>
</trkpt>
<trkpt lat="59.57181155215949" lon="16.65226584300399">
<ele>30.764093</ele>
<time>2012-08-02T09:49:17Z</time>
</trkpt>
<trkpt lat="59.57158867735416" lon="16.65217691101134">
<ele>31.924961</ele>
<time>2012-08-02T09:49:21Z</time>
</trkpt>
<trkpt lat="59.571403437294066" lon="16.652086805552244">
<ele>32.832397</ele>
<time>2012-08-02T09:49:24Z</time>
</trkpt>
<trkpt lat="59.57121195271611" lon="16.65204011835158">
<ele>33.416794</ele>
<time>2012-08-02T09:49:27Z</time>
</trkpt>
<trkpt lat="59.571023737080395" lon="16.652040537446737">
<ele>33.76021</ele>
<time>2012-08-02T09:49:30Z</time>
</trkpt>
<trkpt lat="59.57083996385336" lon="16.652042884379625">
<ele>33.86916</ele>
<time>2012-08-02T09:49:33Z</time>
</trkpt>
<trkpt lat="59.57065803464502" lon="16.651998963207006">
<ele>34.365105</ele>
<time>2012-08-02T09:49:36Z</time>
</trkpt>
<trkpt lat="59.570467472076416" lon="16.65194640867412">
<ele>35.25247</ele>
<time>2012-08-02T09:49:39Z</time>
</trkpt>
<trkpt lat="59.57027720287442" lon="16.6518853046">
<ele>35.925262</ele>
<time>2012-08-02T09:49:42Z</time>
</trkpt>
<trkpt lat="59.57009498029947" lon="16.651798551902175">
<ele>36.42317</ele>
<time>2012-08-02T09:49:45Z</time>
</trkpt>
<trkpt lat="59.569904753006995" lon="16.65171188302338">
<ele>36.911335</ele>
<time>2012-08-02T09:49:48Z</time>
</trkpt>
<trkpt lat="59.569716956466436" lon="16.65166142396629">
<ele>37.21102</ele>
<time>2012-08-02T09:49:51Z</time>
</trkpt>
<trkpt lat="59.56952316686511" lon="16.651646671816707">
<ele>37.753098</ele>
<time>2012-08-02T09:49:54Z</time>
</trkpt>
<trkpt lat="59.56933197565377" lon="16.651675924658775">
<ele>38.159904</ele>
<time>2012-08-02T09:49:57Z</time>
</trkpt>
<trkpt lat="59.56913822796196" lon="16.65168355219066">
<ele>38.215897</ele>
<time>2012-08-02T09:50:00Z</time>
</trkpt>
<trkpt lat="59.56894598901272" lon="16.651686234399676">
<ele>38.080147</ele>
<time>2012-08-02T09:50:03Z</time>
</trkpt>
<trkpt lat="59.56876221578568" lon="16.65171238593757">
<ele>37.835373</ele>
<time>2012-08-02T09:50:06Z</time>
</trkpt>
<trkpt lat="59.568578568287194" lon="16.65181783027947">
<ele>37.124306</ele>
<time>2012-08-02T09:50:09Z</time>
</trkpt>
<trkpt lat="59.56840740982443" lon="16.651952108368278">
<ele>36.329014</ele>
<time>2012-08-02T09:50:12Z</time>
</trkpt>
<trkpt lat="59.56824714783579" lon="16.652122009545565">
<ele>35.8638</ele>
<time>2012-08-02T09:50:15Z</time>
</trkpt>
<trkpt lat="59.56809740513563" lon="16.65231973864138">
<ele>35.52692</ele>
<time>2012-08-02T09:50:18Z</time>
</trkpt>
<trkpt lat="59.56795378122479" lon="16.652541775256395">
<ele>35.167606</ele>
<time>2012-08-02T09:50:21Z</time>
</trkpt>
<trkpt lat="59.56780085340142" lon="16.65289289318025">
<ele>34.8917</ele>
<time>2012-08-02T09:50:25Z</time>
</trkpt>
<trkpt lat="59.567746496759355" lon="16.65323831140995">
<ele>34.913677</ele>
<time>2012-08-02T09:50:28Z</time>
</trkpt>
<trkpt lat="59.56768216565251" lon="16.6535690613091">
<ele>35.16672</ele>
<time>2012-08-02T09:50:31Z</time>
</trkpt>
<trkpt lat="59.567596251145005" lon="16.65397466160357">
<ele>35.546116</ele>
<time>2012-08-02T09:50:35Z</time>
</trkpt>
<trkpt lat="59.567541726864874" lon="16.65432502515614">
<ele>36.120056</ele>
<time>2012-08-02T09:50:39Z</time>
</trkpt>
<trkpt lat="59.56743037328124" lon="16.654604896903038">
<ele>36.793232</ele>
<time>2012-08-02T09:50:44Z</time>
</trkpt>
<trkpt lat="59.567535649985075" lon="16.65491670370102">
<ele>38.221092</ele>
<time>2012-08-02T09:50:52Z</time>
</trkpt>
<trkpt lat="59.56767491530627" lon="16.65518157184124">
<ele>40.632317</ele>
<time>2012-08-02T09:51:00Z</time>
</trkpt>
<trkpt lat="59.567817114293575" lon="16.65545918047428">
<ele>42.998833</ele>
<time>2012-08-02T09:51:09Z</time>
</trkpt>
<trkpt lat="59.567957133986056" lon="16.655690018087626">
<ele>46.77499</ele>
<time>2012-08-02T09:51:16Z</time>
</trkpt>
<trkpt lat="59.56807121168822" lon="16.65596829727292">
<ele>48.80882</ele>
<time>2012-08-02T09:51:24Z</time>
</trkpt>
<trkpt lat="59.56819400656968" lon="16.656259400770068">
<ele>51.09783</ele>
<time>2012-08-02T09:51:32Z</time>
</trkpt>
<trkpt lat="59.56829559523612" lon="16.656564585864544">
<ele>53.497612</ele>
<time>2012-08-02T09:51:39Z</time>
</trkpt>
<trkpt lat="59.568447223864496" lon="16.656793076545">
<ele>57.537334</ele>
<time>2012-08-02T09:51:45Z</time>
</trkpt>
<trkpt lat="59.56857555080205" lon="16.657082252204418">
<ele>61.11967</ele>
<time>2012-08-02T09:51:53Z</time>
</trkpt>
<trkpt lat="59.56863812170923" lon="16.65743362158537">
<ele>64.25045</ele>
<time>2012-08-02T09:52:01Z</time>
</trkpt>
<trkpt lat="59.568710792809725" lon="16.65786067955196">
<ele>66.04697</ele>
<time>2012-08-02T09:52:07Z</time>
</trkpt>
<trkpt lat="59.568797587417066" lon="16.658272482454777">
<ele>65.76017</ele>
<time>2012-08-02T09:52:11Z</time>
</trkpt>
<trkpt lat="59.56892914138734" lon="16.658589150756598">
<ele>64.934975</ele>
<time>2012-08-02T09:52:16Z</time>
</trkpt>
<trkpt lat="59.56901610363275" lon="16.658940771594644">
<ele>64.927444</ele>
<time>2012-08-02T09:52:21Z</time>
</trkpt>
<trkpt lat="59.56904673948884" lon="16.65931301191449">
<ele>66.022736</ele>
<time>2012-08-02T09:52:26Z</time>
</trkpt>
<trkpt lat="59.56909376196563" lon="16.659656753763556">
<ele>65.88645</ele>
<time>2012-08-02T09:52:31Z</time>
</trkpt>
<trkpt lat="59.56907254531549" lon="16.66002469298632">
<ele>67.00638</ele>
<time>2012-08-02T09:53:02Z</time>
</trkpt>
<trkpt lat="59.56907294023788" lon="16.660440231794315">
<ele>68.35238</ele>
<time>2012-08-02T09:53:07Z</time>
</trkpt>
<trkpt lat="59.56911592271509" lon="16.66084744055691">
<ele>68.10147</ele>
<time>2012-08-02T09:53:12Z</time>
</trkpt>
<trkpt lat="59.56907357014489" lon="16.661191664887046">
<ele>67.6116</ele>
<time>2012-08-02T09:53:19Z</time>
</trkpt>
<trkpt lat="59.5689724815329" lon="16.66149113100379">
<ele>68.1564</ele>
<time>2012-08-02T09:53:26Z</time>
</trkpt>
<trkpt lat="59.568783841095865" lon="16.661611832678318">
<ele>67.69824</ele>
<time>2012-08-02T09:53:33Z</time>
</trkpt>
<trkpt lat="59.56859076395631" lon="16.66169104166329">
<ele>67.80757</ele>
<time>2012-08-02T09:53:40Z</time>
</trkpt>
<trkpt lat="59.56839035265148" lon="16.661735801026225">
<ele>66.344345</ele>
<time>2012-08-02T09:53:47Z</time>
</trkpt>
<trkpt lat="59.56819782033563" lon="16.661770418286324">
<ele>65.537895</ele>
<time>2012-08-02T09:53:55Z</time>
</trkpt>
<trkpt lat="59.567999546416104" lon="16.66174091398716">
<ele>66.641106</ele>
<time>2012-08-02T09:54:04Z</time>
</trkpt>
<trkpt lat="59.56781527027488" lon="16.661737645044923">
<ele>66.70588</ele>
<time>2012-08-02T09:54:11Z</time>
</trkpt>
<trkpt lat="59.567622570320964" lon="16.6617180313915">
<ele>66.7102</ele>
<time>2012-08-02T09:54:18Z</time>
</trkpt>
<trkpt lat="59.5674212789163" lon="16.66169405914843">
<ele>68.46393</ele>
<time>2012-08-02T09:54:25Z</time>
</trkpt>
<trkpt lat="59.56722912378609" lon="16.66169540025294">
<ele>68.955666</ele>
<time>2012-08-02T09:54:31Z</time>
</trkpt>
<trkpt lat="59.567012996412814" lon="16.66164468973875">
<ele>69.56142</ele>
<time>2012-08-02T09:54:37Z</time>
</trkpt>
<trkpt lat="59.5668039098382" lon="16.6615610383451">
<ele>70.212074</ele>
<time>2012-08-02T09:54:43Z</time>
</trkpt>
<trkpt lat="59.566602115519345" lon="16.661516362801194">
<ele>70.31976</ele>
<time>2012-08-02T09:54:48Z</time>
</trkpt>
<trkpt lat="59.56638850271702" lon="16.661535808816552">
<ele>70.386536</ele>
<time>2012-08-02T09:54:53Z</time>
</trkpt>
<trkpt lat="59.566201670095325" lon="16.661604456603527">
<ele>69.75746</ele>
<time>2012-08-02T09:54:57Z</time>
</trkpt>
<trkpt lat="59.56600352190435" lon="16.66168810799718">
<ele>69.73225</ele>
<time>2012-08-02T09:55:01Z</time>
</trkpt>
<trkpt lat="59.56578831654042" lon="16.66182406246662">
<ele>69.493805</ele>
<time>2012-08-02T09:55:05Z</time>
</trkpt>
<trkpt lat="59.56561845727265" lon="16.66200226172805">
<ele>67.855194</ele>
<time>2012-08-02T09:55:08Z</time>
</trkpt>
<trkpt lat="59.56545123830438" lon="16.662143161520362">
<ele>65.74828</ele>
<time>2012-08-02T09:55:11Z</time>
</trkpt>
<trkpt lat="59.565290892496705" lon="16.66231264360249">
<ele>63.93911</ele>
<time>2012-08-02T09:55:14Z</time>
</trkpt>
<trkpt lat="59.56510586198419" lon="16.662473073229194">
<ele>62.581905</ele>
<time>2012-08-02T09:55:18Z</time>
</trkpt>
<trkpt lat="59.56489836797118" lon="16.66261170990765">
<ele>62.715046</ele>
<time>2012-08-02T09:55:23Z</time>
</trkpt>
<trkpt lat="59.56471731886268" lon="16.662731068208814">
<ele>62.9321</ele>
<time>2012-08-02T09:55:27Z</time>
</trkpt>
<trkpt lat="59.56451585981995" lon="16.66287699714303">
<ele>62.89687</ele>
<time>2012-08-02T09:55:31Z</time>
</trkpt>
<trkpt lat="59.56439272966236" lon="16.663201712071896">
<ele>63.263805</ele>
<time>2012-08-02T09:55:36Z</time>
</trkpt>
<trkpt lat="59.564289380796254" lon="16.663564648479223">
<ele>63.252342</ele>
<time>2012-08-02T09:55:42Z</time>
</trkpt>
<trkpt lat="59.56419504247606" lon="16.6638835798949">
<ele>63.4721</ele>
<time>2012-08-02T09:55:48Z</time>
</trkpt>
<trkpt lat="59.56418783403933" lon="16.664264788851142">
<ele>63.640568</ele>
<time>2012-08-02T09:55:54Z</time>
</trkpt>
<trkpt lat="59.56424076575786" lon="16.664617583155632">
<ele>63.7101</ele>
<time>2012-08-02T09:56:00Z</time>
</trkpt>
<trkpt lat="59.56430639605969" lon="16.664977334439754">
<ele>64.43714</ele>
<time>2012-08-02T09:56:08Z</time>
</trkpt>
<trkpt lat="59.56433774437755" lon="16.665328284725547">
<ele>65.25747</ele>
<time>2012-08-02T09:56:17Z</time>
</trkpt>
<trkpt lat="59.564305557869375" lon="16.665695244446397">
<ele>65.83459</ele>
<time>2012-08-02T09:56:25Z</time>
</trkpt>
<trkpt lat="59.5642947871238" lon="16.66605608537793">
<ele>66.424164</ele>
<time>2012-08-02T09:56:32Z</time>
</trkpt>
<trkpt lat="59.564150450751185" lon="16.666350876912475">
<ele>67.368515</ele>
<time>2012-08-02T09:56:39Z</time>
</trkpt>
<trkpt lat="59.5639501651749" lon="16.66646746918559">
<ele>68.01317</ele>
<time>2012-08-02T09:56:45Z</time>
</trkpt>
<trkpt lat="59.563776617869735" lon="16.666657906025648">
<ele>68.30026</ele>
<time>2012-08-02T09:56:49Z</time>
</trkpt>
<trkpt lat="59.56365218851715" lon="16.666951943188906">
<ele>68.80165</ele>
<time>2012-08-02T09:56:53Z</time>
</trkpt>
<trkpt lat="59.563501020893455" lon="16.667206333950162">
<ele>69.46005</ele>
<time>2012-08-02T09:56:58Z</time>
</trkpt>
<trkpt lat="59.56331867258996" lon="16.66718772612512">
<ele>69.38771</ele>
<time>2012-08-02T09:57:04Z</time>
</trkpt>
<trkpt lat="59.563140934333205" lon="16.667049257084727">
<ele>69.51164</ele>
<time>2012-08-02T09:57:09Z</time>
</trkpt>
<trkpt lat="59.56295271869749" lon="16.667000222951174">
<ele>69.032196</ele>
<time>2012-08-02T09:57:13Z</time>
</trkpt>
<trkpt lat="59.56276018638164" lon="16.66708990931511">
<ele>68.68546</ele>
<time>2012-08-02T09:57:18Z</time>
</trkpt>
<trkpt lat="59.56255223136395" lon="16.667068200185895">
<ele>68.39785</ele>
<time>2012-08-02T09:57:24Z</time>
</trkpt>
<trkpt lat="59.5623441087082" lon="16.667180433869362">
<ele>67.76502</ele>
<time>2012-08-02T09:57:29Z</time>
</trkpt>
<trkpt lat="59.56217860803008" lon="16.66731806471944">
<ele>67.49089</ele>
<time>2012-08-02T09:57:33Z</time>
</trkpt>
<trkpt lat="59.56200254615396" lon="16.66749215684831">
<ele>67.77609</ele>
<time>2012-08-02T09:57:39Z</time>
</trkpt>
<trkpt lat="59.56193298237654" lon="16.667126594522447">
<ele>67.77473</ele>
<time>2012-08-02T09:58:09Z</time>
</trkpt>
<trkpt lat="59.561897820002365" lon="16.666773795044474">
<ele>67.95903</ele>
<time>2012-08-02T09:58:16Z</time>
</trkpt>
<trkpt lat="59.56188388700498" lon="16.666403958685404">
<ele>67.45509</ele>
<time>2012-08-02T09:58:21Z</time>
</trkpt>
<trkpt lat="59.561897343323" lon="16.666051181807358">
<ele>67.26585</ele>
<time>2012-08-02T09:58:25Z</time>
</trkpt>
<trkpt lat="59.56178418495879" lon="16.66569233829173">
<ele>66.82081</ele>
<time>2012-08-02T09:58:29Z</time>
</trkpt>
<trkpt lat="59.56161287073727" lon="16.66545463834889">
<ele>66.50853</ele>
<time>2012-08-02T09:58:33Z</time>
</trkpt>
<trkpt lat="59.561451373227385" lon="16.665292205579988">
<ele>66.59019</ele>
<time>2012-08-02T09:58:37Z</time>
</trkpt>
<trkpt lat="59.56123726178648" lon="16.665384476602664">
<ele>65.898926</ele>
<time>2012-08-02T09:58:42Z</time>
</trkpt>
<trkpt lat="59.56105254041056" lon="16.665663132345884">
<ele>63.4252</ele>
<time>2012-08-02T09:58:47Z</time>
</trkpt>
<trkpt lat="59.56090052035524" lon="16.665887095563242">
<ele>63.226246</ele>
<time>2012-08-02T09:58:50Z</time>
</trkpt>
<trkpt lat="59.560734608852286" lon="16.66611636735502">
<ele>63.938755</ele>
<time>2012-08-02T09:58:54Z</time>
</trkpt>
<trkpt lat="59.56056703647904" lon="16.666443928727517">
<ele>64.534935</ele>
<time>2012-08-02T09:58:58Z</time>
</trkpt>
<trkpt lat="59.560438509339264" lon="16.666808079760045">
<ele>65.66613</ele>
<time>2012-08-02T09:59:02Z</time>
</trkpt>
<trkpt lat="59.56029986639052" lon="16.667131834278504">
<ele>66.26038</ele>
<time>2012-08-02T09:59:06Z</time>
</trkpt>
<trkpt lat="59.56020118003096" lon="16.66750643653774">
<ele>66.01597</ele>
<time>2012-08-02T09:59:10Z</time>
</trkpt>
<trkpt lat="59.56008451525122" lon="16.66783849708736">
<ele>65.93486</ele>
<time>2012-08-02T09:59:13Z</time>
</trkpt>
<trkpt lat="59.559975801967084" lon="16.668212413787842">
<ele>65.37408</ele>
<time>2012-08-02T09:59:16Z</time>
</trkpt>
<trkpt lat="59.55984617583454" lon="16.66861650533974">
<ele>64.09062</ele>
<time>2012-08-02T09:59:19Z</time>
</trkpt>
<trkpt lat="59.55982329323888" lon="16.668971059843898">
<ele>63.38925</ele>
<time>2012-08-02T09:59:25Z</time>
</trkpt>
<trkpt lat="59.55976244062185" lon="16.669334080070257">
<ele>64.798225</ele>
<time>2012-08-02T09:59:31Z</time>
</trkpt>
<trkpt lat="59.559636670164764" lon="16.669626776129007">
<ele>65.823524</ele>
<time>2012-08-02T09:59:37Z</time>
</trkpt>
<trkpt lat="59.55946953501552" lon="16.66988393291831">
<ele>65.9297</ele>
<time>2012-08-02T09:59:42Z</time>
</trkpt>
<trkpt lat="59.55930252559483" lon="16.67006322182715">
<ele>65.52854</ele>
<time>2012-08-02T09:59:46Z</time>
</trkpt>
<trkpt lat="59.55912839155644" lon="16.67032272554934">
<ele>65.09497</ele>
<time>2012-08-02T09:59:50Z</time>
</trkpt>
<trkpt lat="59.55896615982056" lon="16.67050352320075">
<ele>64.95412</ele>
<time>2012-08-02T09:59:53Z</time>
</trkpt>
<trkpt lat="59.55878230277449" lon="16.670614331960678">
<ele>64.94784</ele>
<time>2012-08-02T09:59:56Z</time>
</trkpt>
<trkpt lat="59.55858897417784" lon="16.670699156820774">
<ele>64.66862</ele>
<time>2012-08-02T09:59:59Z</time>
</trkpt>
<trkpt lat="59.558552890084684" lon="16.671076426282525">
<ele>59.9365</ele>
<time>2012-08-02T10:00:04Z</time>
</trkpt>
<trkpt lat="59.558605696074665" lon="16.671417905017734">
<ele>54.583267</ele>
<time>2012-08-02T10:00:09Z</time>
</trkpt>
<trkpt lat="59.55861826892942" lon="16.67186968959868">
<ele>50.237503</ele>
<time>2012-08-02T10:00:16Z</time>
</trkpt>
<trkpt lat="59.55859329085797" lon="16.67222206480801">
<ele>50.168945</ele>
<time>2012-08-02T10:00:19Z</time>
</trkpt>
<trkpt lat="59.55858260393143" lon="16.672605285421014">
<ele>50.10408</ele>
<time>2012-08-02T10:00:22Z</time>
</trkpt>
<trkpt lat="59.558585663326085" lon="16.67299009859562">
<ele>49.967354</ele>
<time>2012-08-02T10:00:25Z</time>
</trkpt>
<trkpt lat="59.558581598103046" lon="16.67336686514318">
<ele>50.2581</ele>
<time>2012-08-02T10:00:28Z</time>
</trkpt>
<trkpt lat="59.55857799388468" lon="16.673754947260022">
<ele>50.387012</ele>
<time>2012-08-02T10:00:31Z</time>
</trkpt>
<trkpt lat="59.55857346765697" lon="16.674143951386213">
<ele>50.1164</ele>
<time>2012-08-02T10:00:34Z</time>
</trkpt>
<trkpt lat="59.55857070162892" lon="16.67452985420823">
<ele>49.691296</ele>
<time>2012-08-02T10:00:37Z</time>
</trkpt>
<trkpt lat="59.55856215208769" lon="16.674896981567144">
<ele>49.243202</ele>
<time>2012-08-02T10:00:40Z</time>
</trkpt>
<trkpt lat="59.55844799056649" lon="16.675255810841918">
<ele>49.342182</ele>
<time>2012-08-02T10:00:44Z</time>
</trkpt>
<trkpt lat="59.55827310215682" lon="16.6755676176399">
<ele>48.97896</ele>
<time>2012-08-02T10:00:48Z</time>
</trkpt>
<trkpt lat="59.55814800225198" lon="16.675827875733376">
<ele>48.520813</ele>
<time>2012-08-02T10:00:51Z</time>
</trkpt>
<trkpt lat="59.55808388069272" lon="16.67626298032701">
<ele>48.32885</ele>
<time>2012-08-02T10:00:55Z</time>
</trkpt>
<trkpt lat="59.55805676523596" lon="16.67666656896472">
<ele>48.26303</ele>
<time>2012-08-02T10:00:59Z</time>
</trkpt>
<trkpt lat="59.557997421361506" lon="16.677051465958357">
<ele>48.170322</ele>
<time>2012-08-02T10:01:03Z</time>
</trkpt>
<trkpt lat="59.557893234305084" lon="16.677402751520276">
<ele>47.995686</ele>
<time>2012-08-02T10:01:07Z</time>
</trkpt>
<trkpt lat="59.557707156054676" lon="16.677582962438464">
<ele>47.721283</ele>
<time>2012-08-02T10:01:11Z</time>
</trkpt>
<trkpt lat="59.55750615801662" lon="16.6776570584625">
<ele>47.87431</ele>
<time>2012-08-02T10:01:15Z</time>
</trkpt>
<trkpt lat="59.55730566289276" lon="16.67763208039105">
<ele>48.23445</ele>
<time>2012-08-02T10:01:19Z</time>
</trkpt>
<trkpt lat="59.557089493609965" lon="16.67761255055666">
<ele>48.733547</ele>
<time>2012-08-02T10:01:23Z</time>
</trkpt>
<trkpt lat="59.556907983496785" lon="16.677685976028442">
<ele>48.898525</ele>
<time>2012-08-02T10:01:26Z</time>
</trkpt>
<trkpt lat="59.556729197502136" lon="16.677738362923265">
<ele>49.02282</ele>
<time>2012-08-02T10:01:29Z</time>
</trkpt>
<trkpt lat="59.556551040150225" lon="16.67781287804246">
<ele>48.81432</ele>
<time>2012-08-02T10:01:32Z</time>
</trkpt>
<trkpt lat="59.55631718505174" lon="16.677889404818416">
<ele>48.487343</ele>
<time>2012-08-02T10:01:36Z</time>
</trkpt>
<trkpt lat="59.556098291650414" lon="16.67803575284779">
<ele>48.213966</ele>
<time>2012-08-02T10:01:40Z</time>
</trkpt>
<trkpt lat="59.55595303326845" lon="16.678311517462134">
<ele>48.106754</ele>
<time>2012-08-02T10:01:44Z</time>
</trkpt>
<trkpt lat="59.555867621675134" lon="16.678629694506526">
<ele>48.23027</ele>
<time>2012-08-02T10:01:48Z</time>
</trkpt>
<trkpt lat="59.55576242879033" lon="16.678926749154925">
<ele>48.28654</ele>
<time>2012-08-02T10:01:52Z</time>
</trkpt>
<trkpt lat="59.555667168460786" lon="16.679252050817013">
<ele>48.295734</ele>
<time>2012-08-02T10:01:56Z</time>
</trkpt>
<trkpt lat="59.55559810157865" lon="16.67962177656591">
<ele>48.638508</ele>
<time>2012-08-02T10:02:00Z</time>
</trkpt>
<trkpt lat="59.55557341687381" lon="16.68000541627407">
<ele>48.943825</ele>
<time>2012-08-02T10:02:04Z</time>
</trkpt>
<trkpt lat="59.55549378879368" lon="16.680351588875055">
<ele>49.27167</ele>
<time>2012-08-02T10:02:08Z</time>
</trkpt>
<trkpt lat="59.55534094478935" lon="16.68063866905868">
<ele>49.562515</ele>
<time>2012-08-02T10:02:12Z</time>
</trkpt>
<trkpt lat="59.555184873752296" lon="16.68095475062728">
<ele>49.583847</ele>
<time>2012-08-02T10:02:16Z</time>
</trkpt>
<trkpt lat="59.555059941485524" lon="16.68121919967234">
<ele>49.28225</ele>
<time>2012-08-02T10:02:19Z</time>
</trkpt>
<trkpt lat="59.55492096953094" lon="16.681492868810892">
<ele>48.97377</ele>
<time>2012-08-02T10:02:22Z</time>
</trkpt>
<trkpt lat="59.55477910581976" lon="16.681757401674986">
<ele>48.952995</ele>
<time>2012-08-02T10:02:25Z</time>
</trkpt>
<trkpt lat="59.55463669728488" lon="16.682003242895007">
<ele>49.16455</ele>
<time>2012-08-02T10:02:28Z</time>
</trkpt>
<trkpt lat="59.55445376224816" lon="16.6822902392596">
<ele>49.75129</ele>
<time>2012-08-02T10:02:32Z</time>
</trkpt>
<trkpt lat="59.55427061766386" lon="16.682575475424528">
<ele>50.33576</ele>
<time>2012-08-02T10:02:36Z</time>
</trkpt>
<trkpt lat="59.554126490838826" lon="16.682796087116003">
<ele>50.27134</ele>
<time>2012-08-02T10:02:39Z</time>
</trkpt>
<trkpt lat="59.55398936290294" lon="16.683057183399796">
<ele>50.009777</ele>
<time>2012-08-02T10:02:42Z</time>
</trkpt>
<trkpt lat="59.553863760083914" lon="16.683370750397444">
<ele>49.54475</ele>
<time>2012-08-02T10:02:45Z</time>
</trkpt>
<trkpt lat="59.553740420378745" lon="16.68369102291763">
<ele>49.064182</ele>
<time>2012-08-02T10:02:48Z</time>
</trkpt>
<trkpt lat="59.55361205153167" lon="16.683987909927964">
<ele>48.82082</ele>
<time>2012-08-02T10:02:51Z</time>
</trkpt>
<trkpt lat="59.553426685743034" lon="16.684280773624778">
<ele>49.121834</ele>
<time>2012-08-02T10:02:55Z</time>
</trkpt>
<trkpt lat="59.5533377956599" lon="16.68459509499371">
<ele>49.41234</ele>
<time>2012-08-02T10:02:58Z</time>
</trkpt>
<trkpt lat="59.55327547620982" lon="16.684927940368652">
<ele>50.26614</ele>
<time>2012-08-02T10:03:01Z</time>
</trkpt>
<trkpt lat="59.5531961414963" lon="16.68526246212423">
<ele>50.82791</ele>
<time>2012-08-02T10:03:04Z</time>
</trkpt>
<trkpt lat="59.55307380761951" lon="16.685665464028716">
<ele>51.58423</ele>
<time>2012-08-02T10:03:08Z</time>
</trkpt>
<trkpt lat="59.552920209243894" lon="16.685873921960592">
<ele>52.182407</ele>
<time>2012-08-02T10:03:11Z</time>
</trkpt>
<trkpt lat="59.5527687901631" lon="16.686092019081116">
<ele>52.703514</ele>
<time>2012-08-02T10:03:14Z</time>
</trkpt>
<trkpt lat="59.55261133611202" lon="16.686295364052057">
<ele>52.83118</ele>
<time>2012-08-02T10:03:17Z</time>
</trkpt>
<trkpt lat="59.55244491342455" lon="16.686478340998292">
<ele>52.530334</ele>
<time>2012-08-02T10:03:20Z</time>
</trkpt>
<trkpt lat="59.552318095229566" lon="16.68677246198058">
<ele>52.031548</ele>
<time>2012-08-02T10:03:23Z</time>
</trkpt>
<trkpt lat="59.55218733754009" lon="16.687124837189913">
<ele>52.010372</ele>
<time>2012-08-02T10:03:27Z</time>
</trkpt>
<trkpt lat="59.552097651176155" lon="16.687468914315104">
<ele>52.096634</ele>
<time>2012-08-02T10:03:31Z</time>
</trkpt>
<trkpt lat="59.552059094421566" lon="16.687814500182867">
<ele>52.64034</ele>
<time>2012-08-02T10:03:35Z</time>
</trkpt>
<trkpt lat="59.55202766228467" lon="16.688181962817907">
<ele>53.523827</ele>
<time>2012-08-02T10:03:40Z</time>
</trkpt>
<trkpt lat="59.55202083103359" lon="16.688551101833582">
<ele>55.099762</ele>
<time>2012-08-02T10:03:47Z</time>
</trkpt>
<trkpt lat="59.55196903087199" lon="16.68894438073039">
<ele>55.74996</ele>
<time>2012-08-02T10:03:53Z</time>
</trkpt>
<trkpt lat="59.5519103994593" lon="16.68932986445725">
<ele>56.89322</ele>
<time>2012-08-02T10:03:59Z</time>
</trkpt>
<trkpt lat="59.55186249688268" lon="16.689715515822172">
<ele>57.733326</ele>
<time>2012-08-02T10:04:06Z</time>
</trkpt>
<trkpt lat="59.55174439586699" lon="16.69006923213601">
<ele>57.971703</ele>
<time>2012-08-02T10:04:12Z</time>
</trkpt>
<trkpt lat="59.551599053665996" lon="16.69035404920578">
<ele>57.63743</ele>
<time>2012-08-02T10:04:17Z</time>
</trkpt>
<trkpt lat="59.55150006338954" lon="16.690660323947668">
<ele>57.642086</ele>
<time>2012-08-02T10:04:22Z</time>
</trkpt>
<trkpt lat="59.55137873534113" lon="16.69101563282311">
<ele>57.600323</ele>
<time>2012-08-02T10:04:29Z</time>
</trkpt>
<trkpt lat="59.551403084769845" lon="16.69139340519905">
<ele>57.436417</ele>
<time>2012-08-02T10:04:34Z</time>
</trkpt>
<trkpt lat="59.55130954273045" lon="16.691744104027748">
<ele>57.556816</ele>
<time>2012-08-02T10:04:41Z</time>
</trkpt>
<trkpt lat="59.55116164404899" lon="16.69197083450854">
<ele>58.024097</ele>
<time>2012-08-02T10:04:48Z</time>
</trkpt>
<trkpt lat="59.55104023218155" lon="16.69229295104742">
<ele>58.933094</ele>
<time>2012-08-02T10:04:54Z</time>
</trkpt>
<trkpt lat="59.55088340677321" lon="16.692606350407004">
<ele>59.044464</ele>
<time>2012-08-02T10:05:00Z</time>
</trkpt>
<trkpt lat="59.550721636042" lon="16.69286409392953">
<ele>58.48828</ele>
<time>2012-08-02T10:05:04Z</time>
</trkpt>
<trkpt lat="59.55062662716955" lon="16.69320515356958">
<ele>58.073193</ele>
<time>2012-08-02T10:05:09Z</time>
</trkpt>
<trkpt lat="59.55051556695253" lon="16.693516708910465">
<ele>58.46903</ele>
<time>2012-08-02T10:05:14Z</time>
</trkpt>
<trkpt lat="59.55038128886372" lon="16.693782918155193">
<ele>57.995445</ele>
<time>2012-08-02T10:05:20Z</time>
</trkpt>
<trkpt lat="59.55041963607073" lon="16.69422053731978">
<ele>57.373924</ele>
<time>2012-08-02T10:05:25Z</time>
</trkpt>
<trkpt lat="59.55045978538692" lon="16.694603003561497">
<ele>57.00573</ele>
<time>2012-08-02T10:05:30Z</time>
</trkpt>
<trkpt lat="59.550445661880076" lon="16.694964515045285">
<ele>57.519382</ele>
<time>2012-08-02T10:05:36Z</time>
</trkpt>
<trkpt lat="59.55038296524435" lon="16.695313453674316">
<ele>58.164608</ele>
<time>2012-08-02T10:05:42Z</time>
</trkpt>
<trkpt lat="59.55027450341731" lon="16.695683766156435">
<ele>59.484936</ele>
<time>2012-08-02T10:05:48Z</time>
</trkpt>
<trkpt lat="59.55008808989078" lon="16.695778481662273">
<ele>62.399933</ele>
<time>2012-08-02T10:06:09Z</time>
</trkpt>
<trkpt lat="59.54994258005172" lon="16.695559211075306">
<ele>64.232315</ele>
<time>2012-08-02T10:06:17Z</time>
</trkpt>
<trkpt lat="59.549798956140876" lon="16.69530632905662">
<ele>64.10877</ele>
<time>2012-08-02T10:06:25Z</time>
</trkpt>
<trkpt lat="59.549681902863085" lon="16.69502721168101">
<ele>62.95775</ele>
<time>2012-08-02T10:06:32Z</time>
</trkpt>
<trkpt lat="59.54955093562603" lon="16.694754045456648">
<ele>62.35093</ele>
<time>2012-08-02T10:06:39Z</time>
</trkpt>
<trkpt lat="59.549423614516854" lon="16.694500660523772">
<ele>61.603973</ele>
<time>2012-08-02T10:06:46Z</time>
</trkpt>
<trkpt lat="59.549302915111184" lon="16.69419664889574">
<ele>61.08291</ele>
<time>2012-08-02T10:06:53Z</time>
</trkpt>
<trkpt lat="59.54919428564608" lon="16.69389959424734">
<ele>60.943893</ele>
<time>2012-08-02T10:07:00Z</time>
</trkpt>
<trkpt lat="59.54900602810085" lon="16.693857768550515">
<ele>60.380825</ele>
<time>2012-08-02T10:07:10Z</time>
</trkpt>
<trkpt lat="59.54889044165611" lon="16.694167982786894">
<ele>61.89523</ele>
<time>2012-08-02T10:07:19Z</time>
</trkpt>
<trkpt lat="59.548858129419386" lon="16.69455229304731">
<ele>62.3593</ele>
<time>2012-08-02T10:07:27Z</time>
</trkpt>
<trkpt lat="59.54882133286446" lon="16.694909697398543">
<ele>63.016518</ele>
<time>2012-08-02T10:07:33Z</time>
</trkpt>
<trkpt lat="59.54873965121806" lon="16.69529953971505">
<ele>62.579723</ele>
<time>2012-08-02T10:07:39Z</time>
</trkpt>
<trkpt lat="59.548646989278495" lon="16.695618806406856">
<ele>62.891674</ele>
<time>2012-08-02T10:07:44Z</time>
</trkpt>
<trkpt lat="59.548547035083175" lon="16.69594494625926">
<ele>63.46746</ele>
<time>2012-08-02T10:07:49Z</time>
</trkpt>
<trkpt lat="59.54842424020171" lon="16.69626454822719">
<ele>64.64375</ele>
<time>2012-08-02T10:07:54Z</time>
</trkpt>
<trkpt lat="59.54828480724245" lon="16.69657082296908">
<ele>65.660774</ele>
<time>2012-08-02T10:07:59Z</time>
</trkpt>
<trkpt lat="59.548133136704564" lon="16.696868296712637">
<ele>67.72507</ele>
<time>2012-08-02T10:08:04Z</time>
</trkpt>
<trkpt lat="59.54798213671893" lon="16.69720122590661">
<ele>69.529495</ele>
<time>2012-08-02T10:08:09Z</time>
</trkpt>
<trkpt lat="59.54789006151259" lon="16.697562569752336">
<ele>70.37027</ele>
<time>2012-08-02T10:08:13Z</time>
</trkpt>
<trkpt lat="59.54783256165683" lon="16.697972947731614">
<ele>70.3324</ele>
<time>2012-08-02T10:08:17Z</time>
</trkpt>
<trkpt lat="59.547778498381376" lon="16.69837586581707">
<ele>70.50595</ele>
<time>2012-08-02T10:08:21Z</time>
</trkpt>
<trkpt lat="59.54767485614866" lon="16.698749028146267">
<ele>71.14015</ele>
<time>2012-08-02T10:08:25Z</time>
</trkpt>
<trkpt lat="59.54756153281778" lon="16.699123615399003">
<ele>71.363884</ele>
<time>2012-08-02T10:08:29Z</time>
</trkpt>
<trkpt lat="59.54751815646887" lon="16.699528796598315">
<ele>71.174904</ele>
<time>2012-08-02T10:08:33Z</time>
</trkpt>
<trkpt lat="59.54741220921278" lon="16.699816463515162">
<ele>70.60448</ele>
<time>2012-08-02T10:08:40Z</time>
</trkpt>
<trkpt lat="59.54725840128958" lon="16.700095497071743">
<ele>71.152824</ele>
<time>2012-08-02T10:08:47Z</time>
</trkpt>
<trkpt lat="59.547102372162044" lon="16.700353659689426">
<ele>71.3058</ele>
<time>2012-08-02T10:08:52Z</time>
</trkpt>
<trkpt lat="59.54696277156472" lon="16.70062498189509">
<ele>71.32645</ele>
<time>2012-08-02T10:08:56Z</time>
</trkpt>
<trkpt lat="59.54682711046189" lon="16.700886832550168">
<ele>71.45994</ele>
<time>2012-08-02T10:09:00Z</time>
</trkpt>
<trkpt lat="59.54671755898744" lon="16.70118598267436">
<ele>72.02833</ele>
<time>2012-08-02T10:09:04Z</time>
</trkpt>
<trkpt lat="59.54660201445222" lon="16.70148991048336">
<ele>72.5699</ele>
<time>2012-08-02T10:09:08Z</time>
</trkpt>
<trkpt lat="59.5465293289801" lon="16.70113303252202">
<ele>73.45589</ele>
<time>2012-08-02T10:09:40Z</time>
</trkpt>
<trkpt lat="59.54653596977509" lon="16.700726558669892">
<ele>74.05904</ele>
<time>2012-08-02T10:09:51Z</time>
</trkpt>
<trkpt lat="59.546494621689206" lon="16.700363967966812">
<ele>75.15575</ele>
<time>2012-08-02T10:10:01Z</time>
</trkpt>
<trkpt lat="59.54648567948283" lon="16.699961152849717">
<ele>77.024994</ele>
<time>2012-08-02T10:10:51Z</time>
</trkpt>
<trkpt lat="59.54635363555215" lon="16.699668679081906">
<ele>79.49798</ele>
<time>2012-08-02T10:10:56Z</time>
</trkpt>
<trkpt lat="59.54615539431935" lon="16.699576009429776">
<ele>80.08137</ele>
<time>2012-08-02T10:11:00Z</time>
</trkpt>
<trkpt lat="59.545961261928454" lon="16.699508376698">
<ele>80.816765</ele>
<time>2012-08-02T10:11:05Z</time>
</trkpt>
<trkpt lat="59.54575955615225" lon="16.699391861290213">
<ele>81.34048</ele>
<time>2012-08-02T10:11:11Z</time>
</trkpt>
<trkpt lat="59.54558615319019" lon="16.699246309155438">
<ele>82.160675</ele>
<time>2012-08-02T10:11:20Z</time>
</trkpt>
<trkpt lat="59.54545050729414" lon="16.698966408560118">
<ele>83.63788</ele>
<time>2012-08-02T10:11:27Z</time>
</trkpt>
<trkpt lat="59.54536060451778" lon="16.69860501988102">
<ele>85.88968</ele>
<time>2012-08-02T10:11:35Z</time>
</trkpt>
<trkpt lat="59.54522399551601" lon="16.698286981675352">
<ele>86.72518</ele>
<time>2012-08-02T10:11:41Z</time>
</trkpt>
<trkpt lat="59.54510671926797" lon="16.698005326964335">
<ele>87.23466</ele>
<time>2012-08-02T10:11:47Z</time>
</trkpt>
<trkpt lat="59.54511161705421" lon="16.697644051898294">
<ele>88.50226</ele>
<time>2012-08-02T10:11:58Z</time>
</trkpt>
<trkpt lat="59.54511376966219" lon="16.697250418419138">
<ele>87.32137</ele>
<time>2012-08-02T10:12:05Z</time>
</trkpt>
<trkpt lat="59.54510907353609" lon="16.69686844445392">
<ele>88.063156</ele>
<time>2012-08-02T10:12:11Z</time>
</trkpt>
<trkpt lat="59.544984153111635" lon="16.696563779079288">
<ele>88.69405</ele>
<time>2012-08-02T10:12:15Z</time>
</trkpt>
<trkpt lat="59.54482273729903" lon="16.696315264303735">
<ele>89.27337</ele>
<time>2012-08-02T10:12:19Z</time>
</trkpt>
<trkpt lat="59.54464361453591" lon="16.69617921768057">
<ele>89.60362</ele>
<time>2012-08-02T10:12:23Z</time>
</trkpt>
<trkpt lat="59.544469552913604" lon="16.696055065169986">
<ele>89.19265</ele>
<time>2012-08-02T10:12:31Z</time>
</trkpt>
<trkpt lat="59.54430484568264" lon="16.69587678873299">
<ele>88.74637</ele>
<time>2012-08-02T10:12:41Z</time>
</trkpt>
<trkpt lat="59.54413660221058" lon="16.695662837313336">
<ele>90.01447</ele>
<time>2012-08-02T10:12:47Z</time>
</trkpt>
<trkpt lat="59.54395206820089" lon="16.695592400219066">
<ele>90.10406</ele>
<time>2012-08-02T10:12:51Z</time>
</trkpt>
<trkpt lat="59.543753477733574" lon="16.69553530086281">
<ele>89.99336</ele>
<time>2012-08-02T10:12:56Z</time>
</trkpt>
<trkpt lat="59.54373306230863" lon="16.695100484204325">
<ele>90.31265</ele>
<time>2012-08-02T10:13:08Z</time>
</trkpt>
<trkpt lat="59.54375520067472" lon="16.694708754392742">
<ele>91.207695</ele>
<time>2012-08-02T10:13:15Z</time>
</trkpt>
<trkpt lat="59.54372779330167" lon="16.69433207477126">
<ele>91.273865</ele>
<time>2012-08-02T10:13:21Z</time>
</trkpt>
<trkpt lat="59.54367072191493" lon="16.693961221414515">
<ele>90.652985</ele>
<time>2012-08-02T10:13:28Z</time>
</trkpt>
<trkpt lat="59.54362562933171" lon="16.69358735001946">
<ele>90.87384</ele>
<time>2012-08-02T10:13:37Z</time>
</trkpt>
<trkpt lat="59.54371514395209" lon="16.69320313792056">
<ele>90.39493</ele>
<time>2012-08-02T10:13:46Z</time>
</trkpt>
<trkpt lat="59.54376799631885" lon="16.692849513864793">
<ele>90.0918</ele>
<time>2012-08-02T10:13:54Z</time>
</trkpt>
<trkpt lat="59.54380488831592" lon="16.69245475604197">
<ele>89.5676</ele>
<time>2012-08-02T10:14:00Z</time>
</trkpt>
<trkpt lat="59.54387157168767" lon="16.69210097397092">
<ele>88.96264</ele>
<time>2012-08-02T10:14:07Z</time>
</trkpt>
<trkpt lat="59.5439925920041" lon="16.69181086353201">
<ele>87.88366</ele>
<time>2012-08-02T10:14:12Z</time>
</trkpt>
<trkpt lat="59.544091071078185" lon="16.691505362394633">
<ele>86.18379</ele>
<time>2012-08-02T10:14:17Z</time>
</trkpt>
<trkpt lat="59.54416016279689" lon="16.691153827493366">
<ele>84.32769</ele>
<time>2012-08-02T10:14:24Z</time>
</trkpt>
<trkpt lat="59.544273609075645" lon="16.690817191166534">
<ele>82.20352</ele>
<time>2012-08-02T10:14:30Z</time>
</trkpt>
<trkpt lat="59.54437556547037" lon="16.690517997094958">
<ele>81.25302</ele>
<time>2012-08-02T10:14:34Z</time>
</trkpt>
<trkpt lat="59.54448873680191" lon="16.690185090272404">
<ele>80.244156</ele>
<time>2012-08-02T10:14:39Z</time>
</trkpt>
<trkpt lat="59.54454650241342" lon="16.689833631963207">
<ele>80.127495</ele>
<time>2012-08-02T10:14:45Z</time>
</trkpt>
<trkpt lat="59.54457570648634" lon="16.689458935508565">
<ele>79.33221</ele>
<time>2012-08-02T10:14:52Z</time>
</trkpt>
<trkpt lat="59.54467987641692" lon="16.689082430675626">
<ele>79.27645</ele>
<time>2012-08-02T10:16:41Z</time>
</trkpt>
<trkpt lat="59.54468415118754" lon="16.688712453469634">
<ele>79.68301</ele>
<time>2012-08-02T10:16:47Z</time>
</trkpt>
<trkpt lat="59.54465887974948" lon="16.688336776569486">
<ele>78.64575</ele>
<time>2012-08-02T10:16:54Z</time>
</trkpt>
<trkpt lat="59.544745003804564" lon="16.687973253428936">
<ele>77.21157</ele>
<time>2012-08-02T10:17:03Z</time>
</trkpt>
<trkpt lat="59.54482295550406" lon="16.687571424990892">
<ele>76.91833</ele>
<time>2012-08-02T10:17:09Z</time>
</trkpt>
<trkpt lat="59.54485644120723" lon="16.68719499371946">
<ele>76.328285</ele>
<time>2012-08-02T10:17:15Z</time>
</trkpt>
<trkpt lat="59.54488517090861" lon="16.686842034841366">
<ele>75.1072</ele>
<time>2012-08-02T10:17:25Z</time>
</trkpt>
<trkpt lat="59.54486836536172" lon="16.686452124573425">
<ele>73.95396</ele>
<time>2012-08-02T10:17:30Z</time>
</trkpt>
<trkpt lat="59.544886234865814" lon="16.686053509077567">
<ele>73.19966</ele>
<time>2012-08-02T10:17:37Z</time>
</trkpt>
<trkpt lat="59.54482861676562" lon="16.685707627456978">
<ele>72.85224</ele>
<time>2012-08-02T10:17:46Z</time>
</trkpt>
<trkpt lat="59.54473597592324" lon="16.685395085474916">
<ele>72.23404</ele>
<time>2012-08-02T10:17:55Z</time>
</trkpt>
<trkpt lat="59.544598694874516" lon="16.685136740532297">
<ele>72.16862</ele>
<time>2012-08-02T10:18:02Z</time>
</trkpt>
<trkpt lat="59.54447369669887" lon="16.68481032640433">
<ele>71.25046</ele>
<time>2012-08-02T10:18:10Z</time>
</trkpt>
<trkpt lat="59.54435544868174" lon="16.68452580748492">
<ele>71.33874</ele>
<time>2012-08-02T10:18:16Z</time>
</trkpt>
<trkpt lat="59.54426434356719" lon="16.684182034805417">
<ele>72.32315</ele>
<time>2012-08-02T10:18:21Z</time>
</trkpt>
<trkpt lat="59.54426182899624" lon="16.683774003759027">
<ele>71.835335</ele>
<time>2012-08-02T10:18:28Z</time>
</trkpt>
<trkpt lat="59.54441748093814" lon="16.683526569977403">
<ele>69.80066</ele>
<time>2012-08-02T10:18:39Z</time>
</trkpt>
<trkpt lat="59.54457719810307" lon="16.68336412869394">
<ele>69.627266</ele>
<time>2012-08-02T10:18:45Z</time>
</trkpt>
<trkpt lat="59.544756528921425" lon="16.683467980474234">
<ele>59.59979</ele>
<time>2012-08-02T10:19:05Z</time>
</trkpt>
<trkpt lat="59.54491197131574" lon="16.683723125606775">
<ele>56.623688</ele>
<time>2012-08-02T10:19:13Z</time>
</trkpt>
<trkpt lat="59.54508132766932" lon="16.683921860530972">
<ele>55.103424</ele>
<time>2012-08-02T10:19:19Z</time>
</trkpt>
<trkpt lat="59.545285468921065" lon="16.683912724256516">
<ele>54.63257</ele>
<time>2012-08-02T10:19:25Z</time>
</trkpt>
<trkpt lat="59.545465763658285" lon="16.68386301957071">
<ele>55.80208</ele>
<time>2012-08-02T10:19:34Z</time>
</trkpt>
<trkpt lat="59.5456523867324" lon="16.68385924771428">
<ele>55.802578</ele>
<time>2012-08-02T10:19:41Z</time>
</trkpt>
<trkpt lat="59.54583452548832" lon="16.683858996257186">
<ele>54.82262</ele>
<time>2012-08-02T10:19:49Z</time>
</trkpt>
<trkpt lat="59.54603191930801" lon="16.683873161673546">
<ele>53.621777</ele>
<time>2012-08-02T10:19:55Z</time>
</trkpt>
<trkpt lat="59.54622005112469" lon="16.683857906609774">
<ele>52.97928</ele>
<time>2012-08-02T10:20:00Z</time>
</trkpt>
<trkpt lat="59.546409230679274" lon="16.6837321780622">
<ele>52.382927</ele>
<time>2012-08-02T10:20:07Z</time>
</trkpt>
<trkpt lat="59.546586466021836" lon="16.683585746213794">
<ele>52.78266</ele>
<time>2012-08-02T10:20:14Z</time>
</trkpt>
<trkpt lat="59.54676583874971" lon="16.683445684611797">
<ele>54.20075</ele>
<time>2012-08-02T10:20:21Z</time>
</trkpt>
<trkpt lat="59.546962855383754" lon="16.683487510308623">
<ele>54.745773</ele>
<time>2012-08-02T10:20:28Z</time>
</trkpt>
<trkpt lat="59.547146880067885" lon="16.683432776480913">
<ele>55.31275</ele>
<time>2012-08-02T10:20:35Z</time>
</trkpt>
<trkpt lat="59.547346201725304" lon="16.68332221917808">
<ele>55.934494</ele>
<time>2012-08-02T10:20:41Z</time>
</trkpt>
<trkpt lat="59.547552270814776" lon="16.6832572594285">
<ele>56.461006</ele>
<time>2012-08-02T10:20:48Z</time>
</trkpt>
<trkpt lat="59.54772301018238" lon="16.68303539045155">
<ele>56.376434</ele>
<time>2012-08-02T10:20:54Z</time>
</trkpt>
<trkpt lat="59.547896976582706" lon="16.682932544499636">
<ele>57.436214</ele>
<time>2012-08-02T10:21:00Z</time>
</trkpt>
<trkpt lat="59.54809311311692" lon="16.682847887277603">
<ele>58.9582</ele>
<time>2012-08-02T10:21:07Z</time>
</trkpt>
<trkpt lat="59.54832793213427" lon="16.682955091819167">
<ele>58.343117</ele>
<time>2012-08-02T10:21:13Z</time>
</trkpt>
<trkpt lat="59.548533372581005" lon="16.683040922507644">
<ele>58.015213</ele>
<time>2012-08-02T10:21:17Z</time>
</trkpt>
<trkpt lat="59.548751511611044" lon="16.683074366301298">
<ele>57.87568</ele>
<time>2012-08-02T10:21:22Z</time>
</trkpt>
<trkpt lat="59.548944337293506" lon="16.683212835341692">
<ele>57.731277</ele>
<time>2012-08-02T10:21:28Z</time>
</trkpt>
<trkpt lat="59.54912538640201" lon="16.68334417976439">
<ele>57.440132</ele>
<time>2012-08-02T10:21:33Z</time>
</trkpt>
<trkpt lat="59.549298053607345" lon="16.68344392441213">
<ele>57.130135</ele>
<time>2012-08-02T10:21:38Z</time>
</trkpt>
<trkpt lat="59.5494599500671" lon="16.683606449514627">
<ele>56.699375</ele>
<time>2012-08-02T10:21:44Z</time>
</trkpt>
<trkpt lat="59.54964359756559" lon="16.683709044009447">
<ele>56.92671</ele>
<time>2012-08-02T10:21:49Z</time>
</trkpt>
<trkpt lat="59.54982879571617" lon="16.683802166953683">
<ele>58.24842</ele>
<time>2012-08-02T10:21:54Z</time>
</trkpt>
<trkpt lat="59.54999350011349" lon="16.683988412842155">
<ele>58.49811</ele>
<time>2012-08-02T10:21:59Z</time>
</trkpt>
<trkpt lat="59.55018972046673" lon="16.68413526378572">
<ele>57.597847</ele>
<time>2012-08-02T10:22:03Z</time>
</trkpt>
<trkpt lat="59.55035195220262" lon="16.68393694795668">
<ele>57.373924</ele>
<time>2012-08-02T10:22:07Z</time>
</trkpt>
<trkpt lat="59.5505308220163" lon="16.683671660721302">
<ele>57.441753</ele>
<time>2012-08-02T10:22:11Z</time>
</trkpt>
<trkpt lat="59.55070055555552" lon="16.683407379314303">
<ele>57.638218</ele>
<time>2012-08-02T10:22:15Z</time>
</trkpt>
<trkpt lat="59.5508640864864" lon="16.683125076815486">
<ele>56.671078</ele>
<time>2012-08-02T10:22:19Z</time>
</trkpt>
<trkpt lat="59.55102082807571" lon="16.68284964747727">
<ele>55.671707</ele>
<time>2012-08-02T10:22:23Z</time>
</trkpt>
<trkpt lat="59.55117337871343" lon="16.68261470273137">
<ele>54.916435</ele>
<time>2012-08-02T10:22:27Z</time>
</trkpt>
<trkpt lat="59.55132748000324" lon="16.682398449629545">
<ele>55.360607</ele>
<time>2012-08-02T10:22:33Z</time>
</trkpt>
<trkpt lat="59.55136985052377" lon="16.682020174339414">
<ele>50.10862</ele>
<time>2012-08-02T10:23:22Z</time>
</trkpt>
<trkpt lat="59.55132697708905" lon="16.68166235089302">
<ele>50.563084</ele>
<time>2012-08-02T10:23:27Z</time>
</trkpt>
<trkpt lat="59.55127203371376" lon="16.681290697306395">
<ele>51.298874</ele>
<time>2012-08-02T10:23:31Z</time>
</trkpt>
<trkpt lat="59.551201541908085" lon="16.68094150722027">
<ele>51.480778</ele>
<time>2012-08-02T10:23:34Z</time>
</trkpt>
<trkpt lat="59.5511566568166" lon="16.68049206957221">
<ele>51.25524</ele>
<time>2012-08-02T10:23:38Z</time>
</trkpt>
<trkpt lat="59.55109077505767" lon="16.680122762918472">
<ele>51.437366</ele>
<time>2012-08-02T10:23:41Z</time>
</trkpt>
<trkpt lat="59.551023175008595" lon="16.67974985204637">
<ele>51.70014</ele>
<time>2012-08-02T10:23:44Z</time>
</trkpt>
<trkpt lat="59.550956287421286" lon="16.67936034500599">
<ele>52.660995</ele>
<time>2012-08-02T10:23:47Z</time>
</trkpt>
<trkpt lat="59.55087167210877" lon="16.679018698632717">
<ele>53.51479</ele>
<time>2012-08-02T10:23:50Z</time>
</trkpt>
<trkpt lat="59.55081237014383" lon="16.678649056702852">
<ele>54.29687</ele>
<time>2012-08-02T10:23:53Z</time>
</trkpt>
<trkpt lat="59.55081199295819" lon="16.678211269900203">
<ele>55.138844</ele>
<time>2012-08-02T10:23:57Z</time>
</trkpt>
<trkpt lat="59.55096077173948" lon="16.677935253828764">
<ele>55.116577</ele>
<time>2012-08-02T10:24:01Z</time>
</trkpt>
<trkpt lat="59.551146011799574" lon="16.677866773679852">
<ele>56.053864</ele>
<time>2012-08-02T10:24:04Z</time>
</trkpt>
<trkpt lat="59.5513596246019" lon="16.677800975739956">
<ele>58.017044</ele>
<time>2012-08-02T10:24:08Z</time>
</trkpt>
<trkpt lat="59.55155936535448" lon="16.677617579698563">
<ele>59.138203</ele>
<time>2012-08-02T10:24:12Z</time>
</trkpt>
<trkpt lat="59.551714388653636" lon="16.67741071432829">
<ele>59.358295</ele>
<time>2012-08-02T10:24:15Z</time>
</trkpt>
<trkpt lat="59.551880937069654" lon="16.67718306183815">
<ele>59.291782</ele>
<time>2012-08-02T10:24:18Z</time>
</trkpt>
<trkpt lat="59.55208017490804" lon="16.677051298320293">
<ele>59.71217</ele>
<time>2012-08-02T10:24:21Z</time>
</trkpt>
<trkpt lat="59.5522550214082" lon="16.67681124061346">
<ele>60.667637</ele>
<time>2012-08-02T10:24:24Z</time>
</trkpt>
<trkpt lat="59.552373751066625" lon="16.67654008604586">
<ele>61.366707</ele>
<time>2012-08-02T10:24:28Z</time>
</trkpt>
<trkpt lat="59.55255635082722" lon="16.67672574520111">
<ele>55.706093</ele>
<time>2012-08-02T10:24:41Z</time>
</trkpt>
<trkpt lat="59.552766401320696" lon="16.676817443221807">
<ele>54.776924</ele>
<time>2012-08-02T10:24:45Z</time>
</trkpt>
<trkpt lat="59.55295989755541" lon="16.676802523434162">
<ele>54.259014</ele>
<time>2012-08-02T10:24:48Z</time>
</trkpt>
<trkpt lat="59.55319769214839" lon="16.676833787932992">
<ele>53.75851</ele>
<time>2012-08-02T10:24:52Z</time>
</trkpt>
<trkpt lat="59.55342852976173" lon="16.67680193670094">
<ele>53.35094</ele>
<time>2012-08-02T10:24:56Z</time>
</trkpt>
<trkpt lat="59.55360467545688" lon="16.6766710113734">
<ele>53.5837</ele>
<time>2012-08-02T10:25:00Z</time>
</trkpt>
<trkpt lat="59.553817617706954" lon="16.676578391343355">
<ele>53.687424</ele>
<time>2012-08-02T10:25:04Z</time>
</trkpt>
<trkpt lat="59.5539992954582" lon="16.676735719665885">
<ele>53.39291</ele>
<time>2012-08-02T10:25:09Z</time>
</trkpt>
<trkpt lat="59.554209765046835" lon="16.676738737151027">
<ele>52.97045</ele>
<time>2012-08-02T10:25:12Z</time>
</trkpt>
<trkpt lat="59.55439710058272" lon="16.67665483430028">
<ele>52.800037</ele>
<time>2012-08-02T10:25:15Z</time>
</trkpt>
<trkpt lat="59.55460287630558" lon="16.676533045247197">
<ele>52.875004</ele>
<time>2012-08-02T10:25:18Z</time>
</trkpt>
<trkpt lat="59.55479226540774" lon="16.676331209018826">
<ele>53.569145</ele>
<time>2012-08-02T10:25:21Z</time>
</trkpt>
<trkpt lat="59.55496627371758" lon="16.676233308389783">
<ele>54.082302</ele>
<time>2012-08-02T10:25:24Z</time>
</trkpt>
<trkpt lat="59.55515629146248" lon="16.676221154630184">
<ele>54.299496</ele>
<time>2012-08-02T10:25:28Z</time>
</trkpt>
<trkpt lat="59.55521136056632" lon="16.675850842148066">
<ele>54.256092</ele>
<time>2012-08-02T10:25:32Z</time>
</trkpt>
<trkpt lat="59.55519669223577" lon="16.67549285106361">
<ele>54.122097</ele>
<time>2012-08-02T10:25:35Z</time>
</trkpt>
<trkpt lat="59.55519032198936" lon="16.675131507217884">
<ele>54.05151</ele>
<time>2012-08-02T10:25:38Z</time>
</trkpt>
<trkpt lat="59.555161613970995" lon="16.67467050254345">
<ele>53.841286</ele>
<time>2012-08-02T10:25:42Z</time>
</trkpt>
<trkpt lat="59.55513382796198" lon="16.674240762367845">
<ele>53.451733</ele>
<time>2012-08-02T10:25:46Z</time>
</trkpt>
<trkpt lat="59.555104952305555" lon="16.67383700609207">
<ele>52.563644</ele>
<time>2012-08-02T10:25:50Z</time>
</trkpt>
<trkpt lat="59.55509560648352" lon="16.67341774329543">
<ele>51.84436</ele>
<time>2012-08-02T10:25:54Z</time>
</trkpt>
<trkpt lat="59.555064593441784" lon="16.672968389466405">
<ele>52.313263</ele>
<time>2012-08-02T10:25:58Z</time>
</trkpt>
<trkpt lat="59.55504468642175" lon="16.672539990395308">
<ele>52.079582</ele>
<time>2012-08-02T10:26:02Z</time>
</trkpt>
<trkpt lat="59.55504673998803" lon="16.672137659043074">
<ele>51.31854</ele>
<time>2012-08-02T10:26:06Z</time>
</trkpt>
<trkpt lat="59.55506182741374" lon="16.671746894717216">
<ele>50.657036</ele>
<time>2012-08-02T10:26:10Z</time>
</trkpt>
<trkpt lat="59.55508030951023" lon="16.671342300251126">
<ele>49.727036</ele>
<time>2012-08-02T10:26:14Z</time>
</trkpt>
<trkpt lat="59.55509942024946" lon="16.670948769897223">
<ele>49.002296</ele>
<time>2012-08-02T10:26:18Z</time>
</trkpt>
<trkpt lat="59.55512200947851" lon="16.670523807406425">
<ele>48.875942</ele>
<time>2012-08-02T10:26:23Z</time>
</trkpt>
<trkpt lat="59.55516341608018" lon="16.670141089707613">
<ele>48.639263</ele>
<time>2012-08-02T10:26:27Z</time>
</trkpt>
<trkpt lat="59.55519740469754" lon="16.66978075169027">
<ele>48.204075</ele>
<time>2012-08-02T10:26:30Z</time>
</trkpt>
<trkpt lat="59.55518504139036" lon="16.669388730078936">
<ele>47.942333</ele>
<time>2012-08-02T10:26:33Z</time>
</trkpt>
<trkpt lat="59.55511601641774" lon="16.668983045965433">
<ele>47.897533</ele>
<time>2012-08-02T10:26:36Z</time>
</trkpt>
<trkpt lat="59.555000136606395" lon="16.668595299124718">
<ele>48.028637</ele>
<time>2012-08-02T10:26:39Z</time>
</trkpt>
<trkpt lat="59.55489272251725" lon="16.668222388252616">
<ele>48.044888</ele>
<time>2012-08-02T10:26:42Z</time>
</trkpt>
<trkpt lat="59.554813178256154" lon="16.667871102690697">
<ele>47.845505</ele>
<time>2012-08-02T10:26:45Z</time>
</trkpt>
<trkpt lat="59.554771268740296" lon="16.667519146576524">
<ele>47.595757</ele>
<time>2012-08-02T10:26:48Z</time>
</trkpt>
<trkpt lat="59.55474637448788" lon="16.66707876138389">
<ele>47.368576</ele>
<time>2012-08-02T10:26:52Z</time>
</trkpt>
<trkpt lat="59.55485680606216" lon="16.666716495528817">
<ele>46.921314</ele>
<time>2012-08-02T10:26:56Z</time>
</trkpt>
<trkpt lat="59.554959149099886" lon="16.666305866092443">
<ele>45.889168</ele>
<time>2012-08-02T10:27:00Z</time>
</trkpt>
<trkpt lat="59.55503215547651" lon="16.6659661475569">
<ele>45.056374</ele>
<time>2012-08-02T10:27:03Z</time>
</trkpt>
<trkpt lat="59.55510017462075" lon="16.665624920278788">
<ele>44.506588</ele>
<time>2012-08-02T10:27:06Z</time>
</trkpt>
<trkpt lat="59.5551640028134" lon="16.66523113846779">
<ele>44.35912</ele>
<time>2012-08-02T10:27:10Z</time>
</trkpt>
<trkpt lat="59.55523118376732" lon="16.664869626984">
<ele>44.342125</ele>
<time>2012-08-02T10:27:13Z</time>
</trkpt>
<trkpt lat="59.555313158780336" lon="16.66447333060205">
<ele>44.40513</ele>
<time>2012-08-02T10:27:17Z</time>
</trkpt>
<trkpt lat="59.55540066584945" lon="16.66411709971726">
<ele>44.98873</ele>
<time>2012-08-02T10:27:21Z</time>
</trkpt>
<trkpt lat="59.555475558154285" lon="16.663719546049833">
<ele>45.77651</ele>
<time>2012-08-02T10:27:24Z</time>
</trkpt>
<trkpt lat="59.55546834971756" lon="16.663303887471557">
<ele>46.108837</ele>
<time>2012-08-02T10:27:27Z</time>
</trkpt>
<trkpt lat="59.555430547334254" lon="16.662916559726">
<ele>46.219345</ele>
<time>2012-08-02T10:27:30Z</time>
</trkpt>
<trkpt lat="59.55539991147816" lon="16.66251833550632">
<ele>46.6519</ele>
<time>2012-08-02T10:27:33Z</time>
</trkpt>
<trkpt lat="59.5553556131199" lon="16.66213628835976">
<ele>47.692215</ele>
<time>2012-08-02T10:27:36Z</time>
</trkpt>
<trkpt lat="59.55531248822808" lon="16.661766227334738">
<ele>48.701405</ele>
<time>2012-08-02T10:27:39Z</time>
</trkpt>
<trkpt lat="59.55525293480605" lon="16.66131871752441">
<ele>49.489517</ele>
<time>2012-08-02T10:27:43Z</time>
</trkpt>
<trkpt lat="59.55520637333393" lon="16.660968018695712">
<ele>49.53777</ele>
<time>2012-08-02T10:27:46Z</time>
</trkpt>
<trkpt lat="59.555105371400714" lon="16.6605765838176">
<ele>49.742794</ele>
<time>2012-08-02T10:27:50Z</time>
</trkpt>
<trkpt lat="59.55492549575865" lon="16.660511707887053">
<ele>49.449314</ele>
<time>2012-08-02T10:27:53Z</time>
</trkpt>
<trkpt lat="59.55474482383579" lon="16.660544564947486">
<ele>48.347363</ele>
<time>2012-08-02T10:27:56Z</time>
</trkpt>
<trkpt lat="59.554564780555665" lon="16.660609440878034">
<ele>47.782482</ele>
<time>2012-08-02T10:27:59Z</time>
</trkpt>
<trkpt lat="59.554375181905925" lon="16.660726703703403">
<ele>47.93636</ele>
<time>2012-08-02T10:28:02Z</time>
</trkpt>
<trkpt lat="59.554199539124966" lon="16.66083156131208">
<ele>48.44502</ele>
<time>2012-08-02T10:28:05Z</time>
</trkpt>
<trkpt lat="59.55402196850628" lon="16.66094496846199">
<ele>48.45024</ele>
<time>2012-08-02T10:28:08Z</time>
</trkpt>
<trkpt lat="59.553832495585084" lon="16.661086035892367">
<ele>47.777237</ele>
<time>2012-08-02T10:28:12Z</time>
</trkpt>
<trkpt lat="59.553649770095944" lon="16.661151498556137">
<ele>45.972145</ele>
<time>2012-08-02T10:28:17Z</time>
</trkpt>
<trkpt lat="59.55386778339743" lon="16.660612290725116">
<ele>39.950012</ele>
<time>2012-08-02T10:33:59Z</time>
</trkpt>
<trkpt lat="59.55382231304915" lon="16.661026422153856">
<ele>30.475471</ele>
<time>2012-08-02T10:34:33Z</time>
</trkpt>
<trkpt lat="59.55366484150318" lon="16.660810035868423">
<ele>43.249985</ele>
<time>2012-08-02T11:19:41Z</time>
</trkpt>
<trkpt lat="59.5538687473163" lon="16.660755537450314">
<ele>38.881256</ele>
<time>2012-08-02T11:27:08Z</time>
</trkpt>
<trkpt lat="59.55403466708958" lon="16.66089895181358">
<ele>38.87054</ele>
<time>2012-08-02T11:28:39Z</time>
</trkpt>
<trkpt lat="59.554243250750005" lon="16.660883193835616">
<ele>36.903614</ele>
<time>2012-08-02T11:29:06Z</time>
</trkpt>
<trkpt lat="59.55447006504983" lon="16.660792250186205">
<ele>37.118046</ele>
<time>2012-08-02T11:29:11Z</time>
</trkpt>
<trkpt lat="59.55466641113162" lon="16.66069082915783">
<ele>37.30883</ele>
<time>2012-08-02T11:29:15Z</time>
</trkpt>
<trkpt lat="59.55486803781241" lon="16.660598292946815">
<ele>37.652794</ele>
<time>2012-08-02T11:29:19Z</time>
</trkpt>
<trkpt lat="59.55506455153227" lon="16.660622349008918">
<ele>37.97295</ele>
<time>2012-08-02T11:29:23Z</time>
</trkpt>
<trkpt lat="59.55525331199169" lon="16.66055168956518">
<ele>37.37765</ele>
<time>2012-08-02T11:29:26Z</time>
</trkpt>
<trkpt lat="59.555433061905205" lon="16.660470301285386">
<ele>36.490574</ele>
<time>2012-08-02T11:29:29Z</time>
</trkpt>
<trkpt lat="59.555617296136916" lon="16.66037080809474">
<ele>35.67884</ele>
<time>2012-08-02T11:29:32Z</time>
</trkpt>
<trkpt lat="59.555804673582315" lon="16.660246588289738">
<ele>34.97545</ele>
<time>2012-08-02T11:29:35Z</time>
</trkpt>
<trkpt lat="59.555997205898166" lon="16.66011130437255">
<ele>34.375572</ele>
<time>2012-08-02T11:29:38Z</time>
</trkpt>
<trkpt lat="59.556185589171946" lon="16.659950204193592">
<ele>33.872517</ele>
<time>2012-08-02T11:29:41Z</time>
</trkpt>
<trkpt lat="59.55634103156626" lon="16.659730011597276">
<ele>33.439957</ele>
<time>2012-08-02T11:29:44Z</time>
</trkpt>
<trkpt lat="59.55631668213755" lon="16.65927864611149">
<ele>33.529045</ele>
<time>2012-08-02T11:29:48Z</time>
</trkpt>
<trkpt lat="59.55624828580767" lon="16.658883187919855">
<ele>33.72945</ele>
<time>2012-08-02T11:29:51Z</time>
</trkpt>
<trkpt lat="59.55618047621101" lon="16.658489992842078">
<ele>33.9296</ele>
<time>2012-08-02T11:29:54Z</time>
</trkpt>
<trkpt lat="59.55611601937562" lon="16.658125715330243">
<ele>34.09686</ele>
<time>2012-08-02T11:29:57Z</time>
</trkpt>
<trkpt lat="59.556055082939565" lon="16.657753475010395">
<ele>34.386894</ele>
<time>2012-08-02T11:30:01Z</time>
</trkpt>
<trkpt lat="59.555993978865445" lon="16.657408643513918">
<ele>34.575306</ele>
<time>2012-08-02T11:30:09Z</time>
</trkpt>
<trkpt lat="59.556025536730886" lon="16.65775758214295">
<ele>32.239853</ele>
<time>2012-08-02T11:30:28Z</time>
</trkpt>
<trkpt lat="59.55608035437763" lon="16.65812311694026">
<ele>32.328114</ele>
<time>2012-08-02T11:30:33Z</time>
</trkpt>
<trkpt lat="59.55614535603672" lon="16.658524023368955">
<ele>32.798756</ele>
<time>2012-08-02T11:30:38Z</time>
</trkpt>
<trkpt lat="59.55620993860066" lon="16.658919733017683">
<ele>33.274708</ele>
<time>2012-08-02T11:30:43Z</time>
</trkpt>
<trkpt lat="59.556276868097484" lon="16.659294152632356">
<ele>33.95171</ele>
<time>2012-08-02T11:30:48Z</time>
</trkpt>
<trkpt lat="59.5563287101686" lon="16.659641498699784">
<ele>34.80416</ele>
<time>2012-08-02T11:30:53Z</time>
</trkpt>
<trkpt lat="59.55618244595826" lon="16.659902511164546">
<ele>35.29354</ele>
<time>2012-08-02T11:30:59Z</time>
</trkpt>
<trkpt lat="59.55599871464074" lon="16.660044752061367">
<ele>35.588108</ele>
<time>2012-08-02T11:31:04Z</time>
</trkpt>
<trkpt lat="59.555815109051764" lon="16.660172743722796">
<ele>35.944637</ele>
<time>2012-08-02T11:31:09Z</time>
</trkpt>
<trkpt lat="59.555626516230404" lon="16.66027802042663">
<ele>36.207867</ele>
<time>2012-08-02T11:31:14Z</time>
</trkpt>
<trkpt lat="59.555448442697525" lon="16.66036209091544">
<ele>36.734394</ele>
<time>2012-08-02T11:31:19Z</time>
</trkpt>
<trkpt lat="59.55526181962341" lon="16.660460913553834">
<ele>37.046047</ele>
<time>2012-08-02T11:31:24Z</time>
</trkpt>
<trkpt lat="59.55507180187851" lon="16.66048027575016">
<ele>37.28532</ele>
<time>2012-08-02T11:31:30Z</time>
</trkpt>
<trkpt lat="59.55526332836598" lon="16.66060147807002">
<ele>37.960033</ele>
<time>2012-08-02T11:32:03Z</time>
</trkpt>
<trkpt lat="59.55544806551188" lon="16.660534171387553">
<ele>37.836567</ele>
<time>2012-08-02T11:32:07Z</time>
</trkpt>
<trkpt lat="59.55567793920636" lon="16.66038690134883">
<ele>37.83618</ele>
<time>2012-08-02T11:32:11Z</time>
</trkpt>
<trkpt lat="59.55586535856128" lon="16.660250024870038">
<ele>37.57308</ele>
<time>2012-08-02T11:32:14Z</time>
</trkpt>
<trkpt lat="59.556059525348246" lon="16.66009579785168">
<ele>37.249577</ele>
<time>2012-08-02T11:32:17Z</time>
</trkpt>
<trkpt lat="59.556244388222694" lon="16.6599290817976">
<ele>36.8131</ele>
<time>2012-08-02T11:32:20Z</time>
</trkpt>
<trkpt lat="59.55635398160666" lon="16.65964124724269">
<ele>36.333656</ele>
<time>2012-08-02T11:32:23Z</time>
</trkpt>
<trkpt lat="59.556307923048735" lon="16.659294487908483">
<ele>36.068897</ele>
<time>2012-08-02T11:32:26Z</time>
</trkpt>
<trkpt lat="59.556250046007335" lon="16.65892392396927">
<ele>35.71813</ele>
<time>2012-08-02T11:32:29Z</time>
</trkpt>
<trkpt lat="59.55618827138096" lon="16.6585526894778">
<ele>35.34983</ele>
<time>2012-08-02T11:32:32Z</time>
</trkpt>
<trkpt lat="59.55612771213055" lon="16.658168295398355">
<ele>35.12884</ele>
<time>2012-08-02T11:32:35Z</time>
</trkpt>
<trkpt lat="59.55606053117663" lon="16.657776022329926">
<ele>34.971546</ele>
<time>2012-08-02T11:32:38Z</time>
</trkpt>
<trkpt lat="59.55598869826645" lon="16.657382659614086">
<ele>34.78486</ele>
<time>2012-08-02T11:32:41Z</time>
</trkpt>
<trkpt lat="59.55592482816428" lon="16.65698317810893">
<ele>34.702984</ele>
<time>2012-08-02T11:32:44Z</time>
</trkpt>
<trkpt lat="59.555862047709525" lon="16.656585289165378">
<ele>34.643433</ele>
<time>2012-08-02T11:32:47Z</time>
</trkpt>
<trkpt lat="59.555801739916205" lon="16.656189998611808">
<ele>34.49176</ele>
<time>2012-08-02T11:32:50Z</time>
</trkpt>
<trkpt lat="59.55574139021337" lon="16.655794456601143">
<ele>34.279327</ele>
<time>2012-08-02T11:32:53Z</time>
</trkpt>
<trkpt lat="59.5556864887476" lon="16.65540738031268">
<ele>34.219406</ele>
<time>2012-08-02T11:32:56Z</time>
</trkpt>
<trkpt lat="59.55568171106279" lon="16.65503203868866">
<ele>34.16443</ele>
<time>2012-08-02T11:32:59Z</time>
</trkpt>
<trkpt lat="59.55572370439768" lon="16.654669186100364">
<ele>34.195927</ele>
<time>2012-08-02T11:33:02Z</time>
</trkpt>
<trkpt lat="59.555698139593005" lon="16.654301723465323">
<ele>34.440468</ele>
<time>2012-08-02T11:33:05Z</time>
</trkpt>
<trkpt lat="59.55563871189952" lon="16.653934344649315">
<ele>34.69208</ele>
<time>2012-08-02T11:33:08Z</time>
</trkpt>
<trkpt lat="59.555576727725565" lon="16.653553554788232">
<ele>34.79823</ele>
<time>2012-08-02T11:33:11Z</time>
</trkpt>
<trkpt lat="59.55551453400403" lon="16.653159353882074">
<ele>34.813313</ele>
<time>2012-08-02T11:33:14Z</time>
</trkpt>
<trkpt lat="59.5554531365633" lon="16.652758615091443">
<ele>34.849377</ele>
<time>2012-08-02T11:33:17Z</time>
</trkpt>
<trkpt lat="59.55538842827082" lon="16.652360474690795">
<ele>34.87866</ele>
<time>2012-08-02T11:33:20Z</time>
</trkpt>
<trkpt lat="59.55532807856798" lon="16.6519717220217">
<ele>35.086315</ele>
<time>2012-08-02T11:33:23Z</time>
</trkpt>
<trkpt lat="59.555373257026076" lon="16.651559248566628">
<ele>35.470673</ele>
<time>2012-08-02T11:33:27Z</time>
</trkpt>
<trkpt lat="59.555554264225066" lon="16.651443243026733">
<ele>35.84544</ele>
<time>2012-08-02T11:33:30Z</time>
</trkpt>
<trkpt lat="59.55574910156429" lon="16.651338636875153">
<ele>36.166058</ele>
<time>2012-08-02T11:33:33Z</time>
</trkpt>
<trkpt lat="59.55594351980835" lon="16.651217099279165">
<ele>36.199745</ele>
<time>2012-08-02T11:33:36Z</time>
</trkpt>
<trkpt lat="59.556136135943234" lon="16.6510927118361">
<ele>36.13114</ele>
<time>2012-08-02T11:33:39Z</time>
</trkpt>
<trkpt lat="59.55630658194423" lon="16.65090076625347">
<ele>35.986576</ele>
<time>2012-08-02T11:33:42Z</time>
</trkpt>
<trkpt lat="59.55639924388379" lon="16.65055677294731">
<ele>35.834965</ele>
<time>2012-08-02T11:33:45Z</time>
</trkpt>
<trkpt lat="59.55649249255657" lon="16.650197189301252">
<ele>35.655373</ele>
<time>2012-08-02T11:33:48Z</time>
</trkpt>
<trkpt lat="59.556581382639706" lon="16.649813381955028">
<ele>35.279617</ele>
<time>2012-08-02T11:33:51Z</time>
</trkpt>
<trkpt lat="59.55667383503169" lon="16.649425635114312">
<ele>34.77421</ele>
<time>2012-08-02T11:33:54Z</time>
</trkpt>
<trkpt lat="59.55677186138928" lon="16.64904140867293">
<ele>34.489124</ele>
<time>2012-08-02T11:33:57Z</time>
</trkpt>
<trkpt lat="59.556883801706135" lon="16.64868861436844">
<ele>34.20322</ele>
<time>2012-08-02T11:34:00Z</time>
</trkpt>
<trkpt lat="59.55707155633718" lon="16.64844931103289">
<ele>33.868538</ele>
<time>2012-08-02T11:34:03Z</time>
</trkpt>
<trkpt lat="59.55728257074952" lon="16.648283265531063">
<ele>33.52892</ele>
<time>2012-08-02T11:34:06Z</time>
</trkpt>
<trkpt lat="59.55749484244734" lon="16.648148149251938">
<ele>33.32001</ele>
<time>2012-08-02T11:34:09Z</time>
</trkpt>
<trkpt lat="59.55769747495651" lon="16.64801102131605">
<ele>33.250637</ele>
<time>2012-08-02T11:34:12Z</time>
</trkpt>
<trkpt lat="59.55789277330041" lon="16.64783449843526">
<ele>33.22137</ele>
<time>2012-08-02T11:34:15Z</time>
</trkpt>
<trkpt lat="59.55809377133846" lon="16.64766845293343">
<ele>33.057446</ele>
<time>2012-08-02T11:34:18Z</time>
</trkpt>
<trkpt lat="59.55829774495214" lon="16.647509364411235">
<ele>32.796104</ele>
<time>2012-08-02T11:34:21Z</time>
</trkpt>
<trkpt lat="59.558502598665655" lon="16.647368716076016">
<ele>32.465546</ele>
<time>2012-08-02T11:34:24Z</time>
</trkpt>
<trkpt lat="59.55870074685663" lon="16.647246340289712">
<ele>32.141712</ele>
<time>2012-08-02T11:34:27Z</time>
</trkpt>
<trkpt lat="59.55885476432741" lon="16.647447925060987">
<ele>32.262802</ele>
<time>2012-08-02T11:34:31Z</time>
</trkpt>
<trkpt lat="59.5588999427855" lon="16.6477944329381">
<ele>32.743683</ele>
<time>2012-08-02T11:34:34Z</time>
</trkpt>
<trkpt lat="59.55895329359919" lon="16.64815125055611">
<ele>32.754356</ele>
<time>2012-08-02T11:34:37Z</time>
</trkpt>
<trkpt lat="59.55900861416012" lon="16.648511420935392">
<ele>32.53856</ele>
<time>2012-08-02T11:34:40Z</time>
</trkpt>
<trkpt lat="59.55918903462589" lon="16.64880646392703">
<ele>32.010635</ele>
<time>2012-08-02T11:34:44Z</time>
</trkpt>
<trkpt lat="59.559394642710686" lon="16.64885382167995">
<ele>31.798231</ele>
<time>2012-08-02T11:34:47Z</time>
</trkpt>
<trkpt lat="59.559609135612845" lon="16.64889346808195">
<ele>31.74145</ele>
<time>2012-08-02T11:34:50Z</time>
</trkpt>
<trkpt lat="59.559824424795806" lon="16.648930432274938">
<ele>31.692484</ele>
<time>2012-08-02T11:34:53Z</time>
</trkpt>
<trkpt lat="59.5600432343781" lon="16.648965049535036">
<ele>31.595263</ele>
<time>2012-08-02T11:34:56Z</time>
</trkpt>
<trkpt lat="59.5602684142068" lon="16.64900293573737">
<ele>31.438625</ele>
<time>2012-08-02T11:34:59Z</time>
</trkpt>
<trkpt lat="59.560494809411466" lon="16.649044174700975">
<ele>31.231916</ele>
<time>2012-08-02T11:35:02Z</time>
</trkpt>
<trkpt lat="59.560716887935996" lon="16.649084743112326">
<ele>31.072845</ele>
<time>2012-08-02T11:35:05Z</time>
</trkpt>
<trkpt lat="59.560936745256186" lon="16.64912313222885">
<ele>30.929167</ele>
<time>2012-08-02T11:35:08Z</time>
</trkpt>
<trkpt lat="59.56116163171828" lon="16.649162359535694">
<ele>30.840425</ele>
<time>2012-08-02T11:35:11Z</time>
</trkpt>
<trkpt lat="59.56139171496034" lon="16.64919982664287">
<ele>30.792053</ele>
<time>2012-08-02T11:35:14Z</time>
</trkpt>
<trkpt lat="59.5616241870448" lon="16.649234779179096">
<ele>30.554462</ele>
<time>2012-08-02T11:35:17Z</time>
</trkpt>
<trkpt lat="59.5618562400341" lon="16.649273335933685">
<ele>30.338596</ele>
<time>2012-08-02T11:35:20Z</time>
</trkpt>
<trkpt lat="59.56209189724177" lon="16.649309881031513">
<ele>30.17565</ele>
<time>2012-08-02T11:35:23Z</time>
</trkpt>
<trkpt lat="59.562324956059456" lon="16.64934827014804">
<ele>30.030363</ele>
<time>2012-08-02T11:35:26Z</time>
</trkpt>
<trkpt lat="59.56255516503006" lon="16.649386575445533">
<ele>29.930002</ele>
<time>2012-08-02T11:35:29Z</time>
</trkpt>
<trkpt lat="59.562782691791654" lon="16.649426808580756">
<ele>29.937666</ele>
<time>2012-08-02T11:35:32Z</time>
</trkpt>
<trkpt lat="59.56301155965775" lon="16.6494641918689">
<ele>29.973701</ele>
<time>2012-08-02T11:35:35Z</time>
</trkpt>
<trkpt lat="59.5632387092337" lon="16.649499144405127">
<ele>30.071712</ele>
<time>2012-08-02T11:35:38Z</time>
</trkpt>
<trkpt lat="59.56346514634788" lon="16.649512639269233">
<ele>30.088053</ele>
<time>2012-08-02T11:35:41Z</time>
</trkpt>
<trkpt lat="59.56369296647608" lon="16.649499479681253">
<ele>30.094946</ele>
<time>2012-08-02T11:35:44Z</time>
</trkpt>
<trkpt lat="59.563921792432666" lon="16.649487409740686">
<ele>30.072859</ele>
<time>2012-08-02T11:35:47Z</time>
</trkpt>
<trkpt lat="59.564150450751185" lon="16.6494797822088">
<ele>30.041672</ele>
<time>2012-08-02T11:35:50Z</time>
</trkpt>
<trkpt lat="59.564380617812276" lon="16.649470394477248">
<ele>30.03164</ele>
<time>2012-08-02T11:35:53Z</time>
</trkpt>
<trkpt lat="59.56461174879223" lon="16.649456983432174">
<ele>30.046152</ele>
<time>2012-08-02T11:35:56Z</time>
</trkpt>
<trkpt lat="59.56484355032444" lon="16.649446757510304">
<ele>29.90384</ele>
<time>2012-08-02T11:35:59Z</time>
</trkpt>
<trkpt lat="59.565076818689704" lon="16.64943728595972">
<ele>29.8438</ele>
<time>2012-08-02T11:36:02Z</time>
</trkpt>
<trkpt lat="59.565311721526086" lon="16.64942597039044">
<ele>29.774733</ele>
<time>2012-08-02T11:36:05Z</time>
</trkpt>
<trkpt lat="59.5655451156199" lon="16.64941373281181">
<ele>29.731535</ele>
<time>2012-08-02T11:36:08Z</time>
</trkpt>
<trkpt lat="59.5657798089087" lon="16.649401746690273">
<ele>29.655478</ele>
<time>2012-08-02T11:36:11Z</time>
</trkpt>
<trkpt lat="59.56601437646896" lon="16.649391604587436">
<ele>29.681225</ele>
<time>2012-08-02T11:36:14Z</time>
</trkpt>
<trkpt lat="59.56625338643789" lon="16.649379702284932">
<ele>29.678019</ele>
<time>2012-08-02T11:36:17Z</time>
</trkpt>
<trkpt lat="59.56649239640683" lon="16.64936939254403">
<ele>29.690733</ele>
<time>2012-08-02T11:36:20Z</time>
</trkpt>
<trkpt lat="59.56672742497176" lon="16.649364698678255">
<ele>29.764847</ele>
<time>2012-08-02T11:36:23Z</time>
</trkpt>
<trkpt lat="59.56696345936507" lon="16.649360926821828">
<ele>29.86799</ele>
<time>2012-08-02T11:36:26Z</time>
</trkpt>
<trkpt lat="59.567200876772404" lon="16.6493624355644">
<ele>29.94431</ele>
<time>2012-08-02T11:36:29Z</time>
</trkpt>
<trkpt lat="59.5674358215183" lon="16.649355562403798">
<ele>30.034304</ele>
<time>2012-08-02T11:36:32Z</time>
</trkpt>
<trkpt lat="59.56767005380243" lon="16.649340139701962">
<ele>30.097279</ele>
<time>2012-08-02T11:36:35Z</time>
</trkpt>
<trkpt lat="59.567905752919614" lon="16.649318765848875">
<ele>30.20041</ele>
<time>2012-08-02T11:36:38Z</time>
</trkpt>
<trkpt lat="59.56814337987453" lon="16.649311305955052">
<ele>30.257978</ele>
<time>2012-08-02T11:36:41Z</time>
</trkpt>
<trkpt lat="59.56838259939104" lon="16.64930820465088">
<ele>30.1807</ele>
<time>2012-08-02T11:36:44Z</time>
</trkpt>
<trkpt lat="59.56861976534128" lon="16.64930392988026">
<ele>30.101227</ele>
<time>2012-08-02T11:36:47Z</time>
</trkpt>
<trkpt lat="59.56884905230254" lon="16.649338798597455">
<ele>30.07551</ele>
<time>2012-08-02T11:36:50Z</time>
</trkpt>
<trkpt lat="59.56904095597565" lon="16.649570055305958">
<ele>30.13342</ele>
<time>2012-08-02T11:36:53Z</time>
</trkpt>
<trkpt lat="59.56925272475928" lon="16.64970701560378">
<ele>30.153162</ele>
<time>2012-08-02T11:36:56Z</time>
</trkpt>
<trkpt lat="59.56947559956461" lon="16.649609450250864">
<ele>30.331799</ele>
<time>2012-08-02T11:36:59Z</time>
</trkpt>
<trkpt lat="59.56970019266009" lon="16.6494900919497">
<ele>30.588411</ele>
<time>2012-08-02T11:37:02Z</time>
</trkpt>
<trkpt lat="59.56992470193654" lon="16.64937073364854">
<ele>30.793556</ele>
<time>2012-08-02T11:37:05Z</time>
</trkpt>
<trkpt lat="59.570149881765246" lon="16.64925497956574">
<ele>30.956646</ele>
<time>2012-08-02T11:37:08Z</time>
</trkpt>
<trkpt lat="59.57037543877959" lon="16.649134196341038">
<ele>30.99577</ele>
<time>2012-08-02T11:37:11Z</time>
</trkpt>
<trkpt lat="59.57059651147574" lon="16.649016849696636">
<ele>31.081022</ele>
<time>2012-08-02T11:37:14Z</time>
</trkpt>
<trkpt lat="59.57081636879593" lon="16.648905370384455">
<ele>31.149813</ele>
<time>2012-08-02T11:37:17Z</time>
</trkpt>
<trkpt lat="59.57103408873081" lon="16.64878643117845">
<ele>31.167885</ele>
<time>2012-08-02T11:37:20Z</time>
</trkpt>
<trkpt lat="59.571239738725126" lon="16.648682663217187">
<ele>31.089571</ele>
<time>2012-08-02T11:37:23Z</time>
</trkpt>
<trkpt lat="59.571412950754166" lon="16.648581912741065">
<ele>31.037788</ele>
<time>2012-08-02T11:37:26Z</time>
</trkpt>
<trkpt lat="59.571408214978874" lon="16.64812870323658">
<ele>31.80037</ele>
<time>2012-08-02T11:37:31Z</time>
</trkpt>
<trkpt lat="59.57135373260826" lon="16.647751349955797">
<ele>32.472027</ele>
<time>2012-08-02T11:37:34Z</time>
</trkpt>
<trkpt lat="59.57129526883364" lon="16.64735857397318">
<ele>33.01945</ele>
<time>2012-08-02T11:37:37Z</time>
</trkpt>
<trkpt lat="59.57123655360192" lon="16.646954314783216">
<ele>33.272274</ele>
<time>2012-08-02T11:37:40Z</time>
</trkpt>
<trkpt lat="59.5711754495278" lon="16.646539829671383">
<ele>33.34613</ele>
<time>2012-08-02T11:37:43Z</time>
</trkpt>
<trkpt lat="59.57110655028373" lon="16.646129032596946">
<ele>33.37729</ele>
<time>2012-08-02T11:37:46Z</time>
</trkpt>
<trkpt lat="59.571045781485736" lon="16.64569828659296">
<ele>33.390434</ele>
<time>2012-08-02T11:37:49Z</time>
</trkpt>
<trkpt lat="59.57098392304033" lon="16.64526494219899">
<ele>33.294403</ele>
<time>2012-08-02T11:37:52Z</time>
</trkpt>
<trkpt lat="59.57092319615185" lon="16.64483243599534">
<ele>33.182</ele>
<time>2012-08-02T11:37:55Z</time>
</trkpt>
<trkpt lat="59.57086150534451" lon="16.644406551495194">
<ele>33.008034</ele>
<time>2012-08-02T11:37:58Z</time>
</trkpt>
<trkpt lat="59.570803293026984" lon="16.64398561231792">
<ele>32.77839</ele>
<time>2012-08-02T11:38:01Z</time>
</trkpt>
<trkpt lat="59.570743697695434" lon="16.643569702282548">
<ele>32.631504</ele>
<time>2012-08-02T11:38:04Z</time>
</trkpt>
<trkpt lat="59.570685401558876" lon="16.643154378980398">
<ele>32.54767</ele>
<time>2012-08-02T11:38:07Z</time>
</trkpt>
<trkpt lat="59.5706281112507" lon="16.642742408439517">
<ele>32.646667</ele>
<time>2012-08-02T11:38:10Z</time>
</trkpt>
<trkpt lat="59.57056830637157" lon="16.642336724326015">
<ele>32.804066</ele>
<time>2012-08-02T11:38:13Z</time>
</trkpt>
<trkpt lat="59.570512315258384" lon="16.641956437379122">
<ele>33.145473</ele>
<time>2012-08-02T11:38:16Z</time>
</trkpt>
<trkpt lat="59.57060686312616" lon="16.64155771024525">
<ele>33.708916</ele>
<time>2012-08-02T11:38:20Z</time>
</trkpt>
<trkpt lat="59.570822613313794" lon="16.641458217054605">
<ele>34.017826</ele>
<time>2012-08-02T11:38:23Z</time>
</trkpt>
<trkpt lat="59.57104988861829" lon="16.641359897330403">
<ele>34.079388</ele>
<time>2012-08-02T11:38:26Z</time>
</trkpt>
<trkpt lat="59.57128692883998" lon="16.64126392453909">
<ele>34.141293</ele>
<time>2012-08-02T11:38:29Z</time>
</trkpt>
<trkpt lat="59.57152451388538" lon="16.641094693914056">
<ele>34.46429</ele>
<time>2012-08-02T11:38:32Z</time>
</trkpt>
<trkpt lat="59.571723751723766" lon="16.640886487439275">
<ele>35.142742</ele>
<time>2012-08-02T11:38:35Z</time>
</trkpt>
<trkpt lat="59.57192810252309" lon="16.640678197145462">
<ele>35.668026</ele>
<time>2012-08-02T11:38:38Z</time>
</trkpt>
<trkpt lat="59.572131908498704" lon="16.640425566583872">
<ele>35.686512</ele>
<time>2012-08-02T11:38:41Z</time>
</trkpt>
<trkpt lat="59.57227913662791" lon="16.64007805287838">
<ele>35.702133</ele>
<time>2012-08-02T11:38:44Z</time>
</trkpt>
<trkpt lat="59.572412869893014" lon="16.639774795621634">
<ele>35.724335</ele>
<time>2012-08-02T11:38:47Z</time>
</trkpt>
<trkpt lat="59.57261889707297" lon="16.639706399291754">
<ele>36.036827</ele>
<time>2012-08-02T11:38:50Z</time>
</trkpt>
<trkpt lat="59.57285807467997" lon="16.63961092941463">
<ele>36.446793</ele>
<time>2012-08-02T11:38:53Z</time>
</trkpt>
<trkpt lat="59.5730904629454" lon="16.63949064910412">
<ele>36.394737</ele>
<time>2012-08-02T11:38:56Z</time>
</trkpt>
<trkpt lat="59.573308979161084" lon="16.639287723228335">
<ele>35.50715</ele>
<time>2012-08-02T11:38:59Z</time>
</trkpt>
<trkpt lat="59.573493506759405" lon="16.63900257088244">
<ele>34.64676</ele>
<time>2012-08-02T11:39:02Z</time>
</trkpt>
<trkpt lat="59.57362916786224" lon="16.638631084933877">
<ele>33.98692</ele>
<time>2012-08-02T11:39:05Z</time>
</trkpt>
<trkpt lat="59.57371420226991" lon="16.63821634836495">
<ele>33.13667</ele>
<time>2012-08-02T11:39:08Z</time>
</trkpt>
<trkpt lat="59.573874925263226" lon="16.637891298159957">
<ele>33.01707</ele>
<time>2012-08-02T11:39:12Z</time>
</trkpt>
<trkpt lat="59.573979238048196" lon="16.63755971007049">
<ele>32.736897</ele>
<time>2012-08-02T11:39:15Z</time>
</trkpt>
<trkpt lat="59.57401452586055" lon="16.637143548578024">
<ele>32.24213</ele>
<time>2012-08-02T11:39:18Z</time>
</trkpt>
<trkpt lat="59.5740410964936" lon="16.63668950088322">
<ele>31.986517</ele>
<time>2012-08-02T11:39:21Z</time>
</trkpt>
<trkpt lat="59.57406993024051" lon="16.636241069063544">
<ele>31.903688</ele>
<time>2012-08-02T11:39:24Z</time>
</trkpt>
<trkpt lat="59.574099937453866" lon="16.635808227583766">
<ele>31.984362</ele>
<time>2012-08-02T11:39:27Z</time>
</trkpt>
<trkpt lat="59.574130196124315" lon="16.635375134646893">
<ele>31.993402</ele>
<time>2012-08-02T11:39:30Z</time>
</trkpt>
<trkpt lat="59.57415756303817" lon="16.634941874071956">
<ele>32.040955</ele>
<time>2012-08-02T11:39:33Z</time>
</trkpt>
<trkpt lat="59.57418396603316" lon="16.634514648467302">
<ele>32.089146</ele>
<time>2012-08-02T11:39:36Z</time>
</trkpt>
<trkpt lat="59.57421087194234" lon="16.634097564965487">
<ele>32.095406</ele>
<time>2012-08-02T11:39:39Z</time>
</trkpt>
<trkpt lat="59.574236730113626" lon="16.63368626497686">
<ele>32.09805</ele>
<time>2012-08-02T11:39:42Z</time>
</trkpt>
<trkpt lat="59.57426610868424" lon="16.63326515816152">
<ele>32.153862</ele>
<time>2012-08-02T11:39:45Z</time>
</trkpt>
<trkpt lat="59.57429884001613" lon="16.632845560088754">
<ele>32.325848</ele>
<time>2012-08-02T11:39:48Z</time>
</trkpt>
<trkpt lat="59.57437591161579" lon="16.632450437173247">
<ele>32.38279</ele>
<time>2012-08-02T11:39:51Z</time>
</trkpt>
<trkpt lat="59.57447159104049" lon="16.6320626065135">
<ele>32.348988</ele>
<time>2012-08-02T11:39:54Z</time>
</trkpt>
<trkpt lat="59.57456718664616" lon="16.6316878516227">
<ele>32.27692</ele>
<time>2012-08-02T11:39:57Z</time>
</trkpt>
<trkpt lat="59.574665715917945" lon="16.631308905780315">
<ele>32.105892</ele>
<time>2012-08-02T11:40:00Z</time>
</trkpt>
<trkpt lat="59.574764664284885" lon="16.630923505872488">
<ele>31.986874</ele>
<time>2012-08-02T11:40:03Z</time>
</trkpt>
<trkpt lat="59.574865624308586" lon="16.630534334108233">
<ele>31.892899</ele>
<time>2012-08-02T11:40:06Z</time>
</trkpt>
<trkpt lat="59.57496536895633" lon="16.630138708278537">
<ele>31.781385</ele>
<time>2012-08-02T11:40:09Z</time>
</trkpt>
<trkpt lat="59.575068172998726" lon="16.629746267572045">
<ele>31.734343</ele>
<time>2012-08-02T11:40:12Z</time>
</trkpt>
<trkpt lat="59.575170180760324" lon="16.62935600616038">
<ele>31.623857</ele>
<time>2012-08-02T11:40:15Z</time>
</trkpt>
<trkpt lat="59.57526996731758" lon="16.628972114995122">
<ele>31.585056</ele>
<time>2012-08-02T11:40:18Z</time>
</trkpt>
<trkpt lat="59.57537386100739" lon="16.62859140895307">
<ele>31.535883</ele>
<time>2012-08-02T11:40:21Z</time>
</trkpt>
<trkpt lat="59.57547314465046" lon="16.62820533849299">
<ele>31.490145</ele>
<time>2012-08-02T11:40:24Z</time>
</trkpt>
<trkpt lat="59.57557381130755" lon="16.627811389043927">
<ele>31.336472</ele>
<time>2012-08-02T11:40:27Z</time>
</trkpt>
<trkpt lat="59.575671586208045" lon="16.627416601404548">
<ele>31.25758</ele>
<time>2012-08-02T11:40:30Z</time>
</trkpt>
<trkpt lat="59.575783987529576" lon="16.627048887312412">
<ele>31.097733</ele>
<time>2012-08-02T11:40:33Z</time>
</trkpt>
<trkpt lat="59.57596910186112" lon="16.626874040812254">
<ele>30.939667</ele>
<time>2012-08-02T11:40:36Z</time>
</trkpt>
<trkpt lat="59.57616234663874" lon="16.626722496002913">
<ele>30.75735</ele>
<time>2012-08-02T11:40:39Z</time>
</trkpt>
<trkpt lat="59.5762877818197" lon="16.626352770254016">
<ele>30.742947</ele>
<time>2012-08-02T11:40:42Z</time>
</trkpt>
<trkpt lat="59.57639988977462" lon="16.62595672532916">
<ele>30.75718</ele>
<time>2012-08-02T11:40:45Z</time>
</trkpt>
<trkpt lat="59.57651908043772" lon="16.62558540701866">
<ele>30.713179</ele>
<time>2012-08-02T11:40:48Z</time>
</trkpt>
<trkpt lat="59.57665180787444" lon="16.625240994617343">
<ele>30.628988</ele>
<time>2012-08-02T11:40:51Z</time>
</trkpt>
<trkpt lat="59.57678989972919" lon="16.624924074858427">
<ele>30.648159</ele>
<time>2012-08-02T11:40:54Z</time>
</trkpt>
<trkpt lat="59.57698419224471" lon="16.624828185886145">
<ele>30.843756</ele>
<time>2012-08-02T11:40:57Z</time>
</trkpt>
<trkpt lat="59.57717006094754" lon="16.624673791229725">
<ele>31.024708</ele>
<time>2012-08-02T11:41:00Z</time>
</trkpt>
<trkpt lat="59.57732491660863" lon="16.624354775995016">
<ele>31.151049</ele>
<time>2012-08-02T11:41:03Z</time>
</trkpt>
<trkpt lat="59.577487776987255" lon="16.62407599389553">
<ele>31.294989</ele>
<time>2012-08-02T11:41:06Z</time>
</trkpt>
<trkpt lat="59.5776554569602" lon="16.623810874298215">
<ele>31.394766</ele>
<time>2012-08-02T11:41:09Z</time>
</trkpt>
<trkpt lat="59.57779480610043" lon="16.62351105362177">
<ele>31.664978</ele>
<time>2012-08-02T11:41:12Z</time>
</trkpt>
<trkpt lat="59.577775108627975" lon="16.623064801096916">
<ele>33.295563</ele>
<time>2012-08-02T11:41:16Z</time>
</trkpt>
<trkpt lat="59.577718363143504" lon="16.62272877059877">
<ele>34.585617</ele>
<time>2012-08-02T11:41:19Z</time>
</trkpt>
<trkpt lat="59.57768491934985" lon="16.622352255508304">
<ele>34.81693</ele>
<time>2012-08-02T11:41:23Z</time>
</trkpt>
<trkpt lat="59.577843002043664" lon="16.622104234993458">
<ele>34.932697</ele>
<time>2012-08-02T11:41:27Z</time>
</trkpt>
<trkpt lat="59.578024093061686" lon="16.621922682970762">
<ele>35.309105</ele>
<time>2012-08-02T11:41:30Z</time>
</trkpt>
<trkpt lat="59.57823732867837" lon="16.62170466966927">
<ele>35.71166</ele>
<time>2012-08-02T11:41:33Z</time>
</trkpt>
<trkpt lat="59.578384389169514" lon="16.62149654701352">
<ele>36.05656</ele>
<time>2012-08-02T11:41:35Z</time>
</trkpt>
<trkpt lat="59.578596032224596" lon="16.62121499888599">
<ele>36.37072</ele>
<time>2012-08-02T11:41:38Z</time>
</trkpt>
<trkpt lat="59.57880306523293" lon="16.620954992249608">
<ele>36.275146</ele>
<time>2012-08-02T11:41:41Z</time>
</trkpt>
<trkpt lat="59.57900682929903" lon="16.620724825188518">
<ele>36.39421</ele>
<time>2012-08-02T11:41:44Z</time>
</trkpt>
<trkpt lat="59.57921059336513" lon="16.620511757209897">
<ele>37.019436</ele>
<time>2012-08-02T11:41:47Z</time>
</trkpt>
<trkpt lat="59.57941335160285" lon="16.62030765786767">
<ele>37.951954</ele>
<time>2012-08-02T11:41:50Z</time>
</trkpt>
<trkpt lat="59.57961916923523" lon="16.62008377723396">
<ele>38.4016</ele>
<time>2012-08-02T11:41:53Z</time>
</trkpt>
<trkpt lat="59.57975591998547" lon="16.619839696213603">
<ele>38.46942</ele>
<time>2012-08-02T11:41:56Z</time>
</trkpt>
<trkpt lat="59.5797303551808" lon="16.619393695145845">
<ele>37.65478</ele>
<time>2012-08-02T11:42:00Z</time>
</trkpt>
<trkpt lat="59.57962947897613" lon="16.619020784273744">
<ele>36.89967</ele>
<time>2012-08-02T11:42:03Z</time>
</trkpt>
<trkpt lat="59.57950798328966" lon="16.618599258363247">
<ele>36.392048</ele>
<time>2012-08-02T11:42:06Z</time>
</trkpt>
<trkpt lat="59.57954440265894" lon="16.61821821704507">
<ele>36.44319</ele>
<time>2012-08-02T11:42:10Z</time>
</trkpt>
<trkpt lat="59.57968580536544" lon="16.617926945909858">
<ele>37.5026</ele>
<time>2012-08-02T11:42:13Z</time>
</trkpt>
<trkpt lat="59.57981199491769" lon="16.61750533618033">
<ele>38.26986</ele>
<time>2012-08-02T11:42:16Z</time>
</trkpt>
<trkpt lat="59.57994048949331" lon="16.61706905812025">
<ele>37.770096</ele>
<time>2012-08-02T11:42:19Z</time>
</trkpt>
<trkpt lat="59.580049496144056" lon="16.616631019860506">
<ele>36.854572</ele>
<time>2012-08-02T11:42:22Z</time>
</trkpt>
<trkpt lat="59.580130549147725" lon="16.616160543635488">
<ele>35.74177</ele>
<time>2012-08-02T11:42:25Z</time>
</trkpt>
<trkpt lat="59.580262773670256" lon="16.615713704377413">
<ele>34.872303</ele>
<time>2012-08-02T11:42:28Z</time>
</trkpt>
<trkpt lat="59.5804333453998" lon="16.61534515209496">
<ele>34.255505</ele>
<time>2012-08-02T11:42:31Z</time>
</trkpt>
<trkpt lat="59.58065077196807" lon="16.615135353058577">
<ele>33.782784</ele>
<time>2012-08-02T11:42:34Z</time>
</trkpt>
<trkpt lat="59.58088152576238" lon="16.61502999253571">
<ele>33.206787</ele>
<time>2012-08-02T11:42:37Z</time>
</trkpt>
<trkpt lat="59.581102933734655" lon="16.614929661154747">
<ele>32.577877</ele>
<time>2012-08-02T11:42:40Z</time>
</trkpt>
<trkpt lat="59.5813009981066" lon="16.61476227454841">
<ele>32.117233</ele>
<time>2012-08-02T11:42:43Z</time>
</trkpt>
<trkpt lat="59.58150178659707" lon="16.61454082466662">
<ele>31.83826</ele>
<time>2012-08-02T11:42:47Z</time>
</trkpt>
<trkpt lat="59.58164256066084" lon="16.614258689805865">
<ele>32.80449</ele>
<time>2012-08-02T11:42:52Z</time>
</trkpt>
<trkpt lat="59.58178953733295" lon="16.613995414227247">
<ele>34.566498</ele>
<time>2012-08-02T11:42:58Z</time>
</trkpt>
<trkpt lat="59.58196652121842" lon="16.614082837477326">
<ele>35.348263</ele>
<time>2012-08-02T11:43:05Z</time>
</trkpt>
<trkpt lat="59.58214455284178" lon="16.61426229402423">
<ele>35.776566</ele>
<time>2012-08-02T11:43:12Z</time>
</trkpt>
<trkpt lat="59.582330379635096" lon="16.614410234615207">
<ele>37.68272</ele>
<time>2012-08-02T11:43:18Z</time>
</trkpt>
<trkpt lat="59.58253116812557" lon="16.614525569602847">
<ele>38.973045</ele>
<time>2012-08-02T11:43:22Z</time>
</trkpt>
<trkpt lat="59.58272579591721" lon="16.614603521302342">
<ele>39.35738</ele>
<time>2012-08-02T11:43:25Z</time>
</trkpt>
<trkpt lat="59.582924991846085" lon="16.614681892096996">
<ele>39.616394</ele>
<time>2012-08-02T11:43:28Z</time>
</trkpt>
<trkpt lat="59.58312980365008" lon="16.614710222929716">
<ele>40.185047</ele>
<time>2012-08-02T11:43:31Z</time>
</trkpt>
<trkpt lat="59.583369358442724" lon="16.61462791264057">
<ele>40.987057</ele>
<time>2012-08-02T11:43:35Z</time>
</trkpt>
<trkpt lat="59.58354047499597" lon="16.614459352567792">
<ele>42.047657</ele>
<time>2012-08-02T11:43:38Z</time>
</trkpt>
<trkpt lat="59.58372252993286" lon="16.614238489419222">
<ele>43.262302</ele>
<time>2012-08-02T11:43:41Z</time>
</trkpt>
<trkpt lat="59.583892934024334" lon="16.613981667906046">
<ele>44.0544</ele>
<time>2012-08-02T11:43:44Z</time>
</trkpt>
<trkpt lat="59.584073731675744" lon="16.613677740097046">
<ele>44.358887</ele>
<time>2012-08-02T11:43:47Z</time>
</trkpt>
<trkpt lat="59.58424903918058" lon="16.6134487465024">
<ele>44.4514</ele>
<time>2012-08-02T11:43:50Z</time>
</trkpt>
<trkpt lat="59.58444060757756" lon="16.613203827291727">
<ele>44.295116</ele>
<time>2012-08-02T11:43:53Z</time>
</trkpt>
<trkpt lat="59.584648394957185" lon="16.61295924335718">
<ele>43.787003</ele>
<time>2012-08-02T11:43:56Z</time>
</trkpt>
<trkpt lat="59.58486272022128" lon="16.612757993862033">
<ele>43.16638</ele>
<time>2012-08-02T11:43:59Z</time>
</trkpt>
<trkpt lat="59.58507532719523" lon="16.612549955025315">
<ele>42.178</ele>
<time>2012-08-02T11:44:02Z</time>
</trkpt>
<trkpt lat="59.585263123735785" lon="16.612318949773908">
<ele>41.50322</ele>
<time>2012-08-02T11:44:05Z</time>
</trkpt>
<trkpt lat="59.585433192551136" lon="16.612053411081433">
<ele>41.541992</ele>
<time>2012-08-02T11:44:08Z</time>
</trkpt>
<trkpt lat="59.58560351282358" lon="16.611866913735867">
<ele>41.478664</ele>
<time>2012-08-02T11:44:11Z</time>
</trkpt>
<trkpt lat="59.585809078998864" lon="16.611739257350564">
<ele>41.845684</ele>
<time>2012-08-02T11:44:14Z</time>
</trkpt>
<trkpt lat="59.585990672931075" lon="16.61151680164039">
<ele>42.545834</ele>
<time>2012-08-02T11:44:17Z</time>
</trkpt>
<trkpt lat="59.58619724493474" lon="16.61126551218331">
<ele>43.125587</ele>
<time>2012-08-02T11:44:20Z</time>
</trkpt>
<trkpt lat="59.586370373144746" lon="16.610996620729566">
<ele>43.82955</ele>
<time>2012-08-02T11:44:23Z</time>
</trkpt>
<trkpt lat="59.586528204381466" lon="16.610764609649777">
<ele>44.51715</ele>
<time>2012-08-02T11:44:26Z</time>
</trkpt>
<trkpt lat="59.586703847162426" lon="16.61046084947884">
<ele>44.97756</ele>
<time>2012-08-02T11:44:29Z</time>
</trkpt>
<trkpt lat="59.58687492180616" lon="16.610141582787037">
<ele>44.651466</ele>
<time>2012-08-02T11:44:32Z</time>
</trkpt>
<trkpt lat="59.58703434560448" lon="16.609767079353333">
<ele>44.234215</ele>
<time>2012-08-02T11:44:35Z</time>
</trkpt>
<trkpt lat="59.58718366920948" lon="16.609423588961363">
<ele>43.592556</ele>
<time>2012-08-02T11:44:38Z</time>
</trkpt>
<trkpt lat="59.58733655512333" lon="16.609132317826152">
<ele>42.760918</ele>
<time>2012-08-02T11:44:41Z</time>
</trkpt>
<trkpt lat="59.58750276826322" lon="16.608841214329004">
<ele>42.142883</ele>
<time>2012-08-02T11:44:44Z</time>
</trkpt>
<trkpt lat="59.587649535387754" lon="16.608546590432525">
<ele>41.96966</ele>
<time>2012-08-02T11:44:47Z</time>
</trkpt>
<trkpt lat="59.58781558088958" lon="16.60824241116643">
<ele>41.87782</ele>
<time>2012-08-02T11:44:50Z</time>
</trkpt>
<trkpt lat="59.587985817343" lon="16.607957342639565">
<ele>41.501587</ele>
<time>2012-08-02T11:44:53Z</time>
</trkpt>
<trkpt lat="59.588162675499916" lon="16.607736898586154">
<ele>40.567867</ele>
<time>2012-08-02T11:44:56Z</time>
</trkpt>
<trkpt lat="59.58838261663914" lon="16.607561632990837">
<ele>40.266136</ele>
<time>2012-08-02T11:44:59Z</time>
</trkpt>
<trkpt lat="59.5886039827019" lon="16.607461972162127">
<ele>39.431026</ele>
<time>2012-08-02T11:45:02Z</time>
</trkpt>
<trkpt lat="59.5888402685523" lon="16.607417464256287">
<ele>38.24277</ele>
<time>2012-08-02T11:45:05Z</time>
</trkpt>
<trkpt lat="59.589070519432425" lon="16.607375470921397">
<ele>37.649292</ele>
<time>2012-08-02T11:45:08Z</time>
</trkpt>
<trkpt lat="59.58927725907415" lon="16.60731118172407">
<ele>37.93017</ele>
<time>2012-08-02T11:45:11Z</time>
</trkpt>
<trkpt lat="59.58947972394526" lon="16.607233230024576">
<ele>38.25647</ele>
<time>2012-08-02T11:45:14Z</time>
</trkpt>
<trkpt lat="59.58968575112522" lon="16.607161816209555">
<ele>38.512894</ele>
<time>2012-08-02T11:45:17Z</time>
</trkpt>
<trkpt lat="59.589909757487476" lon="16.607089061290026">
<ele>38.805435</ele>
<time>2012-08-02T11:45:20Z</time>
</trkpt>
<trkpt lat="59.59013523068279" lon="16.60696274600923">
<ele>39.088223</ele>
<time>2012-08-02T11:45:23Z</time>
</trkpt>
<trkpt lat="59.59036996588111" lon="16.60681128501892">
<ele>38.732544</ele>
<time>2012-08-02T11:45:26Z</time>
</trkpt>
<trkpt lat="59.590597450733185" lon="16.60672235302627">
<ele>38.429367</ele>
<time>2012-08-02T11:45:29Z</time>
</trkpt>
<trkpt lat="59.59081776905805" lon="16.606738697737455">
<ele>37.55926</ele>
<time>2012-08-02T11:45:32Z</time>
</trkpt>
<trkpt lat="59.591026729904115" lon="16.60673249512911">
<ele>37.065628</ele>
<time>2012-08-02T11:45:35Z</time>
</trkpt>
<trkpt lat="59.59122802130878" lon="16.606593104079366">
<ele>37.085484</ele>
<time>2012-08-02T11:45:38Z</time>
</trkpt>
<trkpt lat="59.591407855041325" lon="16.60636461339891">
<ele>37.251686</ele>
<time>2012-08-02T11:45:41Z</time>
</trkpt>
<trkpt lat="59.591572475619614" lon="16.606155820190907">
<ele>37.72025</ele>
<time>2012-08-02T11:45:44Z</time>
</trkpt>
<trkpt lat="59.591735252179205" lon="16.605924731120467">
<ele>38.242924</ele>
<time>2012-08-02T11:45:47Z</time>
</trkpt>
<trkpt lat="59.59189220331609" lon="16.605696994811296">
<ele>39.104046</ele>
<time>2012-08-02T11:45:50Z</time>
</trkpt>
<trkpt lat="59.592059506103396" lon="16.605450734496117">
<ele>39.657963</ele>
<time>2012-08-02T11:45:53Z</time>
</trkpt>
<trkpt lat="59.592224964872" lon="16.605200534686446">
<ele>40.21976</ele>
<time>2012-08-02T11:45:56Z</time>
</trkpt>
<trkpt lat="59.592406055890024" lon="16.604948826134205">
<ele>41.083336</ele>
<time>2012-08-02T11:45:59Z</time>
</trkpt>
<trkpt lat="59.59260428790003" lon="16.60469594411552">
<ele>42.350777</ele>
<time>2012-08-02T11:46:02Z</time>
</trkpt>
<trkpt lat="59.592809937894344" lon="16.6043930221349">
<ele>42.891724</ele>
<time>2012-08-02T11:46:05Z</time>
</trkpt>
<trkpt lat="59.592942078597844" lon="16.60412136465311">
<ele>41.5016</ele>
<time>2012-08-02T11:46:07Z</time>
</trkpt>
<trkpt lat="59.593068645335734" lon="16.603700928390026">
<ele>39.628803</ele>
<time>2012-08-02T11:46:10Z</time>
</trkpt>
<trkpt lat="59.593145842663944" lon="16.603210922330618">
<ele>38.490265</ele>
<time>2012-08-02T11:46:13Z</time>
</trkpt>
<trkpt lat="59.59319496061653" lon="16.602716641500592">
<ele>36.78496</ele>
<time>2012-08-02T11:46:16Z</time>
</trkpt>
<trkpt lat="59.5932342717424" lon="16.602235604077578">
<ele>35.68428</ele>
<time>2012-08-02T11:46:19Z</time>
</trkpt>
<trkpt lat="59.593272283673286" lon="16.601764792576432">
<ele>35.00275</ele>
<time>2012-08-02T11:46:22Z</time>
</trkpt>
<trkpt lat="59.59330937359482" lon="16.601303620263934">
<ele>34.57772</ele>
<time>2012-08-02T11:46:25Z</time>
</trkpt>
<trkpt lat="59.59335103165358" lon="16.600841442123055">
<ele>34.499985</ele>
<time>2012-08-02T11:46:28Z</time>
</trkpt>
<trkpt lat="59.59339801222086" lon="16.600399212911725">
<ele>34.54373</ele>
<time>2012-08-02T11:46:31Z</time>
</trkpt>
<trkpt lat="59.5934554701671" lon="16.59996746107936">
<ele>34.499702</ele>
<time>2012-08-02T11:46:34Z</time>
</trkpt>
<trkpt lat="59.593528057448566" lon="16.59953797236085">
<ele>34.41707</ele>
<time>2012-08-02T11:46:37Z</time>
</trkpt>
<trkpt lat="59.59361686371267" lon="16.599118122830987">
<ele>34.36345</ele>
<time>2012-08-02T11:46:40Z</time>
</trkpt>
<trkpt lat="59.593725241720676" lon="16.59871713258326">
<ele>34.200203</ele>
<time>2012-08-02T11:46:43Z</time>
</trkpt>
<trkpt lat="59.593858513981104" lon="16.598345143720508">
<ele>33.856327</ele>
<time>2012-08-02T11:46:46Z</time>
</trkpt>
<trkpt lat="59.5940091367811" lon="16.597999557852745">
<ele>33.759693</ele>
<time>2012-08-02T11:46:49Z</time>
</trkpt>
<trkpt lat="59.594171326607466" lon="16.59768322482705">
<ele>33.793938</ele>
<time>2012-08-02T11:46:52Z</time>
</trkpt>
<trkpt lat="59.594319351017475" lon="16.597387678921223">
<ele>34.20213</ele>
<time>2012-08-02T11:46:55Z</time>
</trkpt>
<trkpt lat="59.59448493551463" lon="16.597236217930913">
<ele>35.03995</ele>
<time>2012-08-02T11:46:58Z</time>
</trkpt>
<trkpt lat="59.59462973289192" lon="16.59701569005847">
<ele>36.032486</ele>
<time>2012-08-02T11:47:01Z</time>
</trkpt>
<trkpt lat="59.59482243284583" lon="16.596912508830428">
<ele>36.737133</ele>
<time>2012-08-02T11:47:04Z</time>
</trkpt>
<trkpt lat="59.59501257631928" lon="16.596854589879513">
<ele>37.1516</ele>
<time>2012-08-02T11:47:07Z</time>
</trkpt>
<trkpt lat="59.59522296208888" lon="16.596725592389703">
<ele>37.692085</ele>
<time>2012-08-02T11:47:10Z</time>
</trkpt>
<trkpt lat="59.59543749690056" lon="16.59658377058804">
<ele>37.776356</ele>
<time>2012-08-02T11:47:13Z</time>
</trkpt>
<trkpt lat="59.59566481411457" lon="16.596445301547647">
<ele>37.60565</ele>
<time>2012-08-02T11:47:16Z</time>
</trkpt>
<trkpt lat="59.59587918128818" lon="16.596290739253163">
<ele>37.3852</ele>
<time>2012-08-02T11:47:19Z</time>
</trkpt>
<trkpt lat="59.596088603138924" lon="16.596136847510934">
<ele>37.195313</ele>
<time>2012-08-02T11:47:22Z</time>
</trkpt>
<trkpt lat="59.59629333112389" lon="16.595975244417787">
<ele>37.126137</ele>
<time>2012-08-02T11:47:25Z</time>
</trkpt>
<trkpt lat="59.596498562023044" lon="16.595814898610115">
<ele>37.067272</ele>
<time>2012-08-02T11:47:28Z</time>
</trkpt>
<trkpt lat="59.596690172329545" lon="16.595611637458205">
<ele>37.231518</ele>
<time>2012-08-02T11:47:31Z</time>
</trkpt>
<trkpt lat="59.59688366856426" lon="16.595420530065894">
<ele>37.538303</ele>
<time>2012-08-02T11:47:34Z</time>
</trkpt>
<trkpt lat="59.5971007598564" lon="16.595315504819155">
<ele>37.939598</ele>
<time>2012-08-02T11:47:37Z</time>
</trkpt>
<trkpt lat="59.59731651004404" lon="16.595229590311646">
<ele>38.013573</ele>
<time>2012-08-02T11:47:40Z</time>
</trkpt>
<trkpt lat="59.59753657691181" lon="16.59511157311499">
<ele>38.08853</ele>
<time>2012-08-02T11:47:43Z</time>
</trkpt>
<trkpt lat="59.59774872288108" lon="16.59496983513236">
<ele>38.159218</ele>
<time>2012-08-02T11:47:46Z</time>
</trkpt>
<trkpt lat="59.597960407845676" lon="16.594831869006157">
<ele>38.46873</ele>
<time>2012-08-02T11:47:49Z</time>
</trkpt>
<trkpt lat="59.59816392045468" lon="16.594651322811842">
<ele>38.718075</ele>
<time>2012-08-02T11:47:52Z</time>
</trkpt>
<trkpt lat="59.59837313275784" lon="16.59452274441719">
<ele>38.867004</ele>
<time>2012-08-02T11:47:55Z</time>
</trkpt>
<trkpt lat="59.59857781883329" lon="16.594340102747083">
<ele>38.870453</ele>
<time>2012-08-02T11:47:58Z</time>
</trkpt>
<trkpt lat="59.59877890069038" lon="16.594200879335403">
<ele>39.367226</ele>
<time>2012-08-02T11:48:01Z</time>
</trkpt>
<trkpt lat="59.59897554013878" lon="16.59406148828566">
<ele>40.343987</ele>
<time>2012-08-02T11:48:04Z</time>
</trkpt>
<trkpt lat="59.59917448461056" lon="16.593923941254616">
<ele>41.157608</ele>
<time>2012-08-02T11:48:07Z</time>
</trkpt>
<trkpt lat="59.59936257451773" lon="16.593766612932086">
<ele>41.86181</ele>
<time>2012-08-02T11:48:10Z</time>
</trkpt>
<trkpt lat="59.59955083206296" lon="16.593582294881344">
<ele>42.7292</ele>
<time>2012-08-02T11:48:13Z</time>
</trkpt>
<trkpt lat="59.59973548538983" lon="16.593388002365828">
<ele>43.626385</ele>
<time>2012-08-02T11:48:16Z</time>
</trkpt>
<trkpt lat="59.599898471497" lon="16.593137215822935">
<ele>44.81426</ele>
<time>2012-08-02T11:48:19Z</time>
</trkpt>
<trkpt lat="59.600057266652584" lon="16.592908054590225">
<ele>46.668514</ele>
<time>2012-08-02T11:48:22Z</time>
</trkpt>
<trkpt lat="59.600217612460256" lon="16.592649053782225">
<ele>48.558594</ele>
<time>2012-08-02T11:48:25Z</time>
</trkpt>
<trkpt lat="59.60036303848028" lon="16.59239323809743">
<ele>50.11534</ele>
<time>2012-08-02T11:48:28Z</time>
</trkpt>
<trkpt lat="59.60051940288395" lon="16.59212644211948">
<ele>50.68148</ele>
<time>2012-08-02T11:48:31Z</time>
</trkpt>
<trkpt lat="59.600700032897294" lon="16.59177029505372">
<ele>50.554684</ele>
<time>2012-08-02T11:48:34Z</time>
</trkpt>
<trkpt lat="59.600871903821826" lon="16.59139118157327">
<ele>49.94964</ele>
<time>2012-08-02T11:48:37Z</time>
</trkpt>
<trkpt lat="59.60104163736105" lon="16.5910719987005">
<ele>49.234993</ele>
<time>2012-08-02T11:48:40Z</time>
</trkpt>
<trkpt lat="59.60122515913099" lon="16.590820290148258">
<ele>49.016315</ele>
<time>2012-08-02T11:48:43Z</time>
</trkpt>
<trkpt lat="59.60137511137873" lon="16.590492893010378">
<ele>49.05845</ele>
<time>2012-08-02T11:48:46Z</time>
</trkpt>
<trkpt lat="59.60148277692497" lon="16.590118473395705">
<ele>48.338722</ele>
<time>2012-08-02T11:48:49Z</time>
</trkpt>
<trkpt lat="59.60151928011328" lon="16.58970574848354">
<ele>48.27259</ele>
<time>2012-08-02T11:48:52Z</time>
</trkpt>
<trkpt lat="59.601639434695244" lon="16.589356726035476">
<ele>47.19157</ele>
<time>2012-08-02T11:48:55Z</time>
</trkpt>
<trkpt lat="59.60184365976602" lon="16.58925865776837">
<ele>46.450073</ele>
<time>2012-08-02T11:48:59Z</time>
</trkpt>
<trkpt lat="59.60202420596033" lon="16.589292185381055">
<ele>46.62444</ele>
<time>2012-08-02T11:49:03Z</time>
</trkpt>
<trkpt lat="59.60219586733729" lon="16.5895402058959">
<ele>47.42425</ele>
<time>2012-08-02T11:49:08Z</time>
</trkpt>
<trkpt lat="59.60239141713828" lon="16.589435515925288">
<ele>48.409634</ele>
<time>2012-08-02T11:49:12Z</time>
</trkpt>
<trkpt lat="59.60256207268685" lon="16.589170396327972">
<ele>48.253056</ele>
<time>2012-08-02T11:49:16Z</time>
</trkpt>
<trkpt lat="59.60272292140871" lon="16.588849620893598">
<ele>47.666008</ele>
<time>2012-08-02T11:49:20Z</time>
</trkpt>
<trkpt lat="59.602862312458456" lon="16.58859020099044">
<ele>47.491905</ele>
<time>2012-08-02T11:49:23Z</time>
</trkpt>
<trkpt lat="59.60300748702139" lon="16.58830245025456">
<ele>47.366894</ele>
<time>2012-08-02T11:49:26Z</time>
</trkpt>
<trkpt lat="59.603166240267456" lon="16.587995924055576">
<ele>47.37198</ele>
<time>2012-08-02T11:49:29Z</time>
</trkpt>
<trkpt lat="59.60332683753222" lon="16.587676825001836">
<ele>47.377243</ele>
<time>2012-08-02T11:49:32Z</time>
</trkpt>
<trkpt lat="59.60342197213322" lon="16.58724658191204">
<ele>46.94196</ele>
<time>2012-08-02T11:49:35Z</time>
</trkpt>
<trkpt lat="59.60353579837829" lon="16.58684777095914">
<ele>46.62865</ele>
<time>2012-08-02T11:49:38Z</time>
</trkpt>
<trkpt lat="59.60370264016092" lon="16.586510818451643">
<ele>46.507404</ele>
<time>2012-08-02T11:49:41Z</time>
</trkpt>
<trkpt lat="59.603871242143214" lon="16.58619113266468">
<ele>46.717186</ele>
<time>2012-08-02T11:49:44Z</time>
</trkpt>
<trkpt lat="59.604037748649716" lon="16.585843786597252">
<ele>46.779125</ele>
<time>2012-08-02T11:49:47Z</time>
</trkpt>
<trkpt lat="59.60420563817024" lon="16.585502391681075">
<ele>46.708378</ele>
<time>2012-08-02T11:49:50Z</time>
</trkpt>
<trkpt lat="59.604366570711136" lon="16.58513769507408">
<ele>46.534775</ele>
<time>2012-08-02T11:49:53Z</time>
</trkpt>
<trkpt lat="59.60454208776355" lon="16.58481658436358">
<ele>46.486546</ele>
<time>2012-08-02T11:49:56Z</time>
</trkpt>
<trkpt lat="59.60472552571446" lon="16.584482481703162">
<ele>46.261513</ele>
<time>2012-08-02T11:49:59Z</time>
</trkpt>
<trkpt lat="59.60484815295786" lon="16.584211578592658">
<ele>46.21585</ele>
<time>2012-08-02T11:50:01Z</time>
</trkpt>
<trkpt lat="59.60498167667538" lon="16.583946039900184">
<ele>45.815166</ele>
<time>2012-08-02T11:50:03Z</time>
</trkpt>
<trkpt lat="59.60512064862996" lon="16.583677818998694">
<ele>44.958527</ele>
<time>2012-08-02T11:50:05Z</time>
</trkpt>
<trkpt lat="59.60525568109006" lon="16.58341320231557">
<ele>43.98292</ele>
<time>2012-08-02T11:50:07Z</time>
</trkpt>
<trkpt lat="59.6054389514029" lon="16.58303316682577">
<ele>42.92247</ele>
<time>2012-08-02T11:50:10Z</time>
</trkpt>
<trkpt lat="59.60561300162226" lon="16.582636702805758">
<ele>42.04855</ele>
<time>2012-08-02T11:50:13Z</time>
</trkpt>
<trkpt lat="59.605753775686026" lon="16.58219321630895">
<ele>41.362675</ele>
<time>2012-08-02T11:50:16Z</time>
</trkpt>
<trkpt lat="59.605852430686355" lon="16.58170790411532">
<ele>40.965504</ele>
<time>2012-08-02T11:50:19Z</time>
</trkpt>
<trkpt lat="59.60593243595213" lon="16.581210605800152">
<ele>41.144817</ele>
<time>2012-08-02T11:50:22Z</time>
</trkpt>
<trkpt lat="59.606025223620236" lon="16.580742727965117">
<ele>41.85328</ele>
<time>2012-08-02T11:50:25Z</time>
</trkpt>
<trkpt lat="59.60611905902624" lon="16.58030452206731">
<ele>43.26154</ele>
<time>2012-08-02T11:50:28Z</time>
</trkpt>
<trkpt lat="59.606226976029575" lon="16.579904286190867">
<ele>45.7994</ele>
<time>2012-08-02T11:50:31Z</time>
</trkpt>
<trkpt lat="59.60632211063057" lon="16.5794431976974">
<ele>47.424747</ele>
<time>2012-08-02T11:50:34Z</time>
</trkpt>
<trkpt lat="59.60638384334743" lon="16.578940032050014">
<ele>47.32451</ele>
<time>2012-08-02T11:50:37Z</time>
</trkpt>
<trkpt lat="59.60643505677581" lon="16.578439716249704">
<ele>45.996277</ele>
<time>2012-08-02T11:50:40Z</time>
</trkpt>
<trkpt lat="59.60651489440352" lon="16.577975191175938">
<ele>45.221863</ele>
<time>2012-08-02T11:50:43Z</time>
</trkpt>
<trkpt lat="59.60660156328231" lon="16.57751301303506">
<ele>45.095154</ele>
<time>2012-08-02T11:50:46Z</time>
</trkpt>
<trkpt lat="59.60668668150902" lon="16.577056534588337">
<ele>45.33702</ele>
<time>2012-08-02T11:50:49Z</time>
</trkpt>
<trkpt lat="59.606768866069615" lon="16.576637774705887">
<ele>46.064056</ele>
<time>2012-08-02T11:50:52Z</time>
</trkpt>
<trkpt lat="59.60683784913272" lon="16.57618942670524">
<ele>47.103584</ele>
<time>2012-08-02T11:50:55Z</time>
</trkpt>
<trkpt lat="59.606935204938054" lon="16.57573931850493">
<ele>48.348373</ele>
<time>2012-08-02T11:50:58Z</time>
</trkpt>
<trkpt lat="59.607012905180454" lon="16.575255850329995">
<ele>47.712605</ele>
<time>2012-08-02T11:51:01Z</time>
</trkpt>
<trkpt lat="59.60699857212603" lon="16.57487204298377">
<ele>46.61334</ele>
<time>2012-08-02T11:51:03Z</time>
</trkpt>
<trkpt lat="59.60702531039715" lon="16.57440542243421">
<ele>44.19624</ele>
<time>2012-08-02T11:51:06Z</time>
</trkpt>
<trkpt lat="59.60717199370265" lon="16.57401893287897">
<ele>42.39842</ele>
<time>2012-08-02T11:51:09Z</time>
</trkpt>
<trkpt lat="59.60731901228428" lon="16.5736098960042">
<ele>41.499336</ele>
<time>2012-08-02T11:51:12Z</time>
</trkpt>
<trkpt lat="59.60747575387359" lon="16.573221059516072">
<ele>41.32629</ele>
<time>2012-08-02T11:51:15Z</time>
</trkpt>
<trkpt lat="59.60763115435839" lon="16.572826774790883">
<ele>41.050148</ele>
<time>2012-08-02T11:51:18Z</time>
</trkpt>
<trkpt lat="59.60772804915905" lon="16.57238194718957">
<ele>40.74615</ele>
<time>2012-08-02T11:51:21Z</time>
</trkpt>
<trkpt lat="59.60772360675037" lon="16.57200233079493">
<ele>39.98222</ele>
<time>2012-08-02T11:51:23Z</time>
</trkpt>
<trkpt lat="59.6077564638108" lon="16.571585414931178">
<ele>38.305008</ele>
<time>2012-08-02T11:51:26Z</time>
</trkpt>
<trkpt lat="59.60795507300645" lon="16.571462620049715">
<ele>36.99742</ele>
<time>2012-08-02T11:51:29Z</time>
</trkpt>
<trkpt lat="59.608143204823136" lon="16.57122046686709">
<ele>36.453598</ele>
<time>2012-08-02T11:51:32Z</time>
</trkpt>
<trkpt lat="59.60826478432864" lon="16.57079449854791">
<ele>36.43042</ele>
<time>2012-08-02T11:51:35Z</time>
</trkpt>
<trkpt lat="59.608389674685895" lon="16.570429047569633">
<ele>36.765957</ele>
<time>2012-08-02T11:51:38Z</time>
</trkpt>
<trkpt lat="59.608555594459176" lon="16.57007365487516">
<ele>36.532516</ele>
<time>2012-08-02T11:51:41Z</time>
</trkpt>
<trkpt lat="59.608760070987046" lon="16.5697658713907">
<ele>35.9856</ele>
<time>2012-08-02T11:51:44Z</time>
</trkpt>
<trkpt lat="59.608950885012746" lon="16.56941349618137">
<ele>35.66581</ele>
<time>2012-08-02T11:51:47Z</time>
</trkpt>
<trkpt lat="59.609122588299215" lon="16.569123063236475">
<ele>35.909016</ele>
<time>2012-08-02T11:51:50Z</time>
</trkpt>
<trkpt lat="59.60927782114595" lon="16.56885157339275">
<ele>36.681934</ele>
<time>2012-08-02T11:51:53Z</time>
</trkpt>
<trkpt lat="59.60943988524377" lon="16.568538509309292">
<ele>37.259903</ele>
<time>2012-08-02T11:51:57Z</time>
</trkpt>
<trkpt lat="59.60957248695195" lon="16.568209184333682">
<ele>36.87843</ele>
<time>2012-08-02T11:52:03Z</time>
</trkpt>
<trkpt lat="59.60971988271922" lon="16.567889666184783">
<ele>35.80332</ele>
<time>2012-08-02T11:52:07Z</time>
</trkpt>
<trkpt lat="59.60984967648983" lon="16.56762664206326">
<ele>35.079525</ele>
<time>2012-08-02T11:52:10Z</time>
</trkpt>
<trkpt lat="59.60997859016061" lon="16.56734618358314">
<ele>34.455425</ele>
<time>2012-08-02T11:52:13Z</time>
</trkpt>
<trkpt lat="59.61012183688581" lon="16.567039573565125">
<ele>34.34057</ele>
<time>2012-08-02T11:52:16Z</time>
</trkpt>
<trkpt lat="59.610267765820026" lon="16.566736483946443">
<ele>34.08899</ele>
<time>2012-08-02T11:52:19Z</time>
</trkpt>
<trkpt lat="59.610414784401655" lon="16.56644806265831">
<ele>33.795353</ele>
<time>2012-08-02T11:52:22Z</time>
</trkpt>
<trkpt lat="59.610552373342216" lon="16.566161485388875">
<ele>33.415226</ele>
<time>2012-08-02T11:52:25Z</time>
</trkpt>
<trkpt lat="59.610677934251726" lon="16.565884379670024">
<ele>33.07361</ele>
<time>2012-08-02T11:52:28Z</time>
</trkpt>
<trkpt lat="59.61083014961332" lon="16.565528148785233">
<ele>33.125244</ele>
<time>2012-08-02T11:52:32Z</time>
</trkpt>
<trkpt lat="59.61098320316523" lon="16.565178288146853">
<ele>33.425945</ele>
<time>2012-08-02T11:52:36Z</time>
</trkpt>
<trkpt lat="59.61111324839294" lon="16.564889615401626">
<ele>33.51563</ele>
<time>2012-08-02T11:52:39Z</time>
</trkpt>
<trkpt lat="59.611271121539176" lon="16.56459172256291">
<ele>33.360023</ele>
<time>2012-08-02T11:52:43Z</time>
</trkpt>
<trkpt lat="59.611397185362875" lon="16.564338924363256">
<ele>33.38315</ele>
<time>2012-08-02T11:52:46Z</time>
</trkpt>
<trkpt lat="59.611558453179896" lon="16.56406349502504">
<ele>33.310078</ele>
<time>2012-08-02T11:52:49Z</time>
</trkpt>
<trkpt lat="59.61170312482864" lon="16.563838440924883">
<ele>33.23238</ele>
<time>2012-08-02T11:52:52Z</time>
</trkpt>
<trkpt lat="59.611894064582884" lon="16.563751520588994">
<ele>33.49179</ele>
<time>2012-08-02T11:52:55Z</time>
</trkpt>
<trkpt lat="59.612119663506746" lon="16.563586816191673">
<ele>34.493107</ele>
<time>2012-08-02T11:52:59Z</time>
</trkpt>
<trkpt lat="59.61229790467769" lon="16.563433511182666">
<ele>35.39396</ele>
<time>2012-08-02T11:53:02Z</time>
</trkpt>
<trkpt lat="59.61247400846332" lon="16.563311219215393">
<ele>35.908386</ele>
<time>2012-08-02T11:53:05Z</time>
</trkpt>
<trkpt lat="59.61267483886331" lon="16.563147520646453">
<ele>36.628437</ele>
<time>2012-08-02T11:53:09Z</time>
</trkpt>
<trkpt lat="59.61279415525496" lon="16.562762707471848">
<ele>37.34338</ele>
<time>2012-08-02T11:53:13Z</time>
</trkpt>
<trkpt lat="59.61282336618751" lon="16.56233095563948">
<ele>36.8683</ele>
<time>2012-08-02T11:53:16Z</time>
</trkpt>
<trkpt lat="59.61281263735145" lon="16.56187296845019">
<ele>35.64288</ele>
<time>2012-08-02T11:53:19Z</time>
</trkpt>
<trkpt lat="59.61280400399119" lon="16.561395535245538">
<ele>34.418087</ele>
<time>2012-08-02T11:53:22Z</time>
</trkpt>
<trkpt lat="59.61277969647199" lon="16.560914246365428">
<ele>33.724815</ele>
<time>2012-08-02T11:53:25Z</time>
</trkpt>
<trkpt lat="59.61271557491273" lon="16.56041351146996">
<ele>33.924534</ele>
<time>2012-08-02T11:53:28Z</time>
</trkpt>
<trkpt lat="59.61262303870171" lon="16.559978909790516">
<ele>34.47129</ele>
<time>2012-08-02T11:53:31Z</time>
</trkpt>
<trkpt lat="59.61250648833811" lon="16.55958621762693">
<ele>35.106636</ele>
<time>2012-08-02T11:53:34Z</time>
</trkpt>
<trkpt lat="59.612401043996215" lon="16.55922705307603">
<ele>35.821556</ele>
<time>2012-08-02T11:53:37Z</time>
</trkpt>
<trkpt lat="59.612351674586535" lon="16.558834360912442">
<ele>37.657536</ele>
<time>2012-08-02T11:53:40Z</time>
</trkpt>
<trkpt lat="59.61232510395348" lon="16.55843948945403">
<ele>40.921146</ele>
<time>2012-08-02T11:53:43Z</time>
</trkpt>
<trkpt lat="59.61229870095849" lon="16.55805685557425">
<ele>46.146423</ele>
<time>2012-08-02T11:53:46Z</time>
</trkpt>
<trkpt lat="59.61224409285933" lon="16.557616973295808">
<ele>54.466633</ele>
<time>2012-08-02T11:53:50Z</time>
</trkpt>
<trkpt lat="59.61210696492344" lon="16.55738797970116">
<ele>59.574997</ele>
<time>2012-08-02T11:54:57Z</time>
</trkpt>
<trkpt lat="59.61232229601592" lon="16.55726870521903">
<ele>50.666256</ele>
<time>2012-08-02T11:55:05Z</time>
</trkpt>
<trkpt lat="59.61253574118018" lon="16.557088242843747">
<ele>48.56432</ele>
<time>2012-08-02T11:55:09Z</time>
</trkpt>
<trkpt lat="59.612752329558134" lon="16.55688707716763">
<ele>47.94613</ele>
<time>2012-08-02T11:55:13Z</time>
</trkpt>
<trkpt lat="59.61294234730303" lon="16.556736789643764">
<ele>47.663216</ele>
<time>2012-08-02T11:55:16Z</time>
</trkpt>
<trkpt lat="59.613130311481655" lon="16.556527074426413">
<ele>46.853237</ele>
<time>2012-08-02T11:55:19Z</time>
</trkpt>
<trkpt lat="59.613323137164116" lon="16.556341666728258">
<ele>45.69746</ele>
<time>2012-08-02T11:55:22Z</time>
</trkpt>
<trkpt lat="59.61349530145526" lon="16.55617411248386">
<ele>45.477055</ele>
<time>2012-08-02T11:55:25Z</time>
</trkpt>
<trkpt lat="59.61371432058513" lon="16.55598644167185">
<ele>46.15289</ele>
<time>2012-08-02T11:55:29Z</time>
</trkpt>
<trkpt lat="59.61389524396509" lon="16.555859372019768">
<ele>46.864506</ele>
<time>2012-08-02T11:55:32Z</time>
</trkpt>
<trkpt lat="59.61407428141683" lon="16.555709084495902">
<ele>47.413162</ele>
<time>2012-08-02T11:55:35Z</time>
</trkpt>
<trkpt lat="59.614266813732684" lon="16.555562987923622">
<ele>47.67899</ele>
<time>2012-08-02T11:55:38Z</time>
</trkpt>
<trkpt lat="59.61444777902216" lon="16.555320834740996">
<ele>49.913</ele>
<time>2012-08-02T11:55:41Z</time>
</trkpt>
<trkpt lat="59.61467723362148" lon="16.55507130548358">
<ele>50.52581</ele>
<time>2012-08-02T11:55:44Z</time>
</trkpt>
<trkpt lat="59.61487169377506" lon="16.554859997704625">
<ele>50.68745</ele>
<time>2012-08-02T11:55:47Z</time>
</trkpt>
<trkpt lat="59.61503975093365" lon="16.554567385464907">
<ele>50.546276</ele>
<time>2012-08-02T11:55:50Z</time>
</trkpt>
<trkpt lat="59.615245149470866" lon="16.554469568654895">
<ele>49.84297</ele>
<time>2012-08-02T11:55:53Z</time>
</trkpt>
<trkpt lat="59.61548114195466" lon="16.554410057142377">
<ele>48.61188</ele>
<time>2012-08-02T11:55:56Z</time>
</trkpt>
<trkpt lat="59.61565175559372" lon="16.554172933101654">
<ele>48.945644</ele>
<time>2012-08-02T11:55:59Z</time>
</trkpt>
<trkpt lat="59.61583913303912" lon="16.55392843298614">
<ele>49.336437</ele>
<time>2012-08-02T11:56:02Z</time>
</trkpt>
<trkpt lat="59.6160325454548" lon="16.553714694455266">
<ele>49.276314</ele>
<time>2012-08-02T11:56:05Z</time>
</trkpt>
<trkpt lat="59.61622599978" lon="16.55360598117113">
<ele>48.94783</ele>
<time>2012-08-02T11:56:08Z</time>
</trkpt>
<trkpt lat="59.61643118876964" lon="16.553595336154103">
<ele>48.009243</ele>
<time>2012-08-02T11:56:11Z</time>
</trkpt>
<trkpt lat="59.61660238914192" lon="16.553717544302344">
<ele>47.1211</ele>
<time>2012-08-02T11:56:14Z</time>
</trkpt>
<trkpt lat="59.61679265834391" lon="16.55388241633773">
<ele>46.419956</ele>
<time>2012-08-02T11:56:18Z</time>
</trkpt>
<trkpt lat="59.61693674325943" lon="16.553561305627227">
<ele>45.77251</ele>
<time>2012-08-02T11:56:23Z</time>
</trkpt>
<trkpt lat="59.6170886233449" lon="16.55326634645462">
<ele>44.718655</ele>
<time>2012-08-02T11:56:27Z</time>
</trkpt>
<trkpt lat="59.61728844791651" lon="16.553185964003205">
<ele>44.133644</ele>
<time>2012-08-02T11:56:31Z</time>
</trkpt>
<trkpt lat="59.61750495247543" lon="16.553227538242936">
<ele>43.559864</ele>
<time>2012-08-02T11:56:35Z</time>
</trkpt>
<trkpt lat="59.6177049446851" lon="16.553384866565466">
<ele>43.900192</ele>
<time>2012-08-02T11:56:39Z</time>
</trkpt>
<trkpt lat="59.6179166296497" lon="16.553418477997184">
<ele>44.877796</ele>
<time>2012-08-02T11:56:43Z</time>
</trkpt>
<trkpt lat="59.618109706789255" lon="16.553380507975817">
<ele>46.608204</ele>
<time>2012-08-02T11:56:47Z</time>
</trkpt>
<trkpt lat="59.618314392864704" lon="16.553382771089673">
<ele>48.218227</ele>
<time>2012-08-02T11:56:51Z</time>
</trkpt>
<trkpt lat="59.61851170286536" lon="16.553465416654944">
<ele>49.129604</ele>
<time>2012-08-02T11:56:55Z</time>
</trkpt>
<trkpt lat="59.61872405838221" lon="16.55352526344359">
<ele>51.06093</ele>
<time>2012-08-02T11:56:59Z</time>
</trkpt>
<trkpt lat="59.61892191320658" lon="16.55353993177414">
<ele>53.439198</ele>
<time>2012-08-02T11:57:03Z</time>
</trkpt>
<trkpt lat="59.61911046411842" lon="16.553513864055276">
<ele>54.499905</ele>
<time>2012-08-02T11:57:07Z</time>
</trkpt>
<trkpt lat="59.619242353364825" lon="16.55326827429235">
<ele>55.068707</ele>
<time>2012-08-02T11:57:11Z</time>
</trkpt>
<trkpt lat="59.61935198865831" lon="16.55291992239654">
<ele>54.127594</ele>
<time>2012-08-02T11:57:15Z</time>
</trkpt>
<trkpt lat="59.61947713047266" lon="16.552609289065003">
<ele>54.957184</ele>
<time>2012-08-02T11:57:19Z</time>
</trkpt>
<trkpt lat="59.619578761048615" lon="16.552242832258344">
<ele>56.62356</ele>
<time>2012-08-02T11:57:23Z</time>
</trkpt>
<trkpt lat="59.6196622448042" lon="16.551833292469382">
<ele>57.94574</ele>
<time>2012-08-02T11:57:27Z</time>
</trkpt>
<trkpt lat="59.61973483208567" lon="16.55139835551381">
<ele>58.403923</ele>
<time>2012-08-02T11:57:31Z</time>
</trkpt>
<trkpt lat="59.619791829027236" lon="16.551054446026683">
<ele>58.62508</ele>
<time>2012-08-02T11:57:34Z</time>
</trkpt>
<trkpt lat="59.61984006687999" lon="16.550660077482462">
<ele>57.471523</ele>
<time>2012-08-02T11:57:37Z</time>
</trkpt>
<trkpt lat="59.619867014698684" lon="16.55027199536562">
<ele>55.492683</ele>
<time>2012-08-02T11:57:40Z</time>
</trkpt>
<trkpt lat="59.619903643615544" lon="16.549890199676156">
<ele>53.856293</ele>
<time>2012-08-02T11:57:43Z</time>
</trkpt>
<trkpt lat="59.619969483464956" lon="16.54955760575831">
<ele>53.089386</ele>
<time>2012-08-02T11:57:46Z</time>
</trkpt>
<trkpt lat="59.62012991309166" lon="16.549272034317255">
<ele>52.66148</ele>
<time>2012-08-02T11:57:50Z</time>
</trkpt>
<trkpt lat="59.62034260388464" lon="16.549167092889547">
<ele>51.56907</ele>
<time>2012-08-02T11:57:54Z</time>
</trkpt>
<trkpt lat="59.620548714883626" lon="16.549174217507243">
<ele>51.26833</ele>
<time>2012-08-02T11:57:58Z</time>
</trkpt>
<trkpt lat="59.62074254639447" lon="16.54907296411693">
<ele>51.663406</ele>
<time>2012-08-02T11:58:02Z</time>
</trkpt>
<trkpt lat="59.62094367016107" lon="16.549046644940972">
<ele>51.89311</ele>
<time>2012-08-02T11:58:06Z</time>
</trkpt>
<trkpt lat="59.62115724105388" lon="16.54910271987319">
<ele>51.727505</ele>
<time>2012-08-02T11:58:10Z</time>
</trkpt>
<trkpt lat="59.62137324269861" lon="16.549134235829115">
<ele>51.53918</ele>
<time>2012-08-02T11:58:14Z</time>
</trkpt>
<trkpt lat="59.62157709058374" lon="16.549191316589713">
<ele>51.97919</ele>
<time>2012-08-02T11:58:18Z</time>
</trkpt>
<trkpt lat="59.62178408168256" lon="16.54923800379038">
<ele>52.803974</ele>
<time>2012-08-02T11:58:22Z</time>
</trkpt>
<trkpt lat="59.62198432534933" lon="16.549290055409074">
<ele>53.732502</ele>
<time>2012-08-02T11:58:26Z</time>
</trkpt>
<trkpt lat="59.622188340872526" lon="16.549329534173012">
<ele>54.25209</ele>
<time>2012-08-02T11:58:30Z</time>
</trkpt>
<trkpt lat="59.6223875368014" lon="16.54931679368019">
<ele>54.42937</ele>
<time>2012-08-02T11:58:34Z</time>
</trkpt>
<trkpt lat="59.62250366806984" lon="16.5489864628762">
<ele>54.66515</ele>
<time>2012-08-02T11:58:38Z</time>
</trkpt>
<trkpt lat="59.62261988315731" lon="16.548664597794414">
<ele>55.724915</ele>
<time>2012-08-02T11:58:42Z</time>
</trkpt>
<trkpt lat="59.6227292669937" lon="16.54832244850695">
<ele>56.052402</ele>
<time>2012-08-02T11:58:46Z</time>
</trkpt>
<trkpt lat="59.622814930044115" lon="16.54798910021782">
<ele>56.78767</ele>
<time>2012-08-02T11:58:50Z</time>
</trkpt>
<trkpt lat="59.62279405910522" lon="16.54753186739981">
<ele>56.921867</ele>
<time>2012-08-02T11:58:54Z</time>
</trkpt>
<trkpt lat="59.6227863477543" lon="16.547162728384137">
<ele>56.82257</ele>
<time>2012-08-02T11:58:59Z</time>
</trkpt>
<trkpt lat="59.6229729289189" lon="16.547325002029538">
<ele>57.411217</ele>
<time>2012-08-02T11:59:05Z</time>
</trkpt>
<trkpt lat="59.62313830386847" lon="16.547510074451566">
<ele>58.166832</ele>
<time>2012-08-02T11:59:09Z</time>
</trkpt>
<trkpt lat="59.623327986337245" lon="16.547717694193125">
<ele>59.07193</ele>
<time>2012-08-02T11:59:13Z</time>
</trkpt>
<trkpt lat="59.62348958943039" lon="16.547948867082596">
<ele>59.570408</ele>
<time>2012-08-02T11:59:17Z</time>
</trkpt>
<trkpt lat="59.623579401522875" lon="16.548305014148355">
<ele>60.392193</ele>
<time>2012-08-02T11:59:21Z</time>
</trkpt>
<trkpt lat="59.62369632907212" lon="16.54863358475268">
<ele>61.13972</ele>
<time>2012-08-02T11:59:25Z</time>
</trkpt>
<trkpt lat="59.62385981809348" lon="16.548912450671196">
<ele>61.898113</ele>
<time>2012-08-02T11:59:29Z</time>
</trkpt>
<trkpt lat="59.62406488135457" lon="16.549082938581705">
<ele>61.99434</ele>
<time>2012-08-02T11:59:33Z</time>
</trkpt>
<trkpt lat="59.624252342619" lon="16.549218390136957">
<ele>61.973606</ele>
<time>2012-08-02T11:59:37Z</time>
</trkpt>
<trkpt lat="59.624450909905136" lon="16.54925610870123">
<ele>61.688522</ele>
<time>2012-08-02T11:59:41Z</time>
</trkpt>
<trkpt lat="59.62462152354419" lon="16.549374544993043">
<ele>61.39516</ele>
<time>2012-08-02T11:59:44Z</time>
</trkpt>
<trkpt lat="59.624804207123816" lon="16.549483006820083">
<ele>61.757153</ele>
<time>2012-08-02T11:59:49Z</time>
</trkpt>
<trkpt lat="59.62490743026137" lon="16.549110934138298">
<ele>60.56726</ele>
<time>2012-08-02T12:01:15Z</time>
</trkpt>
<trkpt lat="59.62497427593917" lon="16.548765180632472">
<ele>60.590187</ele>
<time>2012-08-02T12:01:20Z</time>
</trkpt>
<trkpt lat="59.62507523596287" lon="16.54843032360077">
<ele>60.802364</ele>
<time>2012-08-02T12:01:24Z</time>
</trkpt>
<trkpt lat="59.62518734391779" lon="16.548070153221488">
<ele>61.292263</ele>
<time>2012-08-02T12:01:29Z</time>
</trkpt>
<trkpt lat="59.625398819334805" lon="16.548131927847862">
<ele>61.31096</ele>
<time>2012-08-02T12:01:34Z</time>
</trkpt>
<trkpt lat="59.62561264168471" lon="16.548166293650866">
<ele>61.278465</ele>
<time>2012-08-02T12:01:38Z</time>
</trkpt>
<trkpt lat="59.62581204716116" lon="16.548106111586094">
<ele>61.344044</ele>
<time>2012-08-02T12:01:41Z</time>
</trkpt>
<trkpt lat="59.62600441183895" lon="16.547954818233848">
<ele>61.799835</ele>
<time>2012-08-02T12:01:44Z</time>
</trkpt>
<trkpt lat="59.62618185672909" lon="16.547771422192454">
<ele>62.735867</ele>
<time>2012-08-02T12:01:47Z</time>
</trkpt>
<trkpt lat="59.626335706561804" lon="16.54754343442619">
<ele>63.851078</ele>
<time>2012-08-02T12:01:50Z</time>
</trkpt>
<trkpt lat="59.62650279980153" lon="16.547299940139055">
<ele>64.66686</ele>
<time>2012-08-02T12:01:53Z</time>
</trkpt>
<trkpt lat="59.62668418418616" lon="16.547076646238565">
<ele>64.89851</ele>
<time>2012-08-02T12:01:56Z</time>
</trkpt>
<trkpt lat="59.626895785331726" lon="16.546868523582816">
<ele>65.27882</ele>
<time>2012-08-02T12:02:00Z</time>
</trkpt>
<trkpt lat="59.62706975173205" lon="16.54666878283024">
<ele>66.611374</ele>
<time>2012-08-02T12:02:03Z</time>
</trkpt>
<trkpt lat="59.62727816775441" lon="16.546541545540094">
<ele>67.20948</ele>
<time>2012-08-02T12:02:06Z</time>
</trkpt>
<trkpt lat="59.627477740868926" lon="16.546464264392853">
<ele>67.504</ele>
<time>2012-08-02T12:02:09Z</time>
</trkpt>
<trkpt lat="59.627677355892956" lon="16.546335769817233">
<ele>67.12825</ele>
<time>2012-08-02T12:02:12Z</time>
</trkpt>
<trkpt lat="59.62784964591265" lon="16.54603561386466">
<ele>66.55567</ele>
<time>2012-08-02T12:02:15Z</time>
</trkpt>
<trkpt lat="59.62793652433902" lon="16.545569160953164">
<ele>65.28756</ele>
<time>2012-08-02T12:02:18Z</time>
</trkpt>
<trkpt lat="59.62798618711531" lon="16.545104468241334">
<ele>64.260376</ele>
<time>2012-08-02T12:02:21Z</time>
</trkpt>
<trkpt lat="59.628024492412806" lon="16.54471378773451">
<ele>64.359856</ele>
<time>2012-08-02T12:02:24Z</time>
</trkpt>
<trkpt lat="59.62814523372799" lon="16.544350683689117">
<ele>65.40214</ele>
<time>2012-08-02T12:02:28Z</time>
</trkpt>
<trkpt lat="59.628305663354695" lon="16.54415144585073">
<ele>66.3009</ele>
<time>2012-08-02T12:02:31Z</time>
</trkpt>
<trkpt lat="59.62843331974" lon="16.54383427463472">
<ele>67.08008</ele>
<time>2012-08-02T12:02:34Z</time>
</trkpt>
<trkpt lat="59.62855368386954" lon="16.543463710695505">
<ele>67.505646</ele>
<time>2012-08-02T12:02:37Z</time>
</trkpt>
<trkpt lat="59.6286912728101" lon="16.54316984117031">
<ele>68.37425</ele>
<time>2012-08-02T12:02:40Z</time>
</trkpt>
<trkpt lat="59.628836615011096" lon="16.542926765978336">
<ele>69.017265</ele>
<time>2012-08-02T12:02:43Z</time>
</trkpt>
<trkpt lat="59.629014395177364" lon="16.54279642738402">
<ele>69.59947</ele>
<time>2012-08-02T12:02:46Z</time>
</trkpt>
<trkpt lat="59.62921233382076" lon="16.54266801662743">
<ele>70.432594</ele>
<time>2012-08-02T12:02:49Z</time>
</trkpt>
<trkpt lat="59.62939891498536" lon="16.542528038844466">
<ele>70.25127</ele>
<time>2012-08-02T12:02:52Z</time>
</trkpt>
<trkpt lat="59.629599996842444" lon="16.54239133000374">
<ele>69.35756</ele>
<time>2012-08-02T12:02:55Z</time>
</trkpt>
<trkpt lat="59.62978905066848" lon="16.54231270775199">
<ele>68.48209</ele>
<time>2012-08-02T12:02:58Z</time>
</trkpt>
<trkpt lat="59.630019343458116" lon="16.542259231209755">
<ele>67.783005</ele>
<time>2012-08-02T12:03:02Z</time>
</trkpt>
<trkpt lat="59.63022931013256" lon="16.542243054136634">
<ele>68.00087</ele>
<time>2012-08-02T12:03:06Z</time>
</trkpt>
<trkpt lat="59.630428715609014" lon="16.54234548099339">
<ele>68.42644</ele>
<time>2012-08-02T12:03:10Z</time>
</trkpt>
<trkpt lat="59.63061508722603" lon="16.542387222871184">
<ele>69.19553</ele>
<time>2012-08-02T12:03:13Z</time>
</trkpt>
<trkpt lat="59.6308095054701" lon="16.542246658354998">
<ele>70.456</ele>
<time>2012-08-02T12:03:17Z</time>
</trkpt>
<trkpt lat="59.631002666428685" lon="16.542117912322283">
<ele>71.696625</ele>
<time>2012-08-02T12:03:21Z</time>
</trkpt>
<trkpt lat="59.631234551779926" lon="16.542220590636134">
<ele>72.389565</ele>
<time>2012-08-02T12:03:25Z</time>
</trkpt>
<trkpt lat="59.63141317013651" lon="16.54238403774798">
<ele>72.6581</ele>
<time>2012-08-02T12:03:28Z</time>
</trkpt>
<trkpt lat="59.63160058949143" lon="16.542555363848805">
<ele>73.01982</ele>
<time>2012-08-02T12:03:31Z</time>
</trkpt>
<trkpt lat="59.631819147616625" lon="16.542619988322258">
<ele>72.9068</ele>
<time>2012-08-02T12:03:34Z</time>
</trkpt>
<trkpt lat="59.63202815037221" lon="16.542640272527933">
<ele>72.352875</ele>
<time>2012-08-02T12:03:37Z</time>
</trkpt>
<trkpt lat="59.63222705293447" lon="16.542702801525593">
<ele>71.805115</ele>
<time>2012-08-02T12:03:40Z</time>
</trkpt>
<trkpt lat="59.632423650473356" lon="16.542783686891198">
<ele>71.8506</ele>
<time>2012-08-02T12:03:43Z</time>
</trkpt>
<trkpt lat="59.632652224972844" lon="16.542868930846453">
<ele>71.35886</ele>
<time>2012-08-02T12:03:46Z</time>
</trkpt>
<trkpt lat="59.632877279073" lon="16.542962221428752">
<ele>70.468575</ele>
<time>2012-08-02T12:03:49Z</time>
</trkpt>
<trkpt lat="59.63310241699219" lon="16.543004466220737">
<ele>69.80237</ele>
<time>2012-08-02T12:03:52Z</time>
</trkpt>
<trkpt lat="59.63332747109234" lon="16.542981415987015">
<ele>69.44006</ele>
<time>2012-08-02T12:03:55Z</time>
</trkpt>
<trkpt lat="59.63355881161988" lon="16.54285853728652">
<ele>69.24035</ele>
<time>2012-08-02T12:03:58Z</time>
</trkpt>
<trkpt lat="59.63378348853439" lon="16.542721576988697">
<ele>68.606094</ele>
<time>2012-08-02T12:04:01Z</time>
</trkpt>
<trkpt lat="59.63400439359248" lon="16.542598279193044">
<ele>67.99476</ele>
<time>2012-08-02T12:04:04Z</time>
</trkpt>
<trkpt lat="59.634197764098644" lon="16.54255502857268">
<ele>67.79467</ele>
<time>2012-08-02T12:04:07Z</time>
</trkpt>
<trkpt lat="59.63439457118511" lon="16.542579336091876">
<ele>67.861824</ele>
<time>2012-08-02T12:04:10Z</time>
</trkpt>
<trkpt lat="59.634592132642865" lon="16.542586041614413">
<ele>67.74638</ele>
<time>2012-08-02T12:04:13Z</time>
</trkpt>
<trkpt lat="59.634792963042855" lon="16.542578246444464">
<ele>67.89456</ele>
<time>2012-08-02T12:04:16Z</time>
</trkpt>
<trkpt lat="59.63500971905887" lon="16.542581683024764">
<ele>68.06178</ele>
<time>2012-08-02T12:04:19Z</time>
</trkpt>
<trkpt lat="59.635230749845505" lon="16.54259325005114">
<ele>67.737</ele>
<time>2012-08-02T12:04:22Z</time>
</trkpt>
<trkpt lat="59.6354416385293" lon="16.542632142081857">
<ele>67.79999</ele>
<time>2012-08-02T12:04:25Z</time>
</trkpt>
<trkpt lat="59.635618664324284" lon="16.542719900608063">
<ele>68.193756</ele>
<time>2012-08-02T12:04:28Z</time>
</trkpt>
<trkpt lat="59.63583944365382" lon="16.54288007877767">
<ele>69.382</ele>
<time>2012-08-02T12:04:32Z</time>
</trkpt>
<trkpt lat="59.63605536147952" lon="16.542990216985345">
<ele>70.52322</ele>
<time>2012-08-02T12:04:36Z</time>
</trkpt>
<trkpt lat="59.636288839392364" lon="16.543076802045107">
<ele>71.88548</ele>
<time>2012-08-02T12:04:40Z</time>
</trkpt>
<trkpt lat="59.63647583965212" lon="16.543107479810715">
<ele>72.678246</ele>
<time>2012-08-02T12:04:43Z</time>
</trkpt>
<trkpt lat="59.63667549658567" lon="16.543104546144605">
<ele>72.78458</ele>
<time>2012-08-02T12:04:46Z</time>
</trkpt>
<trkpt lat="59.63686576578766" lon="16.5431272611022">
<ele>72.80913</ele>
<time>2012-08-02T12:04:49Z</time>
</trkpt>
<trkpt lat="59.63706902693957" lon="16.543111503124237">
<ele>73.08979</ele>
<time>2012-08-02T12:04:52Z</time>
</trkpt>
<trkpt lat="59.637281969189644" lon="16.542996000498533">
<ele>73.309746</ele>
<time>2012-08-02T12:04:55Z</time>
</trkpt>
<trkpt lat="59.63748761918396" lon="16.542826686054468">
<ele>73.20254</ele>
<time>2012-08-02T12:04:58Z</time>
</trkpt>
<trkpt lat="59.637703159824014" lon="16.542639937251806">
<ele>73.24326</ele>
<time>2012-08-02T12:05:01Z</time>
</trkpt>
<trkpt lat="59.63790516369045" lon="16.54235335998237">
<ele>73.276054</ele>
<time>2012-08-02T12:05:04Z</time>
</trkpt>
<trkpt lat="59.63809669017792" lon="16.54206845909357">
<ele>73.4774</ele>
<time>2012-08-02T12:05:07Z</time>
</trkpt>
<trkpt lat="59.63831549976021" lon="16.54190861620009">
<ele>73.43578</ele>
<time>2012-08-02T12:05:10Z</time>
</trkpt>
<trkpt lat="59.638547846116126" lon="16.541749695315957">
<ele>72.61821</ele>
<time>2012-08-02T12:05:13Z</time>
</trkpt>
<trkpt lat="59.63877243921161" lon="16.541528832167387">
<ele>71.853</ele>
<time>2012-08-02T12:05:16Z</time>
</trkpt>
<trkpt lat="59.638984417542815" lon="16.541281482204795">
<ele>70.71611</ele>
<time>2012-08-02T12:05:19Z</time>
</trkpt>
<trkpt lat="59.63918793015182" lon="16.54101837426424">
<ele>69.63024</ele>
<time>2012-08-02T12:05:22Z</time>
</trkpt>
<trkpt lat="59.639379708096385" lon="16.540726348757744">
<ele>68.67369</ele>
<time>2012-08-02T12:05:25Z</time>
</trkpt>
<trkpt lat="59.63956813327968" lon="16.540430719032884">
<ele>67.65453</ele>
<time>2012-08-02T12:05:28Z</time>
</trkpt>
<trkpt lat="59.639753038063645" lon="16.540168365463614">
<ele>66.888626</ele>
<time>2012-08-02T12:05:31Z</time>
</trkpt>
<trkpt lat="59.63995583821088" lon="16.53997415676713">
<ele>66.806145</ele>
<time>2012-08-02T12:05:34Z</time>
</trkpt>
<trkpt lat="59.64016966056079" lon="16.53980257920921">
<ele>66.89323</ele>
<time>2012-08-02T12:05:37Z</time>
</trkpt>
<trkpt lat="59.640376777388155" lon="16.53962722979486">
<ele>66.75964</ele>
<time>2012-08-02T12:05:40Z</time>
</trkpt>
<trkpt lat="59.64057555422187" lon="16.539425058290362">
<ele>66.356415</ele>
<time>2012-08-02T12:05:43Z</time>
</trkpt>
<trkpt lat="59.640769637189806" lon="16.53924711048603">
<ele>66.14255</ele>
<time>2012-08-02T12:05:46Z</time>
</trkpt>
<trkpt lat="59.64096849784255" lon="16.539064468815923">
<ele>65.964836</ele>
<time>2012-08-02T12:05:49Z</time>
</trkpt>
<trkpt lat="59.641177584417164" lon="16.538900854066014">
<ele>65.84766</ele>
<time>2012-08-02T12:05:52Z</time>
</trkpt>
<trkpt lat="59.6413880540058" lon="16.538787195459008">
<ele>65.65448</ele>
<time>2012-08-02T12:05:55Z</time>
</trkpt>
<trkpt lat="59.64160091243684" lon="16.538692144677043">
<ele>65.5761</ele>
<time>2012-08-02T12:05:58Z</time>
</trkpt>
<trkpt lat="59.641803754493594" lon="16.53864218853414">
<ele>65.93055</ele>
<time>2012-08-02T12:06:01Z</time>
</trkpt>
<trkpt lat="59.64199725072831" lon="16.538702538236976">
<ele>66.081635</ele>
<time>2012-08-02T12:06:04Z</time>
</trkpt>
<trkpt lat="59.642209354788065" lon="16.53869692236185">
<ele>66.012566</ele>
<time>2012-08-02T12:06:07Z</time>
</trkpt>
<trkpt lat="59.642422338947654" lon="16.53871259652078">
<ele>65.95843</ele>
<time>2012-08-02T12:06:10Z</time>
</trkpt>
<trkpt lat="59.64263683184981" lon="16.53870178386569">
<ele>65.85122</ele>
<time>2012-08-02T12:06:13Z</time>
</trkpt>
<trkpt lat="59.64284076355398" lon="16.538686025887728">
<ele>65.72004</ele>
<time>2012-08-02T12:06:16Z</time>
</trkpt>
<trkpt lat="59.6430295240134" lon="16.538682840764523">
<ele>65.79597</ele>
<time>2012-08-02T12:06:19Z</time>
</trkpt>
<trkpt lat="59.64322234969586" lon="16.538585694506764">
<ele>65.78427</ele>
<time>2012-08-02T12:06:23Z</time>
</trkpt>
<trkpt lat="59.643245986662805" lon="16.53823130764067">
<ele>65.39734</ele>
<time>2012-08-02T12:06:30Z</time>
</trkpt>
<trkpt lat="59.64326099026948" lon="16.537766698747873">
<ele>65.585106</ele>
<time>2012-08-02T12:06:34Z</time>
</trkpt>
<trkpt lat="59.64328014291823" lon="16.537360260263085">
<ele>66.51716</ele>
<time>2012-08-02T12:06:37Z</time>
</trkpt>
<trkpt lat="59.643292631953955" lon="16.536966394633055">
<ele>67.44004</ele>
<time>2012-08-02T12:06:40Z</time>
</trkpt>
<trkpt lat="59.643305665813386" lon="16.53657814487815">
<ele>68.143456</ele>
<time>2012-08-02T12:06:43Z</time>
</trkpt>
<trkpt lat="59.64336429722607" lon="16.53622006997466">
<ele>69.16207</ele>
<time>2012-08-02T12:06:46Z</time>
</trkpt>
<trkpt lat="59.64343566913158" lon="16.535893762484193">
<ele>70.109</ele>
<time>2012-08-02T12:06:49Z</time>
</trkpt>
<trkpt lat="59.64355322532356" lon="16.535568041726947">
<ele>71.55206</ele>
<time>2012-08-02T12:06:53Z</time>
</trkpt>
<trkpt lat="59.64376599993557" lon="16.53548908419907">
<ele>72.12586</ele>
<time>2012-08-02T12:06:57Z</time>
</trkpt>
<trkpt lat="59.6439981367439" lon="16.53552370145917">
<ele>72.16366</ele>
<time>2012-08-02T12:07:01Z</time>
</trkpt>
<trkpt lat="59.64417654555291" lon="16.53557265177369">
<ele>71.64249</ele>
<time>2012-08-02T12:07:04Z</time>
</trkpt>
<trkpt lat="59.64436400681734" lon="16.535613052546978">
<ele>70.73198</ele>
<time>2012-08-02T12:07:07Z</time>
</trkpt>
<trkpt lat="59.64455544948578" lon="16.535652363672853">
<ele>69.969734</ele>
<time>2012-08-02T12:07:10Z</time>
</trkpt>
<trkpt lat="59.64475322049111" lon="16.535680359229445">
<ele>69.38723</ele>
<time>2012-08-02T12:07:13Z</time>
</trkpt>
<trkpt lat="59.64495505671948" lon="16.53569377027452">
<ele>68.863365</ele>
<time>2012-08-02T12:07:16Z</time>
</trkpt>
<trkpt lat="59.64515345636755" lon="16.535708103328943">
<ele>68.51267</ele>
<time>2012-08-02T12:07:19Z</time>
</trkpt>
<trkpt lat="59.64535449631512" lon="16.53571430593729">
<ele>68.205345</ele>
<time>2012-08-02T12:07:22Z</time>
</trkpt>
<trkpt lat="59.645555200986564" lon="16.535709695890546">
<ele>67.8632</ele>
<time>2012-08-02T12:07:25Z</time>
</trkpt>
<trkpt lat="59.64575821068138" lon="16.535692932084203">
<ele>67.45792</ele>
<time>2012-08-02T12:07:28Z</time>
</trkpt>
<trkpt lat="59.64596239384264" lon="16.535622775554657">
<ele>66.90726</ele>
<time>2012-08-02T12:07:31Z</time>
</trkpt>
<trkpt lat="59.64615366887301" lon="16.535576591268182">
<ele>66.69369</ele>
<time>2012-08-02T12:07:34Z</time>
</trkpt>
<trkpt lat="59.64634079486132" lon="16.535628139972687">
<ele>66.68639</ele>
<time>2012-08-02T12:07:37Z</time>
</trkpt>
<trkpt lat="59.64653563220054" lon="16.535686226561666">
<ele>66.5927</ele>
<time>2012-08-02T12:07:40Z</time>
</trkpt>
<trkpt lat="59.64673419948667" lon="16.535714892670512">
<ele>66.665665</ele>
<time>2012-08-02T12:07:43Z</time>
</trkpt>
<trkpt lat="59.646943705156446" lon="16.535677257925272">
<ele>66.45427</ele>
<time>2012-08-02T12:07:46Z</time>
</trkpt>
<trkpt lat="59.647181164473295" lon="16.535621769726276">
<ele>65.363525</ele>
<time>2012-08-02T12:07:49Z</time>
</trkpt>
<trkpt lat="59.64742872398347" lon="16.53557994402945">
<ele>63.942425</ele>
<time>2012-08-02T12:07:52Z</time>
</trkpt>
<trkpt lat="59.64766492601484" lon="16.535560749471188">
<ele>62.905384</ele>
<time>2012-08-02T12:07:55Z</time>
</trkpt>
<trkpt lat="59.647858925163746" lon="16.53559159487486">
<ele>62.5851</ele>
<time>2012-08-02T12:07:58Z</time>
</trkpt>
<trkpt lat="59.64801533147693" lon="16.53576753102243">
<ele>62.49216</ele>
<time>2012-08-02T12:08:01Z</time>
</trkpt>
<trkpt lat="59.648187537677586" lon="16.535883536562324">
<ele>62.515438</ele>
<time>2012-08-02T12:08:04Z</time>
</trkpt>
<trkpt lat="59.64836745522916" lon="16.535971714183688">
<ele>62.564312</ele>
<time>2012-08-02T12:08:07Z</time>
</trkpt>
<trkpt lat="59.64859422761947" lon="16.536101633682847">
<ele>62.9512</ele>
<time>2012-08-02T12:08:11Z</time>
</trkpt>
<trkpt lat="59.64880402665585" lon="16.536126863211393">
<ele>63.819324</ele>
<time>2012-08-02T12:08:15Z</time>
</trkpt>
<trkpt lat="59.64887829031795" lon="16.53568211942911">
<ele>64.17879</ele>
<time>2012-08-02T12:08:19Z</time>
</trkpt>
<trkpt lat="59.648919738829136" lon="16.53531021438539">
<ele>64.25668</ele>
<time>2012-08-02T12:08:22Z</time>
</trkpt>
<trkpt lat="59.64899224229157" lon="16.534957168623805">
<ele>64.07234</ele>
<time>2012-08-02T12:08:25Z</time>
</trkpt>
<trkpt lat="59.649105188436806" lon="16.534662041813135">
<ele>64.002396</ele>
<time>2012-08-02T12:08:28Z</time>
</trkpt>
<trkpt lat="59.64931339491159" lon="16.534463306888938">
<ele>63.822628</ele>
<time>2012-08-02T12:08:32Z</time>
</trkpt>
<trkpt lat="59.64950085617602" lon="16.53444436378777">
<ele>63.707973</ele>
<time>2012-08-02T12:08:35Z</time>
</trkpt>
<trkpt lat="59.64968773070723" lon="16.534478729590774">
<ele>63.7143</ele>
<time>2012-08-02T12:08:38Z</time>
</trkpt>
<trkpt lat="59.649877161718905" lon="16.534511502832174">
<ele>63.793545</ele>
<time>2012-08-02T12:08:41Z</time>
</trkpt>
<trkpt lat="59.65006701182574" lon="16.534527176991105">
<ele>63.98165</ele>
<time>2012-08-02T12:08:44Z</time>
</trkpt>
<trkpt lat="59.65028821025044" lon="16.534581072628498">
<ele>64.571144</ele>
<time>2012-08-02T12:08:48Z</time>
</trkpt>
<trkpt lat="59.65046775061637" lon="16.53460906818509">
<ele>65.43782</ele>
<time>2012-08-02T12:08:51Z</time>
</trkpt>
<trkpt lat="59.650685554370284" lon="16.53467503376305">
<ele>65.9686</ele>
<time>2012-08-02T12:08:55Z</time>
</trkpt>
<trkpt lat="59.65090905781835" lon="16.534689282998443">
<ele>67.17741</ele>
<time>2012-08-02T12:09:00Z</time>
</trkpt>
<trkpt lat="59.6511216647923" lon="16.53459632769227">
<ele>67.58504</ele>
<time>2012-08-02T12:09:04Z</time>
</trkpt>
<trkpt lat="59.651302713900805" lon="16.53454201295972">
<ele>67.64369</ele>
<time>2012-08-02T12:09:07Z</time>
</trkpt>
<trkpt lat="59.651484726928174" lon="16.534518795087934">
<ele>67.67937</ele>
<time>2012-08-02T12:09:10Z</time>
</trkpt>
<trkpt lat="59.65166699141264" lon="16.534526841714978">
<ele>68.08504</ele>
<time>2012-08-02T12:09:13Z</time>
</trkpt>
<trkpt lat="59.651892255060375" lon="16.534583754837513">
<ele>68.46948</ele>
<time>2012-08-02T12:09:17Z</time>
</trkpt>
<trkpt lat="59.65207674074918" lon="16.53462029993534">
<ele>68.58712</ele>
<time>2012-08-02T12:09:20Z</time>
</trkpt>
<trkpt lat="59.65226135216653" lon="16.534666400402784">
<ele>68.546135</ele>
<time>2012-08-02T12:09:23Z</time>
</trkpt>
<trkpt lat="59.652484729886055" lon="16.53473655693233">
<ele>69.1974</ele>
<time>2012-08-02T12:09:27Z</time>
</trkpt>
<trkpt lat="59.65269167907536" lon="16.53486220166087">
<ele>69.48628</ele>
<time>2012-08-02T12:09:31Z</time>
</trkpt>
<trkpt lat="59.652872225269675" lon="16.534905033186078">
<ele>69.50515</ele>
<time>2012-08-02T12:09:34Z</time>
</trkpt>
<trkpt lat="59.65307611506432" lon="16.534966472536325">
<ele>69.53248</ele>
<time>2012-08-02T12:09:38Z</time>
</trkpt>
<trkpt lat="59.65321232099086" lon="16.53522421605885">
<ele>68.97196</ele>
<time>2012-08-02T12:09:43Z</time>
</trkpt>
<trkpt lat="59.65339525602758" lon="16.53521340340376">
<ele>68.90559</ele>
<time>2012-08-02T12:09:47Z</time>
</trkpt>
<trkpt lat="59.653601283207536" lon="16.535141821950674">
<ele>68.57833</ele>
<time>2012-08-02T12:09:51Z</time>
</trkpt>
<trkpt lat="59.65379293542355" lon="16.53504434041679">
<ele>68.22596</ele>
<time>2012-08-02T12:09:55Z</time>
</trkpt>
<trkpt lat="59.65394800063223" lon="16.53526092879474">
<ele>67.7387</ele>
<time>2012-08-02T12:10:01Z</time>
</trkpt>
<trkpt lat="59.654132863506675" lon="16.535241901874542">
<ele>66.34999</ele>
<time>2012-08-02T12:11:10Z</time>
</trkpt>
</trkseg>
</trk>
<extensions>
<om:bpm  xmlns:om="http://www.oruxmaps.com/oruxmapsextensions/1/0">
</om:bpm>
</extensions>
</gpx>
